<?xml version='1.0' encoding='UTF-8'?><gpx version="1.1" creator="JPX - https://github.com/jenetics/jpx" xmlns="http://www.topografix.com/GPX/1/1"><trk><trkseg><trkpt lat="45.72294685050006" lon="9.695171229132146"><ele>387.0</ele><time>2026-03-28T12:55:01Z</time></trkpt><trkpt lat="45.722972369974855" lon="9.695080217246826"><ele>387.0</ele><time>2026-03-28T12:55:11Z</time></trkpt><trkpt lat="45.72296448397027" lon="9.694970272177395"><ele>387.0</ele><time>2026-03-28T12:55:16Z</time></trkpt><trkpt lat="45.722979834108564" lon="9.694881457300772"><ele>387.0</ele><time>2026-03-28T12:55:25Z</time></trkpt><trkpt lat="45.72295374865584" lon="9.694787970563215"><ele>387.0</ele><time>2026-03-28T12:55:31Z</time></trkpt><trkpt lat="45.72294171414187" lon="9.694688502401801"><ele>387.0</ele><time>2026-03-28T12:55:37.999Z</time></trkpt><trkpt lat="45.72294523414133" lon="9.694596014446029"><ele>387.0</ele><time>2026-03-28T12:55:44.999Z</time></trkpt><trkpt lat="45.72291837581463" lon="9.69451361688002"><ele>387.0</ele><time>2026-03-28T12:55:59.999Z</time></trkpt><trkpt lat="45.722950740847125" lon="9.69442438195286"><ele>387.0</ele><time>2026-03-28T12:56:08.999Z</time></trkpt><trkpt lat="45.723016981026916" lon="9.694419246638663"><ele>387.0</ele><time>2026-03-28T12:56:22.999Z</time></trkpt><trkpt lat="45.72307904196193" lon="9.694389159932832"><ele>387.0</ele><time>2026-03-28T12:56:29.999Z</time></trkpt><trkpt lat="45.723143326726664" lon="9.694365646908611"><ele>387.0</ele><time>2026-03-28T12:56:40Z</time></trkpt><trkpt lat="45.72318606497318" lon="9.694287441323612"><ele>387.0</ele><time>2026-03-28T12:56:52Z</time></trkpt><trkpt lat="45.72319700668609" lon="9.694190978334749"><ele>387.0</ele><time>2026-03-28T12:56:59Z</time></trkpt><trkpt lat="45.72320607805684" lon="9.694053558580027"><ele>392.42857142857144</ele><time>2026-03-28T12:57:34Z</time></trkpt><trkpt lat="45.72317804236312" lon="9.693947041753306"><ele>397.8571428571429</ele><time>2026-03-28T12:57:44Z</time></trkpt><trkpt lat="45.72311990029125" lon="9.693903239856644"><ele>403.2857142857143</ele><time>2026-03-28T12:57:50Z</time></trkpt><trkpt lat="45.7231054626874" lon="9.69378112988115"><ele>408.7142857142857</ele><time>2026-03-28T12:58:07Z</time></trkpt><trkpt lat="45.723109913103684" lon="9.69368864207697"><ele>414.1428571428571</ele><time>2026-03-28T12:58:18Z</time></trkpt><trkpt lat="45.72317036657035" lon="9.693718343803129"><ele>419.57142857142856</ele><time>2026-03-28T12:58:30Z</time></trkpt><trkpt lat="45.72324884287833" lon="9.69370201700025"><ele>425.0</ele><time>2026-03-28T12:58:36Z</time></trkpt><trkpt lat="45.723321647263084" lon="9.693678727567274"><ele>425.0</ele><time>2026-03-28T12:58:42Z</time></trkpt><trkpt lat="45.72337439089063" lon="9.693606274955018"><ele>425.0</ele><time>2026-03-28T12:58:52Z</time></trkpt><trkpt lat="45.72343917526476" lon="9.693606276789474"><ele>425.0</ele><time>2026-03-28T12:58:58Z</time></trkpt><trkpt lat="45.72352490456968" lon="9.693593914376677"><ele>425.0</ele><time>2026-03-28T12:59:07Z</time></trkpt><trkpt lat="45.72358801667716" lon="9.693584200412987"><ele>425.0</ele><time>2026-03-28T12:59:13Z</time></trkpt><trkpt lat="45.7236669070256" lon="9.693572211661927"><ele>425.0</ele><time>2026-03-28T12:59:20Z</time></trkpt><trkpt lat="45.72368926912446" lon="9.693471894143695"><ele>425.0</ele><time>2026-03-28T12:59:27Z</time></trkpt><trkpt lat="45.72375037000904" lon="9.693447422249397"><ele>431.85714285714283</ele><time>2026-03-28T12:59:37Z</time></trkpt><trkpt lat="45.72381491755645" lon="9.69342084777121"><ele>438.71428571428567</ele><time>2026-03-28T12:59:45Z</time></trkpt><trkpt lat="45.723853943226864" lon="9.69333599321754"><ele>445.57142857142856</ele><time>2026-03-28T12:59:52Z</time></trkpt><trkpt lat="45.72385790704279" lon="9.693238223844622"><ele>452.42857142857144</ele><time>2026-03-28T13:00:02Z</time></trkpt><trkpt lat="45.7237970625547" lon="9.693203550870654"><ele>459.2857142857143</ele><time>2026-03-28T13:00:07Z</time></trkpt><trkpt lat="45.723724597141036" lon="9.693164582703925"><ele>466.14285714285717</ele><time>2026-03-28T13:00:11Z</time></trkpt><trkpt lat="45.72367078030593" lon="9.693108557137458"><ele>473.0</ele><time>2026-03-28T13:00:18Z</time></trkpt><trkpt lat="45.72361899404498" lon="9.693047242024525"><ele>471.57142857142856</ele><time>2026-03-28T13:00:23Z</time></trkpt><trkpt lat="45.723553333541496" lon="9.693055304855408"><ele>470.1428571428571</ele><time>2026-03-28T13:00:27Z</time></trkpt><trkpt lat="45.72347816850048" lon="9.693032785405757"><ele>468.71428571428567</ele><time>2026-03-28T13:00:34Z</time></trkpt><trkpt lat="45.72340873488837" lon="9.693016333805454"><ele>467.2857142857143</ele><time>2026-03-28T13:00:41Z</time></trkpt><trkpt lat="45.72335001759739" lon="9.692981133983851"><ele>465.8571428571428</ele><time>2026-03-28T13:00:46Z</time></trkpt><trkpt lat="45.72329432806678" lon="9.69291461000264"><ele>464.4285714285714</ele><time>2026-03-28T13:00:57Z</time></trkpt><trkpt lat="45.72324412247564" lon="9.692841737088866"><ele>463.0</ele><time>2026-03-28T13:01:02Z</time></trkpt><trkpt lat="45.723159105609106" lon="9.692834023249487"><ele>463.0</ele><time>2026-03-28T13:01:09Z</time></trkpt><trkpt lat="45.7230884060194" lon="9.69281092493464"><ele>462.99999999999994</ele><time>2026-03-28T13:01:17Z</time></trkpt><trkpt lat="45.72314751866164" lon="9.692759305628318"><ele>463.0</ele><time>2026-03-28T13:01:34Z</time></trkpt><trkpt lat="45.7231967267013" lon="9.69270005229101"><ele>463.0</ele><time>2026-03-28T13:01:41Z</time></trkpt><trkpt lat="45.72317879425837" lon="9.692605289058793"><ele>462.99999999999994</ele><time>2026-03-28T13:01:51Z</time></trkpt><trkpt lat="45.72323812870705" lon="9.692566310939965"><ele>463.0</ele><time>2026-03-28T13:02:02Z</time></trkpt><trkpt lat="45.723285263867766" lon="9.692504724371712"><ele>463.0</ele><time>2026-03-28T13:02:10Z</time></trkpt><trkpt lat="45.72334364220952" lon="9.692438304992097"><ele>466.85714285714283</ele><time>2026-03-28T13:02:23.001Z</time></trkpt><trkpt lat="45.72337841179143" lon="9.692328834608873"><ele>470.71428571428567</ele><time>2026-03-28T13:02:30.001Z</time></trkpt><trkpt lat="45.72344949561743" lon="9.69229441005725"><ele>474.57142857142856</ele><time>2026-03-28T13:02:42Z</time></trkpt><trkpt lat="45.72351498714706" lon="9.692319716472355"><ele>478.42857142857144</ele><time>2026-03-28T13:02:49Z</time></trkpt><trkpt lat="45.72358722471486" lon="9.692298811891712"><ele>482.2857142857143</ele><time>2026-03-28T13:02:58Z</time></trkpt><trkpt lat="45.72364775841093" lon="9.692266326080787"><ele>486.1428571428571</ele><time>2026-03-28T13:03:04Z</time></trkpt><trkpt lat="45.72371426072544" lon="9.692274477808438"><ele>490.0</ele><time>2026-03-28T13:03:09Z</time></trkpt><trkpt lat="45.723786924811016" lon="9.692234497617008"><ele>492.2857142857143</ele><time>2026-03-28T13:03:15Z</time></trkpt><trkpt lat="45.723855685599496" lon="9.692260098515774"><ele>494.57142857142856</ele><time>2026-03-28T13:03:23Z</time></trkpt><trkpt lat="45.72390273610247" lon="9.692193514825888"><ele>496.8571428571429</ele><time>2026-03-28T13:03:29Z</time></trkpt><trkpt lat="45.72396857362309" lon="9.692196850791044"><ele>499.14285714285717</ele><time>2026-03-28T13:03:35Z</time></trkpt><trkpt lat="45.72403314474179" lon="9.692200883600798"><ele>501.42857142857144</ele><time>2026-03-28T13:03:44Z</time></trkpt><trkpt lat="45.72409256579447" lon="9.692166176984406"><ele>503.7142857142858</ele><time>2026-03-28T13:03:51Z</time></trkpt><trkpt lat="45.724163821174656" lon="9.692184763713692"><ele>506.00000000000006</ele><time>2026-03-28T13:04:00Z</time></trkpt><trkpt lat="45.72424234107364" lon="9.692170309858232"><ele>506.00000000000006</ele><time>2026-03-28T13:04:07Z</time></trkpt><trkpt lat="45.72433926626139" lon="9.692190136640741"><ele>506.0</ele><time>2026-03-28T13:04:17Z</time></trkpt><trkpt lat="45.72438249393583" lon="9.6921052178372"><ele>506.00000000000006</ele><time>2026-03-28T13:04:24Z</time></trkpt><trkpt lat="45.72444336358562" lon="9.692136560664553"><ele>506.00000000000006</ele><time>2026-03-28T13:04:35Z</time></trkpt><trkpt lat="45.72447533181983" lon="9.692058520647539"><ele>506.0</ele><time>2026-03-28T13:04:41Z</time></trkpt><trkpt lat="45.72451940703019" lon="9.691991572317816"><ele>506.00000000000006</ele><time>2026-03-28T13:04:46Z</time></trkpt><trkpt lat="45.724569546668064" lon="9.69192972425245"><ele>506.00000000000006</ele><time>2026-03-28T13:04:54Z</time></trkpt><trkpt lat="45.72463256409718" lon="9.69194119370593"><ele>510.57142857142867</ele><time>2026-03-28T13:05:02Z</time></trkpt><trkpt lat="45.72469713424491" lon="9.691918692681478"><ele>515.1428571428571</ele><time>2026-03-28T13:05:11Z</time></trkpt><trkpt lat="45.72476623416833" lon="9.691885689953425"><ele>519.7142857142858</ele><time>2026-03-28T13:05:21Z</time></trkpt><trkpt lat="45.724829619654344" lon="9.691844561897259"><ele>524.2857142857143</ele><time>2026-03-28T13:05:29Z</time></trkpt><trkpt lat="45.72489918918499" lon="9.691845420787777"><ele>528.8571428571429</ele><time>2026-03-28T13:05:45Z</time></trkpt><trkpt lat="45.72495949601804" lon="9.691794553609466"><ele>533.4285714285714</ele><time>2026-03-28T13:05:52Z</time></trkpt><trkpt lat="45.725026290220804" lon="9.691787903125215"><ele>538.0</ele><time>2026-03-28T13:05:59Z</time></trkpt><trkpt lat="45.725094608891915" lon="9.691741868883554"><ele>538.0</ele><time>2026-03-28T13:06:07Z</time></trkpt><trkpt lat="45.72515103773723" lon="9.69168299656177"><ele>538.0</ele><time>2026-03-28T13:06:14Z</time></trkpt><trkpt lat="45.72520306169603" lon="9.691629708637272"><ele>538.0</ele><time>2026-03-28T13:06:20Z</time></trkpt><trkpt lat="45.7252710643595" lon="9.691614845125885"><ele>538.0</ele><time>2026-03-28T13:06:32Z</time></trkpt><trkpt lat="45.725325710201595" lon="9.69153827192357"><ele>538.0</ele><time>2026-03-28T13:06:37Z</time></trkpt><trkpt lat="45.72537253085065" lon="9.691457682139555"><ele>538.0</ele><time>2026-03-28T13:06:44Z</time></trkpt><trkpt lat="45.725418481751106" lon="9.691389794887877"><ele>538.0</ele><time>2026-03-28T13:07:24Z</time></trkpt><trkpt lat="45.7254641805039" lon="9.691325557336857"><ele>539.4285714285714</ele><time>2026-03-28T13:07:40Z</time></trkpt><trkpt lat="45.72552335499857" lon="9.691277573837601"><ele>540.8571428571429</ele><time>2026-03-28T13:07:46Z</time></trkpt><trkpt lat="45.725587569931776" lon="9.6912573621689"><ele>542.2857142857143</ele><time>2026-03-28T13:07:54Z</time></trkpt><trkpt lat="45.72564006323126" lon="9.691205841035954"><ele>543.7142857142858</ele><time>2026-03-28T13:08:00Z</time></trkpt><trkpt lat="45.725702799495394" lon="9.691191486974102"><ele>545.1428571428571</ele><time>2026-03-28T13:08:05Z</time></trkpt><trkpt lat="45.72577065280354" lon="9.691167492070809"><ele>546.5714285714287</ele><time>2026-03-28T13:08:12Z</time></trkpt><trkpt lat="45.725835961535225" lon="9.69116784706046"><ele>548.0</ele><time>2026-03-28T13:08:19Z</time></trkpt><trkpt lat="45.72590464248486" lon="9.691173135963385"><ele>548.0000000000001</ele><time>2026-03-28T13:08:26Z</time></trkpt><trkpt lat="45.72596857382222" lon="9.691145955541753"><ele>548.0</ele><time>2026-03-28T13:08:32Z</time></trkpt><trkpt lat="45.726037358296715" lon="9.691155786595232"><ele>548.0</ele><time>2026-03-28T13:08:37Z</time></trkpt><trkpt lat="45.72610201198909" lon="9.691176041903626"><ele>548.0</ele><time>2026-03-28T13:08:42Z</time></trkpt><trkpt lat="45.72616472964372" lon="9.691163170564353"><ele>548.0</ele><time>2026-03-28T13:08:47Z</time></trkpt><trkpt lat="45.726217363826244" lon="9.69110695639478"><ele>548.0000000000001</ele><time>2026-03-28T13:08:51Z</time></trkpt><trkpt lat="45.72628877216945" lon="9.69105411123041"><ele>548.0</ele><time>2026-03-28T13:08:56Z</time></trkpt><trkpt lat="45.72634843969194" lon="9.69101484643796"><ele>549.1428571428572</ele><time>2026-03-28T13:09:00Z</time></trkpt><trkpt lat="45.72640770513085" lon="9.690966557126846"><ele>550.2857142857143</ele><time>2026-03-28T13:09:04Z</time></trkpt><trkpt lat="45.726461268825744" lon="9.69091786638048"><ele>551.4285714285714</ele><time>2026-03-28T13:09:08Z</time></trkpt><trkpt lat="45.72652362299705" lon="9.6908536723769"><ele>552.5714285714287</ele><time>2026-03-28T13:09:13Z</time></trkpt><trkpt lat="45.72659870526696" lon="9.69081604440164"><ele>553.7142857142858</ele><time>2026-03-28T13:09:18Z</time></trkpt><trkpt lat="45.726658131491185" lon="9.690770381817758"><ele>554.8571428571429</ele><time>2026-03-28T13:09:23Z</time></trkpt><trkpt lat="45.72670147009845" lon="9.690697112477446"><ele>556.0</ele><time>2026-03-28T13:09:27Z</time></trkpt><trkpt lat="45.72675320064879" lon="9.690644859308525"><ele>556.0</ele><time>2026-03-28T13:09:31Z</time></trkpt><trkpt lat="45.726801316268" lon="9.690579174083638"><ele>556.0</ele><time>2026-03-28T13:09:36Z</time></trkpt><trkpt lat="45.726859525743215" lon="9.690515744046278"><ele>556.0</ele><time>2026-03-28T13:09:41Z</time></trkpt><trkpt lat="45.72692723895979" lon="9.690458083824922"><ele>556.0</ele><time>2026-03-28T13:09:46Z</time></trkpt><trkpt lat="45.7269790351941" lon="9.690392604572416"><ele>556.0</ele><time>2026-03-28T13:09:51Z</time></trkpt><trkpt lat="45.72701794305401" lon="9.690315940232637"><ele>556.0</ele><time>2026-03-28T13:09:55Z</time></trkpt><trkpt lat="45.72708855298511" lon="9.69031255432852"><ele>556.0</ele><time>2026-03-28T13:10:00Z</time></trkpt><trkpt lat="45.72713931218308" lon="9.690253098290032"><ele>555.2857142857142</ele><time>2026-03-28T13:10:05Z</time></trkpt><trkpt lat="45.72720206274803" lon="9.690190867941897"><ele>554.5714285714286</ele><time>2026-03-28T13:10:10Z</time></trkpt><trkpt lat="45.72726784112662" lon="9.690126918270922"><ele>553.8571428571429</ele><time>2026-03-28T13:10:15Z</time></trkpt><trkpt lat="45.72731895113116" lon="9.690073441050162"><ele>553.1428571428571</ele><time>2026-03-28T13:10:19Z</time></trkpt><trkpt lat="45.727379987994844" lon="9.690015240544048"><ele>552.4285714285714</ele><time>2026-03-28T13:10:23Z</time></trkpt><trkpt lat="45.727436826805906" lon="9.689940406166377"><ele>551.7142857142857</ele><time>2026-03-28T13:10:28Z</time></trkpt><trkpt lat="45.72746473270308" lon="9.689854484402437"><ele>551.0</ele><time>2026-03-28T13:10:33Z</time></trkpt><trkpt lat="45.72752194773535" lon="9.689812535432836"><ele>550.9999999999999</ele><time>2026-03-28T13:10:37Z</time></trkpt><trkpt lat="45.727588273395696" lon="9.689747196080758"><ele>551.0</ele><time>2026-03-28T13:10:42Z</time></trkpt><trkpt lat="45.72765414561572" lon="9.689737288992726"><ele>551.0</ele><time>2026-03-28T13:10:47Z</time></trkpt><trkpt lat="45.727690232063225" lon="9.689662648206513"><ele>551.0</ele><time>2026-03-28T13:10:51Z</time></trkpt><trkpt lat="45.72772663345163" lon="9.689586885210552"><ele>551.0</ele><time>2026-03-28T13:10:55Z</time></trkpt><trkpt lat="45.727735035960436" lon="9.689487550249877"><ele>550.9999999999999</ele><time>2026-03-28T13:10:59Z</time></trkpt><trkpt lat="45.727766257685815" lon="9.689402578069501"><ele>551.0</ele><time>2026-03-28T13:11:03Z</time></trkpt><trkpt lat="45.72783456891414" lon="9.689356972009922"><ele>552.7142857142857</ele><time>2026-03-28T13:11:08Z</time></trkpt><trkpt lat="45.727862622311235" lon="9.68926705427075"><ele>554.4285714285714</ele><time>2026-03-28T13:11:15Z</time></trkpt><trkpt lat="45.72790296071281" lon="9.689190880617055"><ele>556.1428571428571</ele><time>2026-03-28T13:11:21Z</time></trkpt><trkpt lat="45.72797549928959" lon="9.689164437785232"><ele>557.8571428571429</ele><time>2026-03-28T13:11:29Z</time></trkpt><trkpt lat="45.728030142466295" lon="9.68911752465181"><ele>559.5714285714286</ele><time>2026-03-28T13:11:34Z</time></trkpt><trkpt lat="45.72808900111865" lon="9.689062580289798"><ele>561.2857142857142</ele><time>2026-03-28T13:11:39Z</time></trkpt><trkpt lat="45.72814900676845" lon="9.689091950685203"><ele>563.0</ele><time>2026-03-28T13:11:45Z</time></trkpt><trkpt lat="45.72818408407351" lon="9.68901097658035"><ele>563.0</ele><time>2026-03-28T13:11:49Z</time></trkpt><trkpt lat="45.728254627121814" lon="9.688961748202129"><ele>563.0</ele><time>2026-03-28T13:11:54Z</time></trkpt><trkpt lat="45.72831466889133" lon="9.68891146222445"><ele>563.0</ele><time>2026-03-28T13:11:58Z</time></trkpt><trkpt lat="45.72837780517777" lon="9.688881678121467"><ele>563.0</ele><time>2026-03-28T13:12:02Z</time></trkpt><trkpt lat="45.728435415495326" lon="9.688842574163704"><ele>563.0</ele><time>2026-03-28T13:12:06Z</time></trkpt><trkpt lat="45.72850484392175" lon="9.68881456955025"><ele>563.0</ele><time>2026-03-28T13:12:11Z</time></trkpt><trkpt lat="45.72858065176396" lon="9.688799406352356"><ele>563.0</ele><time>2026-03-28T13:12:16Z</time></trkpt><trkpt lat="45.72865099588046" lon="9.688753851480325"><ele>561.8571428571429</ele><time>2026-03-28T13:12:21Z</time></trkpt><trkpt lat="45.72871179502937" lon="9.688724752504736"><ele>560.7142857142858</ele><time>2026-03-28T13:12:26Z</time></trkpt><trkpt lat="45.728776289666165" lon="9.688687815882817"><ele>559.5714285714287</ele><time>2026-03-28T13:12:30Z</time></trkpt><trkpt lat="45.72885146879239" lon="9.688653804772851"><ele>558.4285714285714</ele><time>2026-03-28T13:12:35Z</time></trkpt><trkpt lat="45.728915644581654" lon="9.68860401753906"><ele>557.2857142857143</ele><time>2026-03-28T13:12:40Z</time></trkpt><trkpt lat="45.728975388066864" lon="9.688567440302068"><ele>556.1428571428572</ele><time>2026-03-28T13:12:45Z</time></trkpt><trkpt lat="45.72903652106105" lon="9.688520073679783"><ele>555.0</ele><time>2026-03-28T13:12:50Z</time></trkpt><trkpt lat="45.72909598625497" lon="9.68848498709885"><ele>557.8571428571429</ele><time>2026-03-28T13:12:54Z</time></trkpt><trkpt lat="45.72916146385561" lon="9.68844088618081"><ele>560.7142857142858</ele><time>2026-03-28T13:12:59Z</time></trkpt><trkpt lat="45.729206042196786" lon="9.688367111898962"><ele>563.5714285714286</ele><time>2026-03-28T13:13:04Z</time></trkpt><trkpt lat="45.729248319108606" lon="9.68828311687979"><ele>566.4285714285714</ele><time>2026-03-28T13:13:09Z</time></trkpt><trkpt lat="45.72923801186475" lon="9.688173554464017"><ele>569.2857142857142</ele><time>2026-03-28T13:13:15Z</time></trkpt><trkpt lat="45.72928099198534" lon="9.688095498637814"><ele>572.1428571428571</ele><time>2026-03-28T13:13:21Z</time></trkpt><trkpt lat="45.72933902891906" lon="9.688060328715405"><ele>575.0</ele><time>2026-03-28T13:13:28Z</time></trkpt><trkpt lat="45.7294260740481" lon="9.688010417483312"><ele>575.0</ele><time>2026-03-28T13:13:35Z</time></trkpt><trkpt lat="45.729495356158246" lon="9.687994399036814"><ele>575.0</ele><time>2026-03-28T13:13:41Z</time></trkpt><trkpt lat="45.72956925358244" lon="9.688010194840263"><ele>575.0</ele><time>2026-03-28T13:13:49Z</time></trkpt><trkpt lat="45.729644408798386" lon="9.688036789187173"><ele>575.0</ele><time>2026-03-28T13:13:54Z</time></trkpt><trkpt lat="45.72970022904433" lon="9.68798799677183"><ele>575.0</ele><time>2026-03-28T13:14:00Z</time></trkpt><trkpt lat="45.729764403532826" lon="9.687967966707562"><ele>575.0</ele><time>2026-03-28T13:14:05Z</time></trkpt><trkpt lat="45.72982289913949" lon="9.687933522224965"><ele>575.0</ele><time>2026-03-28T13:14:10Z</time></trkpt><trkpt lat="45.72988287738508" lon="9.687874956439385"><ele>575.0</ele><time>2026-03-28T13:14:16Z</time></trkpt><trkpt lat="45.72993472473063" lon="9.687821876023177"><ele>575.0</ele><time>2026-03-28T13:14:22Z</time></trkpt><trkpt lat="45.73001126001616" lon="9.687818294033235"><ele>575.0</ele><time>2026-03-28T13:14:29Z</time></trkpt><trkpt lat="45.73007434440802" lon="9.687781703764905"><ele>575.0</ele><time>2026-03-28T13:14:35Z</time></trkpt><trkpt lat="45.73015067762265" lon="9.687768749236708"><ele>575.0</ele><time>2026-03-28T13:14:40Z</time></trkpt><trkpt lat="45.730198717818276" lon="9.687686181774264"><ele>575.0</ele><time>2026-03-28T13:14:46Z</time></trkpt><trkpt lat="45.73024644086135" lon="9.687624948623778"><ele>575.0</ele><time>2026-03-28T13:14:51Z</time></trkpt><trkpt lat="45.73031775150949" lon="9.687560979887637"><ele>579.1428571428571</ele><time>2026-03-28T13:14:57Z</time></trkpt><trkpt lat="45.73039527440287" lon="9.687543040834507"><ele>583.2857142857142</ele><time>2026-03-28T13:15:03Z</time></trkpt><trkpt lat="45.730429436078005" lon="9.68746056043965"><ele>587.4285714285714</ele><time>2026-03-28T13:15:08Z</time></trkpt><trkpt lat="45.73049955605008" lon="9.687444313054593"><ele>591.5714285714286</ele><time>2026-03-28T13:15:18Z</time></trkpt><trkpt lat="45.73056570478474" lon="9.687409174568195"><ele>595.7142857142858</ele><time>2026-03-28T13:15:23Z</time></trkpt><trkpt lat="45.73062620953249" lon="9.687383186710088"><ele>599.8571428571429</ele><time>2026-03-28T13:15:27Z</time></trkpt><trkpt lat="45.730670339750176" lon="9.687317162913386"><ele>604.0</ele><time>2026-03-28T13:15:34Z</time></trkpt><trkpt lat="45.73072823653482" lon="9.687251123607833"><ele>604.0000000000001</ele><time>2026-03-28T13:15:42Z</time></trkpt><trkpt lat="45.730796187049634" lon="9.687239190106615"><ele>604.0</ele><time>2026-03-28T13:15:49Z</time></trkpt><trkpt lat="45.73085662341916" lon="9.68720146649159"><ele>604.0</ele><time>2026-03-28T13:15:55Z</time></trkpt><trkpt lat="45.730922528413224" lon="9.687186083076252"><ele>604.0</ele><time>2026-03-28T13:16:02Z</time></trkpt><trkpt lat="45.73098576629124" lon="9.687171932170266"><ele>604.0</ele><time>2026-03-28T13:16:10Z</time></trkpt><trkpt lat="45.7310493245505" lon="9.68717043674554"><ele>604.0000000000001</ele><time>2026-03-28T13:16:17Z</time></trkpt><trkpt lat="45.731117684622134" lon="9.687203440845334"><ele>604.0</ele><time>2026-03-28T13:16:24Z</time></trkpt><trkpt lat="45.73118409265284" lon="9.687163739801978"><ele>605.2857142857143</ele><time>2026-03-28T13:16:35Z</time></trkpt><trkpt lat="45.7312554647771" lon="9.687138521090079"><ele>606.5714285714286</ele><time>2026-03-28T13:16:43Z</time></trkpt><trkpt lat="45.73130309208428" lon="9.687066885669395"><ele>607.8571428571429</ele><time>2026-03-28T13:16:48Z</time></trkpt><trkpt lat="45.731371623993795" lon="9.687041161522247"><ele>609.1428571428571</ele><time>2026-03-28T13:16:57Z</time></trkpt><trkpt lat="45.73141566916678" lon="9.686976548807504"><ele>610.4285714285714</ele><time>2026-03-28T13:17:04Z</time></trkpt><trkpt lat="45.731483550030084" lon="9.68695347274918"><ele>611.7142857142858</ele><time>2026-03-28T13:17:15Z</time></trkpt><trkpt lat="45.7315508397542" lon="9.686939602683436"><ele>613.0</ele><time>2026-03-28T13:17:23Z</time></trkpt><trkpt lat="45.731614111532906" lon="9.686912277882396"><ele>615.2857142857143</ele><time>2026-03-28T13:17:31Z</time></trkpt><trkpt lat="45.731654575892776" lon="9.68683962489404"><ele>617.5714285714286</ele><time>2026-03-28T13:17:42Z</time></trkpt><trkpt lat="45.731704062806315" lon="9.686774685095784"><ele>619.8571428571429</ele><time>2026-03-28T13:17:52Z</time></trkpt><trkpt lat="45.731775820703845" lon="9.686760216600257"><ele>622.1428571428571</ele><time>2026-03-28T13:17:59Z</time></trkpt><trkpt lat="45.731837272558565" lon="9.68670260523962"><ele>624.4285714285714</ele><time>2026-03-28T13:18:07Z</time></trkpt><trkpt lat="45.73190419159558" lon="9.686689704249822"><ele>626.7142857142857</ele><time>2026-03-28T13:18:13Z</time></trkpt><trkpt lat="45.7319677780276" lon="9.686671683470113"><ele>629.0</ele><time>2026-03-28T13:18:20Z</time></trkpt><trkpt lat="45.73204438117994" lon="9.686639646971756"><ele>631.5714285714286</ele><time>2026-03-28T13:18:35Z</time></trkpt><trkpt lat="45.73211132293121" lon="9.686615420575851"><ele>634.1428571428572</ele><time>2026-03-28T13:18:43Z</time></trkpt><trkpt lat="45.732183079786196" lon="9.686607666175997"><ele>636.7142857142858</ele><time>2026-03-28T13:18:52Z</time></trkpt><trkpt lat="45.732250480681316" lon="9.686623671558522"><ele>639.2857142857142</ele><time>2026-03-28T13:18:59Z</time></trkpt><trkpt lat="45.73232813995847" lon="9.686627860779351"><ele>641.8571428571429</ele><time>2026-03-28T13:19:10Z</time></trkpt><trkpt lat="45.73239654989934" lon="9.686638736748971"><ele>644.4285714285714</ele><time>2026-03-28T13:19:14Z</time></trkpt><trkpt lat="45.732471732552725" lon="9.686646703522984"><ele>647.0</ele><time>2026-03-28T13:19:19Z</time></trkpt><trkpt lat="45.732539514511494" lon="9.686638861774739"><ele>647.0</ele><time>2026-03-28T13:19:24Z</time></trkpt><trkpt lat="45.73262435229909" lon="9.68664922160157"><ele>647.0</ele><time>2026-03-28T13:19:30Z</time></trkpt><trkpt lat="45.73269046251107" lon="9.686658188230089"><ele>647.0</ele><time>2026-03-28T13:19:36Z</time></trkpt><trkpt lat="45.732765555885756" lon="9.686663233237564"><ele>647.0</ele><time>2026-03-28T13:19:41Z</time></trkpt><trkpt lat="45.73284186455309" lon="9.686697580672128"><ele>647.0</ele><time>2026-03-28T13:19:46Z</time></trkpt><trkpt lat="45.7329084366987" lon="9.686695481573457"><ele>647.0</ele><time>2026-03-28T13:19:50Z</time></trkpt><trkpt lat="45.732983813537544" lon="9.686699150008025"><ele>647.0</ele><time>2026-03-28T13:19:55Z</time></trkpt><trkpt lat="45.73304720114323" lon="9.686715696901778"><ele>647.5</ele><time>2026-03-28T13:19:59Z</time></trkpt><trkpt lat="45.73312059474187" lon="9.686747096571693"><ele>648.0</ele><time>2026-03-28T13:20:04Z</time></trkpt><trkpt lat="45.73319599603066" lon="9.686754450762061"><ele>648.5</ele><time>2026-03-28T13:20:09Z</time></trkpt><trkpt lat="45.73327287960037" lon="9.686780474026122"><ele>649.0</ele><time>2026-03-28T13:20:14Z</time></trkpt><trkpt lat="45.733349052191336" lon="9.686792381352772"><ele>649.5</ele><time>2026-03-28T13:20:19Z</time></trkpt><trkpt lat="45.73341360554622" lon="9.686826860677202"><ele>650.0</ele><time>2026-03-28T13:20:24Z</time></trkpt><trkpt lat="45.73348420953209" lon="9.686857455806276"><ele>650.0</ele><time>2026-03-28T13:20:29Z</time></trkpt><trkpt lat="45.73355228509286" lon="9.686879721128223"><ele>650.0</ele><time>2026-03-28T13:20:34Z</time></trkpt><trkpt lat="45.733614710689295" lon="9.686911773059075"><ele>650.0</ele><time>2026-03-28T13:20:39Z</time></trkpt><trkpt lat="45.733684728370996" lon="9.686915195693368"><ele>650.0</ele><time>2026-03-28T13:20:44Z</time></trkpt><trkpt lat="45.73375631609113" lon="9.686939996567501"><ele>650.0</ele><time>2026-03-28T13:20:50Z</time></trkpt><trkpt lat="45.73381147663911" lon="9.686984244017788"><ele>650.0</ele><time>2026-03-28T13:20:55Z</time></trkpt><trkpt lat="45.733856981466126" lon="9.687048498985463"><ele>650.0</ele><time>2026-03-28T13:21:00Z</time></trkpt><trkpt lat="45.73383721247113" lon="9.687153089375899"><ele>651.7142857142857</ele><time>2026-03-28T13:21:05Z</time></trkpt><trkpt lat="45.733821405079794" lon="9.687246107260876"><ele>653.4285714285714</ele><time>2026-03-28T13:21:11Z</time></trkpt><trkpt lat="45.73386809156997" lon="9.68732148285428"><ele>655.1428571428571</ele><time>2026-03-28T13:21:15Z</time></trkpt><trkpt lat="45.733861835221326" lon="9.687426995658916"><ele>656.8571428571429</ele><time>2026-03-28T13:21:22Z</time></trkpt><trkpt lat="45.733891058434224" lon="9.68751051547096"><ele>658.5714285714286</ele><time>2026-03-28T13:21:28Z</time></trkpt><trkpt lat="45.733943254949295" lon="9.687561195590021"><ele>660.2857142857143</ele><time>2026-03-28T13:21:34Z</time></trkpt><trkpt lat="45.73398205633696" lon="9.687645996470673"><ele>662.0</ele><time>2026-03-28T13:21:40Z</time></trkpt><trkpt lat="45.734021860727864" lon="9.687716182296924"><ele>662.8571428571429</ele><time>2026-03-28T13:21:45Z</time></trkpt><trkpt lat="45.73407739868985" lon="9.687768360665466"><ele>663.7142857142857</ele><time>2026-03-28T13:21:53Z</time></trkpt><trkpt lat="45.734128603953835" lon="9.687835840454827"><ele>664.5714285714286</ele><time>2026-03-28T13:21:58Z</time></trkpt><trkpt lat="45.73417323447317" lon="9.687905306900376"><ele>665.4285714285714</ele><time>2026-03-28T13:22:06Z</time></trkpt><trkpt lat="45.73423896522527" lon="9.687965469257279"><ele>666.2857142857143</ele><time>2026-03-28T13:22:10Z</time></trkpt><trkpt lat="45.734301113613995" lon="9.688014855704424"><ele>667.1428571428571</ele><time>2026-03-28T13:22:15Z</time></trkpt><trkpt lat="45.73436165979547" lon="9.688058126497522"><ele>668.0</ele><time>2026-03-28T13:22:22Z</time></trkpt><trkpt lat="45.734417050381964" lon="9.688106150127991"><ele>668.2857142857142</ele><time>2026-03-28T13:22:27Z</time></trkpt><trkpt lat="45.734464732509174" lon="9.68817337205878"><ele>668.5714285714286</ele><time>2026-03-28T13:22:33Z</time></trkpt><trkpt lat="45.73452265465324" lon="9.688226882877986"><ele>668.8571428571429</ele><time>2026-03-28T13:22:37Z</time></trkpt><trkpt lat="45.73456643950545" lon="9.688307028420654"><ele>669.1428571428571</ele><time>2026-03-28T13:22:42Z</time></trkpt><trkpt lat="45.73463792407784" lon="9.688350057177558"><ele>669.4285714285714</ele><time>2026-03-28T13:22:48Z</time></trkpt><trkpt lat="45.73469702533547" lon="9.688418258418082"><ele>669.7142857142857</ele><time>2026-03-28T13:22:52Z</time></trkpt><trkpt lat="45.734741003347985" lon="9.688488258059145"><ele>670.0</ele><time>2026-03-28T13:22:56Z</time></trkpt><trkpt lat="45.73480096574995" lon="9.688552816715884"><ele>669.9999999999999</ele><time>2026-03-28T13:23:01Z</time></trkpt><trkpt lat="45.73484883341274" lon="9.688611473284295"><ele>670.0</ele><time>2026-03-28T13:23:05Z</time></trkpt><trkpt lat="45.73490284656392" lon="9.688686667696691"><ele>670.0</ele><time>2026-03-28T13:23:10Z</time></trkpt><trkpt lat="45.73497812517486" lon="9.688690574053943"><ele>670.0</ele><time>2026-03-28T13:23:16Z</time></trkpt><trkpt lat="45.735046488460874" lon="9.68875047131204"><ele>670.0</ele><time>2026-03-28T13:23:23Z</time></trkpt><trkpt lat="45.73511428860801" lon="9.68877061337362"><ele>669.9999999999999</ele><time>2026-03-28T13:23:28Z</time></trkpt><trkpt lat="45.73517935103894" lon="9.68875735443484"><ele>670.0</ele><time>2026-03-28T13:23:32Z</time></trkpt><trkpt lat="45.7352452566688" lon="9.688760006249462"><ele>670.7142857142857</ele><time>2026-03-28T13:23:36Z</time></trkpt><trkpt lat="45.735320983789634" lon="9.688760786686792"><ele>671.4285714285714</ele><time>2026-03-28T13:23:41Z</time></trkpt><trkpt lat="45.73538868219318" lon="9.688762094440133"><ele>672.1428571428571</ele><time>2026-03-28T13:23:46Z</time></trkpt><trkpt lat="45.73545472233319" lon="9.688778009694246"><ele>672.8571428571429</ele><time>2026-03-28T13:23:52Z</time></trkpt><trkpt lat="45.73551325725258" lon="9.688812619219897"><ele>673.5714285714286</ele><time>2026-03-28T13:23:57Z</time></trkpt><trkpt lat="45.735582163874454" lon="9.688846312567193"><ele>674.2857142857142</ele><time>2026-03-28T13:24:03Z</time></trkpt><trkpt lat="45.735643519872724" lon="9.688898203620909"><ele>675.0</ele><time>2026-03-28T13:24:08Z</time></trkpt><trkpt lat="45.73571272811988" lon="9.688914470256496"><ele>675.0</ele><time>2026-03-28T13:24:13Z</time></trkpt><trkpt lat="45.735781082000145" lon="9.688921100660183"><ele>675.0</ele><time>2026-03-28T13:24:18Z</time></trkpt><trkpt lat="45.73585066765279" lon="9.688962620902034"><ele>675.0</ele><time>2026-03-28T13:24:23Z</time></trkpt><trkpt lat="45.735910016185514" lon="9.689016771408554"><ele>675.0</ele><time>2026-03-28T13:24:28Z</time></trkpt><trkpt lat="45.7359841995664" lon="9.6890366279173"><ele>675.0</ele><time>2026-03-28T13:24:34Z</time></trkpt><trkpt lat="45.73605846588223" lon="9.68904353248943"><ele>675.0</ele><time>2026-03-28T13:24:39Z</time></trkpt><trkpt lat="45.73612830402048" lon="9.689069614738568"><ele>675.0</ele><time>2026-03-28T13:24:44Z</time></trkpt><trkpt lat="45.736196791607156" lon="9.689087009694012"><ele>674.8571428571429</ele><time>2026-03-28T13:24:48Z</time></trkpt><trkpt lat="45.73626930875943" lon="9.68907225706037"><ele>674.7142857142858</ele><time>2026-03-28T13:24:53Z</time></trkpt><trkpt lat="45.73633849717777" lon="9.689090849476639"><ele>674.5714285714287</ele><time>2026-03-28T13:24:58Z</time></trkpt><trkpt lat="45.73641190740745" lon="9.689103062126929"><ele>674.4285714285714</ele><time>2026-03-28T13:25:03Z</time></trkpt><trkpt lat="45.73648420500335" lon="9.689092249266956"><ele>674.2857142857143</ele><time>2026-03-28T13:25:08Z</time></trkpt><trkpt lat="45.736556878156335" lon="9.689112574303632"><ele>674.1428571428572</ele><time>2026-03-28T13:25:13Z</time></trkpt><trkpt lat="45.73662525586104" lon="9.689132684638752"><ele>674.0</ele><time>2026-03-28T13:25:18Z</time></trkpt><trkpt lat="45.73669079522937" lon="9.689131399949392"><ele>674.0000000000001</ele><time>2026-03-28T13:25:23Z</time></trkpt><trkpt lat="45.73676105472205" lon="9.68912986795991"><ele>674.0</ele><time>2026-03-28T13:25:28Z</time></trkpt><trkpt lat="45.73683172838247" lon="9.689158614988147"><ele>674.0</ele><time>2026-03-28T13:25:33Z</time></trkpt><trkpt lat="45.73689600069816" lon="9.689163620898137"><ele>674.0</ele><time>2026-03-28T13:25:37Z</time></trkpt><trkpt lat="45.736970560438344" lon="9.68917022254588"><ele>674.0</ele><time>2026-03-28T13:25:42Z</time></trkpt><trkpt lat="45.737049098209084" lon="9.689146858070087"><ele>674.0000000000001</ele><time>2026-03-28T13:25:47Z</time></trkpt><trkpt lat="45.73710896268988" lon="9.689095666611511"><ele>674.0</ele><time>2026-03-28T13:25:51Z</time></trkpt><trkpt lat="45.737177562374626" lon="9.689042185260996"><ele>675.8333333333333</ele><time>2026-03-28T13:25:56Z</time></trkpt><trkpt lat="45.737238488785344" lon="9.689017333884438"><ele>677.6666666666666</ele><time>2026-03-28T13:26:00Z</time></trkpt><trkpt lat="45.7372922182411" lon="9.68895678904139"><ele>679.5</ele><time>2026-03-28T13:26:05Z</time></trkpt><trkpt lat="45.73734631754045" lon="9.68890659029091"><ele>681.3333333333334</ele><time>2026-03-28T13:26:20Z</time></trkpt><trkpt lat="45.737424166583914" lon="9.688885755635475"><ele>683.1666666666667</ele><time>2026-03-28T13:26:26Z</time></trkpt><trkpt lat="45.73750600120361" lon="9.688856117830248"><ele>685.0</ele><time>2026-03-28T13:26:33Z</time></trkpt><trkpt lat="45.73759247370802" lon="9.688798912384373"><ele>685.0</ele><time>2026-03-28T13:26:40Z</time></trkpt><trkpt lat="45.73765685896323" lon="9.6887640537579"><ele>685.0</ele><time>2026-03-28T13:26:44Z</time></trkpt><trkpt lat="45.737720950772726" lon="9.688738256519441"><ele>685.0</ele><time>2026-03-28T13:26:49Z</time></trkpt><trkpt lat="45.737774118681926" lon="9.688685387704407"><ele>685.0</ele><time>2026-03-28T13:26:54Z</time></trkpt><trkpt lat="45.73783666280808" lon="9.6886482128698"><ele>685.0</ele><time>2026-03-28T13:26:59Z</time></trkpt><trkpt lat="45.7379103946486" lon="9.68862743482367"><ele>685.0</ele><time>2026-03-28T13:27:05Z</time></trkpt><trkpt lat="45.73797839084154" lon="9.688607581201847"><ele>685.0</ele><time>2026-03-28T13:27:11Z</time></trkpt><trkpt lat="45.738061323884104" lon="9.688590514480344"><ele>683.5714285714286</ele><time>2026-03-28T13:27:17Z</time></trkpt><trkpt lat="45.738121407215075" lon="9.688553560673876"><ele>682.1428571428572</ele><time>2026-03-28T13:27:21Z</time></trkpt><trkpt lat="45.738183560557424" lon="9.688520276625395"><ele>680.7142857142858</ele><time>2026-03-28T13:27:25Z</time></trkpt><trkpt lat="45.73825624820825" lon="9.68851116969812"><ele>679.2857142857142</ele><time>2026-03-28T13:27:29Z</time></trkpt><trkpt lat="45.73832406558375" lon="9.688495521905745"><ele>677.8571428571429</ele><time>2026-03-28T13:27:33Z</time></trkpt><trkpt lat="45.73838879409201" lon="9.688501910755578"><ele>676.4285714285714</ele><time>2026-03-28T13:27:37Z</time></trkpt><trkpt lat="45.738459473212586" lon="9.688516033988785"><ele>675.0</ele><time>2026-03-28T13:27:42Z</time></trkpt><trkpt lat="45.7385250123064" lon="9.68851406214835"><ele>675.1428571428571</ele><time>2026-03-28T13:27:47Z</time></trkpt><trkpt lat="45.73859373753983" lon="9.688507634438611"><ele>675.2857142857143</ele><time>2026-03-28T13:27:52Z</time></trkpt><trkpt lat="45.73866677337491" lon="9.688517974384304"><ele>675.4285714285714</ele><time>2026-03-28T13:27:57Z</time></trkpt><trkpt lat="45.73873758173516" lon="9.688506050897608"><ele>675.5714285714286</ele><time>2026-03-28T13:28:02Z</time></trkpt><trkpt lat="45.73880918317828" lon="9.688523144111691"><ele>675.7142857142857</ele><time>2026-03-28T13:28:07Z</time></trkpt><trkpt lat="45.738878356958274" lon="9.688505450940204"><ele>675.8571428571429</ele><time>2026-03-28T13:28:12Z</time></trkpt><trkpt lat="45.73894450998654" lon="9.688484655849393"><ele>676.0</ele><time>2026-03-28T13:28:17Z</time></trkpt><trkpt lat="45.73901400748684" lon="9.68844980323843"><ele>676.0</ele><time>2026-03-28T13:28:22Z</time></trkpt><trkpt lat="45.73908951769283" lon="9.688439397822172"><ele>676.0</ele><time>2026-03-28T13:28:29Z</time></trkpt><trkpt lat="45.7391587296681" lon="9.688398141805076"><ele>676.0</ele><time>2026-03-28T13:28:36Z</time></trkpt><trkpt lat="45.739235345797695" lon="9.688371207839898"><ele>676.0</ele><time>2026-03-28T13:28:42Z</time></trkpt><trkpt lat="45.739302834575696" lon="9.688399543391652"><ele>676.0</ele><time>2026-03-28T13:28:48Z</time></trkpt><trkpt lat="45.739373251663956" lon="9.6884124266395"><ele>676.0</ele><time>2026-03-28T13:28:54Z</time></trkpt><trkpt lat="45.739457255092255" lon="9.6884278839053"><ele>676.8571428571429</ele><time>2026-03-28T13:29:01Z</time></trkpt><trkpt lat="45.7395071846763" lon="9.688497296438745"><ele>677.7142857142857</ele><time>2026-03-28T13:29:07Z</time></trkpt><trkpt lat="45.73957977000672" lon="9.688505647158618"><ele>678.5714285714286</ele><time>2026-03-28T13:29:11Z</time></trkpt><trkpt lat="45.73964574419703" lon="9.688531924505082"><ele>679.4285714285714</ele><time>2026-03-28T13:29:15Z</time></trkpt><trkpt lat="45.739708826437216" lon="9.688518506728325"><ele>680.2857142857143</ele><time>2026-03-28T13:29:19Z</time></trkpt><trkpt lat="45.73978354824627" lon="9.688518561418581"><ele>681.1428571428571</ele><time>2026-03-28T13:29:24Z</time></trkpt><trkpt lat="45.73984698760486" lon="9.688491059041239"><ele>682.0</ele><time>2026-03-28T13:29:28Z</time></trkpt><trkpt lat="45.73992489539654" lon="9.688485894834779"><ele>682.0</ele><time>2026-03-28T13:29:33Z</time></trkpt><trkpt lat="45.74000019510813" lon="9.688481612380151"><ele>682.0</ele><time>2026-03-28T13:29:38Z</time></trkpt><trkpt lat="45.740064736415555" lon="9.688447413586578"><ele>682.0</ele><time>2026-03-28T13:29:43Z</time></trkpt><trkpt lat="45.740134731658955" lon="9.688463790939533"><ele>682.0</ele><time>2026-03-28T13:29:48Z</time></trkpt><trkpt lat="45.7402112295203" lon="9.688472177566284"><ele>682.0</ele><time>2026-03-28T13:29:54Z</time></trkpt><trkpt lat="45.74027874576186" lon="9.688437974406556"><ele>682.0</ele><time>2026-03-28T13:30:02Z</time></trkpt><trkpt lat="45.74035371158807" lon="9.68843272378155"><ele>682.0</ele><time>2026-03-28T13:30:07Z</time></trkpt><trkpt lat="45.740427691989645" lon="9.688437187812603"><ele>680.8571428571429</ele><time>2026-03-28T13:30:12Z</time></trkpt><trkpt lat="45.74049037208096" lon="9.688407359849046"><ele>679.7142857142858</ele><time>2026-03-28T13:30:16Z</time></trkpt><trkpt lat="45.740553161707" lon="9.688400864200359"><ele>678.5714285714287</ele><time>2026-03-28T13:30:20Z</time></trkpt><trkpt lat="45.740615589368446" lon="9.688355759324496"><ele>677.4285714285714</ele><time>2026-03-28T13:30:25Z</time></trkpt><trkpt lat="45.740677933801905" lon="9.688334820721513"><ele>676.2857142857143</ele><time>2026-03-28T13:30:29Z</time></trkpt><trkpt lat="45.74073525214933" lon="9.688284914237839"><ele>675.1428571428572</ele><time>2026-03-28T13:30:33Z</time></trkpt><trkpt lat="45.740807494844994" lon="9.688244752763147"><ele>674.0</ele><time>2026-03-28T13:30:38Z</time></trkpt><trkpt lat="45.7408720642531" lon="9.688201344707462"><ele>674.0000000000001</ele><time>2026-03-28T13:30:43Z</time></trkpt><trkpt lat="45.740942517909794" lon="9.68816362481427"><ele>674.0</ele><time>2026-03-28T13:30:48Z</time></trkpt><trkpt lat="45.74100938035712" lon="9.688125547018984"><ele>674.0</ele><time>2026-03-28T13:30:53Z</time></trkpt><trkpt lat="45.74107663032582" lon="9.6880824723575"><ele>674.0</ele><time>2026-03-28T13:30:58Z</time></trkpt><trkpt lat="45.741132521243586" lon="9.688003923873705"><ele>674.0</ele><time>2026-03-28T13:31:03Z</time></trkpt><trkpt lat="45.74119873234912" lon="9.687994700381834"><ele>674.0000000000001</ele><time>2026-03-28T13:31:07Z</time></trkpt><trkpt lat="45.74126359352738" lon="9.687964059398984"><ele>674.0</ele><time>2026-03-28T13:31:13Z</time></trkpt><trkpt lat="45.74132568461288" lon="9.687921321887167"><ele>675.2857142857143</ele><time>2026-03-28T13:31:18Z</time></trkpt><trkpt lat="45.741377470990315" lon="9.687847644251914"><ele>676.5714285714286</ele><time>2026-03-28T13:31:23Z</time></trkpt><trkpt lat="45.74143501362651" lon="9.68778494426815"><ele>677.8571428571429</ele><time>2026-03-28T13:31:29Z</time></trkpt><trkpt lat="45.7414949333688" lon="9.687753912168189"><ele>679.1428571428571</ele><time>2026-03-28T13:31:34Z</time></trkpt><trkpt lat="45.74156805060587" lon="9.687724524443537"><ele>680.4285714285714</ele><time>2026-03-28T13:31:39Z</time></trkpt><trkpt lat="45.74163001271089" lon="9.68768895102507"><ele>681.7142857142858</ele><time>2026-03-28T13:31:43.999Z</time></trkpt><trkpt lat="45.74168078788365" lon="9.687617947766281"><ele>683.0</ele><time>2026-03-28T13:31:49Z</time></trkpt><trkpt lat="45.74175348895668" lon="9.68758761375855"><ele>683.0</ele><time>2026-03-28T13:31:54Z</time></trkpt><trkpt lat="45.74182144049795" lon="9.687554695143"><ele>683.0</ele><time>2026-03-28T13:31:59Z</time></trkpt><trkpt lat="45.74188403769104" lon="9.687481232242343"><ele>683.0</ele><time>2026-03-28T13:32:04Z</time></trkpt><trkpt lat="45.7419456830284" lon="9.687431562417164"><ele>683.0</ele><time>2026-03-28T13:32:09Z</time></trkpt><trkpt lat="45.74200514019103" lon="9.687377648066189"><ele>683.0</ele><time>2026-03-28T13:32:14Z</time></trkpt><trkpt lat="45.74207649004642" lon="9.687350176935128"><ele>683.0</ele><time>2026-03-28T13:32:19Z</time></trkpt><trkpt lat="45.74212659383262" lon="9.687290959696522"><ele>683.0</ele><time>2026-03-28T13:32:24Z</time></trkpt><trkpt lat="45.7421901367648" lon="9.687240667934425"><ele>683.2857142857143</ele><time>2026-03-28T13:32:30Z</time></trkpt><trkpt lat="45.74222317494453" lon="9.687153550684904"><ele>683.5714285714286</ele><time>2026-03-28T13:32:35Z</time></trkpt><trkpt lat="45.742283800355544" lon="9.68712076659087"><ele>683.8571428571429</ele><time>2026-03-28T13:32:40Z</time></trkpt><trkpt lat="45.74234245282313" lon="9.68707418979665"><ele>684.1428571428571</ele><time>2026-03-28T13:32:46Z</time></trkpt><trkpt lat="45.74241095727357" lon="9.687024458408015"><ele>684.4285714285714</ele><time>2026-03-28T13:32:55Z</time></trkpt><trkpt lat="45.74247240528829" lon="9.686975018661395"><ele>684.7142857142857</ele><time>2026-03-28T13:32:59Z</time></trkpt><trkpt lat="45.74253545136925" lon="9.686938009813426"><ele>685.0</ele><time>2026-03-28T13:33:03Z</time></trkpt><trkpt lat="45.742595942803696" lon="9.686889258253279"><ele>685.0</ele><time>2026-03-28T13:33:08Z</time></trkpt><trkpt lat="45.742670313504455" lon="9.686858001755924"><ele>685.0</ele><time>2026-03-28T13:33:13Z</time></trkpt><trkpt lat="45.74272901366069" lon="9.686818089624987"><ele>685.0</ele><time>2026-03-28T13:33:18Z</time></trkpt><trkpt lat="45.74278194240588" lon="9.686748584946368"><ele>685.0</ele><time>2026-03-28T13:33:23Z</time></trkpt><trkpt lat="45.74284355998962" lon="9.686721700199978"><ele>685.0</ele><time>2026-03-28T13:33:27Z</time></trkpt><trkpt lat="45.742906294943495" lon="9.686680248135128"><ele>685.0</ele><time>2026-03-28T13:33:32Z</time></trkpt><trkpt lat="45.74295899347054" lon="9.68661686331122"><ele>685.0</ele><time>2026-03-28T13:33:37Z</time></trkpt><trkpt lat="45.74301966426055" lon="9.68655114509906"><ele>683.7142857142857</ele><time>2026-03-28T13:33:42Z</time></trkpt><trkpt lat="45.74306559538489" lon="9.686483733468041"><ele>682.4285714285714</ele><time>2026-03-28T13:33:45.999Z</time></trkpt><trkpt lat="45.74310929367298" lon="9.686408767656024"><ele>681.1428571428571</ele><time>2026-03-28T13:33:51Z</time></trkpt><trkpt lat="45.743172449062186" lon="9.686387665310216"><ele>679.8571428571429</ele><time>2026-03-28T13:33:55Z</time></trkpt><trkpt lat="45.74323044306611" lon="9.686323169912162"><ele>678.5714285714286</ele><time>2026-03-28T13:34:00Z</time></trkpt><trkpt lat="45.743288316896354" lon="9.68626922046595"><ele>677.2857142857143</ele><time>2026-03-28T13:34:05Z</time></trkpt><trkpt lat="45.74335625309256" lon="9.68623091969691"><ele>676.0</ele><time>2026-03-28T13:34:10Z</time></trkpt><trkpt lat="45.74342347939113" lon="9.68619036198211"><ele>676.0</ele><time>2026-03-28T13:34:15Z</time></trkpt><trkpt lat="45.7434885587766" lon="9.686154782179848"><ele>676.0</ele><time>2026-03-28T13:34:19Z</time></trkpt><trkpt lat="45.74355050660145" lon="9.68611315392315"><ele>676.0</ele><time>2026-03-28T13:34:24Z</time></trkpt><trkpt lat="45.74364723529579" lon="9.686088544843944"><ele>676.0</ele><time>2026-03-28T13:34:33Z</time></trkpt><trkpt lat="45.74371166683153" lon="9.686040265303067"><ele>676.0</ele><time>2026-03-28T13:34:41Z</time></trkpt><trkpt lat="45.74377468950718" lon="9.686069565996393"><ele>676.0</ele><time>2026-03-28T13:34:46Z</time></trkpt><trkpt lat="45.74382473936729" lon="9.686148564491244"><ele>677.0</ele><time>2026-03-28T13:34:52Z</time></trkpt><trkpt lat="45.7438870014373" lon="9.686176469768963"><ele>678.0</ele><time>2026-03-28T13:34:57Z</time></trkpt><trkpt lat="45.743954915033534" lon="9.686188212496067"><ele>679.0</ele><time>2026-03-28T13:35:02Z</time></trkpt><trkpt lat="45.74401505920069" lon="9.686116181247414"><ele>680.0</ele><time>2026-03-28T13:35:07Z</time></trkpt><trkpt lat="45.744042716111046" lon="9.686032433176354"><ele>681.0</ele><time>2026-03-28T13:35:10Z</time></trkpt><trkpt lat="45.74405967743546" lon="9.685921253170832"><ele>682.0</ele><time>2026-03-28T13:35:15Z</time></trkpt><trkpt lat="45.74405687970954" lon="9.685814921279114"><ele>683.0</ele><time>2026-03-28T13:35:24Z</time></trkpt><trkpt lat="45.74413339119218" lon="9.685729944497721"><ele>683.0</ele><time>2026-03-28T13:35:30Z</time></trkpt><trkpt lat="45.74420099652477" lon="9.685778808925003"><ele>683.0</ele><time>2026-03-28T13:35:38Z</time></trkpt><trkpt lat="45.74425636613301" lon="9.685832570581864"><ele>683.0</ele><time>2026-03-28T13:35:44Z</time></trkpt><trkpt lat="45.74431354080019" lon="9.685888505989032"><ele>683.0</ele><time>2026-03-28T13:35:49.999Z</time></trkpt><trkpt lat="45.744376987745305" lon="9.68590291706502"><ele>683.0</ele><time>2026-03-28T13:35:53.999Z</time></trkpt><trkpt lat="45.744403556856376" lon="9.685985840148717"><ele>683.0</ele><time>2026-03-28T13:36:00Z</time></trkpt><trkpt lat="45.74456896006054" lon="9.686154913266567"><ele>685.2</ele><time>2026-03-28T13:36:21Z</time></trkpt><trkpt lat="45.74467090844328" lon="9.68618431136103"><ele>687.4</ele><time>2026-03-28T13:36:37Z</time></trkpt><trkpt lat="45.744724060607105" lon="9.68624187268998"><ele>689.6</ele><time>2026-03-28T13:36:43Z</time></trkpt><trkpt lat="45.744791747656585" lon="9.686284788048928"><ele>691.8000000000001</ele><time>2026-03-28T13:36:49Z</time></trkpt><trkpt lat="45.744855672503355" lon="9.686287575503034"><ele>694.0</ele><time>2026-03-28T13:36:54Z</time></trkpt><trkpt lat="45.74241095727357" lon="9.687024458408015"><ele>692.7142857142858</ele><time>2026-03-28T13:32:55Z</time></trkpt><trkpt lat="45.74247240528829" lon="9.686975018661395"><ele>691.4285714285713</ele><time>2026-03-28T13:32:59Z</time></trkpt><trkpt lat="45.74253545136925" lon="9.686938009813426"><ele>690.1428571428571</ele><time>2026-03-28T13:33:03Z</time></trkpt><trkpt lat="45.742595942803696" lon="9.686889258253279"><ele>688.8571428571429</ele><time>2026-03-28T13:33:08Z</time></trkpt><trkpt lat="45.742670313504455" lon="9.686858001755924"><ele>687.5714285714287</ele><time>2026-03-28T13:33:13Z</time></trkpt><trkpt lat="45.74272901366069" lon="9.686818089624987"><ele>686.2857142857142</ele><time>2026-03-28T13:33:18Z</time></trkpt><trkpt lat="45.74278194240588" lon="9.686748584946368"><ele>685.0</ele><time>2026-03-28T13:33:23Z</time></trkpt><trkpt lat="45.74284355998962" lon="9.686721700199978"><ele>683.7142857142857</ele><time>2026-03-28T13:33:27Z</time></trkpt><trkpt lat="45.742906294943495" lon="9.686680248135128"><ele>682.4285714285714</ele><time>2026-03-28T13:33:32Z</time></trkpt><trkpt lat="45.74295899347054" lon="9.68661686331122"><ele>681.1428571428571</ele><time>2026-03-28T13:33:37Z</time></trkpt><trkpt lat="45.74301966426055" lon="9.68655114509906"><ele>679.8571428571429</ele><time>2026-03-28T13:33:42Z</time></trkpt><trkpt lat="45.74306559538489" lon="9.686483733468041"><ele>678.5714285714286</ele><time>2026-03-28T13:33:45.999Z</time></trkpt><trkpt lat="45.74310929367298" lon="9.686408767656024"><ele>677.2857142857143</ele><time>2026-03-28T13:33:51Z</time></trkpt><trkpt lat="45.743172449062186" lon="9.686387665310216"><ele>676.0</ele><time>2026-03-28T13:33:55Z</time></trkpt><trkpt lat="45.74323044306611" lon="9.686323169912162"><ele>676.0</ele><time>2026-03-28T13:34:00Z</time></trkpt><trkpt lat="45.743288316896354" lon="9.68626922046595"><ele>676.0</ele><time>2026-03-28T13:34:05Z</time></trkpt><trkpt lat="45.74335625309256" lon="9.68623091969691"><ele>676.0</ele><time>2026-03-28T13:34:10Z</time></trkpt><trkpt lat="45.74342347939113" lon="9.68619036198211"><ele>676.0</ele><time>2026-03-28T13:34:15Z</time></trkpt><trkpt lat="45.7434885587766" lon="9.686154782179848"><ele>676.0</ele><time>2026-03-28T13:34:19Z</time></trkpt><trkpt lat="45.74355050660145" lon="9.68611315392315"><ele>676.0</ele><time>2026-03-28T13:34:24Z</time></trkpt><trkpt lat="45.74364723529579" lon="9.686088544843944"><ele>677.0</ele><time>2026-03-28T13:34:33Z</time></trkpt><trkpt lat="45.74371166683153" lon="9.686040265303067"><ele>678.0</ele><time>2026-03-28T13:34:41Z</time></trkpt><trkpt lat="45.74377468950718" lon="9.686069565996393"><ele>679.0</ele><time>2026-03-28T13:34:46Z</time></trkpt><trkpt lat="45.74382473936729" lon="9.686148564491244"><ele>680.0</ele><time>2026-03-28T13:34:52Z</time></trkpt><trkpt lat="45.7438870014373" lon="9.686176469768963"><ele>681.0</ele><time>2026-03-28T13:34:57Z</time></trkpt><trkpt lat="45.743954915033534" lon="9.686188212496067"><ele>682.0</ele><time>2026-03-28T13:35:02Z</time></trkpt><trkpt lat="45.74401505920069" lon="9.686116181247414"><ele>683.0</ele><time>2026-03-28T13:35:07Z</time></trkpt><trkpt lat="45.744042716111046" lon="9.686032433176354"><ele>683.0</ele><time>2026-03-28T13:35:10Z</time></trkpt><trkpt lat="45.74405967743546" lon="9.685921253170832"><ele>683.0</ele><time>2026-03-28T13:35:15Z</time></trkpt><trkpt lat="45.74405687970954" lon="9.685814921279114"><ele>683.0</ele><time>2026-03-28T13:35:24Z</time></trkpt><trkpt lat="45.74413339119218" lon="9.685729944497721"><ele>683.0</ele><time>2026-03-28T13:35:30Z</time></trkpt><trkpt lat="45.74420099652477" lon="9.685778808925003"><ele>683.0</ele><time>2026-03-28T13:35:38Z</time></trkpt><trkpt lat="45.74425636613301" lon="9.685832570581864"><ele>683.0</ele><time>2026-03-28T13:35:44Z</time></trkpt><trkpt lat="45.74431354080019" lon="9.685888505989032"><ele>683.0</ele><time>2026-03-28T13:35:49.999Z</time></trkpt><trkpt lat="45.744376987745305" lon="9.68590291706502"><ele>683.0</ele><time>2026-03-28T13:35:53.999Z</time></trkpt><trkpt lat="45.744403556856376" lon="9.685985840148717"><ele>683.0</ele><time>2026-03-28T13:36:00Z</time></trkpt><trkpt lat="45.74456896006054" lon="9.686154913266567"><ele>683.0</ele><time>2026-03-28T13:36:21Z</time></trkpt><trkpt lat="45.74467090844328" lon="9.68618431136103"><ele>683.0</ele><time>2026-03-28T13:36:37Z</time></trkpt><trkpt lat="45.744724060607105" lon="9.68624187268998"><ele>684.5714285714286</ele><time>2026-03-28T13:36:43Z</time></trkpt><trkpt lat="45.744791747656585" lon="9.686284788048928"><ele>686.1428571428571</ele><time>2026-03-28T13:36:49Z</time></trkpt><trkpt lat="45.744855672503355" lon="9.686287575503034"><ele>687.7142857142858</ele><time>2026-03-28T13:36:54Z</time></trkpt><trkpt lat="45.74491546068202" lon="9.68633671754492"><ele>689.2857142857142</ele><time>2026-03-28T13:37:04Z</time></trkpt><trkpt lat="45.74497206767373" lon="9.686382106843544"><ele>690.8571428571428</ele><time>2026-03-28T13:37:12Z</time></trkpt><trkpt lat="45.74504263182109" lon="9.686423441316924"><ele>692.4285714285714</ele><time>2026-03-28T13:37:19Z</time></trkpt><trkpt lat="45.745102158062345" lon="9.686453613726927"><ele>694.0</ele><time>2026-03-28T13:37:26Z</time></trkpt><trkpt lat="45.745168561235" lon="9.68644454284168"><ele>693.5714285714286</ele><time>2026-03-28T13:37:34Z</time></trkpt><trkpt lat="45.745231675315" lon="9.68640120421586"><ele>693.1428571428571</ele><time>2026-03-28T13:37:46.999Z</time></trkpt><trkpt lat="45.74524288476153" lon="9.686312375315307"><ele>692.7142857142857</ele><time>2026-03-28T13:37:51.999Z</time></trkpt><trkpt lat="45.745297645567526" lon="9.686265841666408"><ele>692.2857142857142</ele><time>2026-03-28T13:37:58.999Z</time></trkpt><trkpt lat="45.74533569299449" lon="9.686190054156665"><ele>691.8571428571429</ele><time>2026-03-28T13:38:07Z</time></trkpt><trkpt lat="45.74538960480768" lon="9.686129989641113"><ele>691.4285714285713</ele><time>2026-03-28T13:38:12Z</time></trkpt><trkpt lat="45.74544350778274" lon="9.686081187881726"><ele>691.0</ele><time>2026-03-28T13:38:16Z</time></trkpt><trkpt lat="45.745554921261345" lon="9.686073120301987"><ele>690.9999999999999</ele><time>2026-03-28T13:38:24Z</time></trkpt><trkpt lat="45.74558475344058" lon="9.685989039258597"><ele>691.0</ele><time>2026-03-28T13:38:26Z</time></trkpt><trkpt lat="45.745641458443544" lon="9.685949046191677"><ele>691.0</ele><time>2026-03-28T13:38:32Z</time></trkpt><trkpt lat="45.74570581146877" lon="9.685955806026087"><ele>691.0</ele><time>2026-03-28T13:38:37Z</time></trkpt><trkpt lat="45.745758038280755" lon="9.686012256998245"><ele>691.0</ele><time>2026-03-28T13:38:41Z</time></trkpt><trkpt lat="45.745816947136404" lon="9.68606500388932"><ele>690.9999999999999</ele><time>2026-03-28T13:38:46Z</time></trkpt><trkpt lat="45.74587815446806" lon="9.686114531700571"><ele>691.0</ele><time>2026-03-28T13:38:49Z</time></trkpt><trkpt lat="45.74590086089151" lon="9.68620113197776"><ele>693.5</ele><time>2026-03-28T13:38:55Z</time></trkpt><trkpt lat="45.74596434606261" lon="9.686211853303753"><ele>696.0</ele><time>2026-03-28T13:39:02Z</time></trkpt><trkpt lat="45.746004458600275" lon="9.686296624657349"><ele>698.5</ele><time>2026-03-28T13:39:08Z</time></trkpt><trkpt lat="45.74607510756906" lon="9.68636017544568"><ele>701.0</ele><time>2026-03-28T13:39:13Z</time></trkpt><trkpt lat="45.746163820376175" lon="9.686390702013211"><ele>703.5</ele><time>2026-03-28T13:39:18Z</time></trkpt><trkpt lat="45.74621418880154" lon="9.686463369329216"><ele>706.0</ele><time>2026-03-28T13:39:25Z</time></trkpt><trkpt lat="45.746269407762185" lon="9.686521399361085"><ele>706.0</ele><time>2026-03-28T13:39:30Z</time></trkpt><trkpt lat="45.74633520771311" lon="9.686591761664097"><ele>706.0</ele><time>2026-03-28T13:39:38.999Z</time></trkpt><trkpt lat="45.7464080885174" lon="9.686622966952342"><ele>706.0</ele><time>2026-03-28T13:39:44.999Z</time></trkpt><trkpt lat="45.746480442374626" lon="9.686666533118531"><ele>706.0</ele><time>2026-03-28T13:39:50.999Z</time></trkpt><trkpt lat="45.746539458932894" lon="9.686699812456245"><ele>706.0</ele><time>2026-03-28T13:39:55.999Z</time></trkpt><trkpt lat="45.746592549674745" lon="9.686756960595941"><ele>706.0</ele><time>2026-03-28T13:40:00.999Z</time></trkpt><trkpt lat="45.74664776381714" lon="9.686803082717214"><ele>706.0</ele><time>2026-03-28T13:40:05.999Z</time></trkpt><trkpt lat="45.74670570696633" lon="9.686841001684439"><ele>706.0</ele><time>2026-03-28T13:40:10.999Z</time></trkpt><trkpt lat="45.7467692638536" lon="9.686865692242675"><ele>706.0</ele><time>2026-03-28T13:40:16.999Z</time></trkpt><trkpt lat="45.746840374030555" lon="9.686883625279332"><ele>706.0</ele><time>2026-03-28T13:40:23Z</time></trkpt><trkpt lat="45.74691429110943" lon="9.68686430669466"><ele>706.0</ele><time>2026-03-28T13:40:29Z</time></trkpt><trkpt lat="45.746987890515555" lon="9.686916808537061"><ele>706.0</ele><time>2026-03-28T13:40:36Z</time></trkpt><trkpt lat="45.7470556931449" lon="9.686957189611942"><ele>706.0</ele><time>2026-03-28T13:40:41Z</time></trkpt><trkpt lat="45.74712536757664" lon="9.686970703300348"><ele>706.0</ele><time>2026-03-28T13:40:46Z</time></trkpt><trkpt lat="45.7471885818173" lon="9.68698826616299"><ele>707.2857142857142</ele><time>2026-03-28T13:40:52Z</time></trkpt><trkpt lat="45.74725780114081" lon="9.687010894839467"><ele>708.5714285714287</ele><time>2026-03-28T13:41:00Z</time></trkpt><trkpt lat="45.747321612997" lon="9.6870244355042"><ele>709.8571428571429</ele><time>2026-03-28T13:41:06Z</time></trkpt><trkpt lat="45.7473869008568" lon="9.687022077502109"><ele>711.1428571428571</ele><time>2026-03-28T13:41:10.999Z</time></trkpt><trkpt lat="45.747462717617104" lon="9.687003103729786"><ele>712.4285714285713</ele><time>2026-03-28T13:41:15.999Z</time></trkpt><trkpt lat="45.74754365449663" lon="9.686985923752957"><ele>713.7142857142858</ele><time>2026-03-28T13:41:23.999Z</time></trkpt><trkpt lat="45.74761426969655" lon="9.686958626985309"><ele>715.0</ele><time>2026-03-28T13:41:28.999Z</time></trkpt><trkpt lat="45.747683165994346" lon="9.686943103061415"><ele>715.0</ele><time>2026-03-28T13:41:32.999Z</time></trkpt><trkpt lat="45.74776712579699" lon="9.68693307700309"><ele>715.0</ele><time>2026-03-28T13:41:39.999Z</time></trkpt><trkpt lat="45.747843358996015" lon="9.68691545180634"><ele>715.0</ele><time>2026-03-28T13:41:44.999Z</time></trkpt><trkpt lat="45.747921042301485" lon="9.686926288606076"><ele>715.0</ele><time>2026-03-28T13:41:50.999Z</time></trkpt><trkpt lat="45.74799271395813" lon="9.686938723124596"><ele>715.0</ele><time>2026-03-28T13:41:55.999Z</time></trkpt><trkpt lat="45.74806348835427" lon="9.686941597518215"><ele>715.0</ele><time>2026-03-28T13:42:03.999Z</time></trkpt><trkpt lat="45.74812953042269" lon="9.686935861940636"><ele>715.0</ele><time>2026-03-28T13:42:10.999Z</time></trkpt><trkpt lat="45.74819840554617" lon="9.686922250822027"><ele>715.2857142857143</ele><time>2026-03-28T13:42:17Z</time></trkpt><trkpt lat="45.74826064925511" lon="9.68687408491981"><ele>715.5714285714286</ele><time>2026-03-28T13:42:22Z</time></trkpt><trkpt lat="45.748326498363916" lon="9.686850331481978"><ele>715.8571428571429</ele><time>2026-03-28T13:42:28Z</time></trkpt><trkpt lat="45.74839116551641" lon="9.686808732586243"><ele>716.1428571428571</ele><time>2026-03-28T13:42:33Z</time></trkpt><trkpt lat="45.74846986489601" lon="9.686807931842466"><ele>716.4285714285713</ele><time>2026-03-28T13:42:38Z</time></trkpt><trkpt lat="45.74853473141258" lon="9.686808109230432"><ele>716.7142857142857</ele><time>2026-03-28T13:42:43Z</time></trkpt><trkpt lat="45.74860513510313" lon="9.686805505097984"><ele>717.0</ele><time>2026-03-28T13:42:49Z</time></trkpt><trkpt lat="45.74868245656872" lon="9.686840649428285"><ele>718.6</ele><time>2026-03-28T13:42:54Z</time></trkpt><trkpt lat="45.748750379630856" lon="9.686860905127356"><ele>720.2</ele><time>2026-03-28T13:42:58Z</time></trkpt><trkpt lat="45.748824979115334" lon="9.68683566554959"><ele>721.8</ele><time>2026-03-28T13:43:03Z</time></trkpt><trkpt lat="45.74889314700102" lon="9.686805236768036"><ele>723.4</ele><time>2026-03-28T13:43:32Z</time></trkpt><trkpt lat="45.748961372131056" lon="9.686756934099868"><ele>725.0</ele><time>2026-03-28T13:44:24Z</time></trkpt><trkpt lat="45.74920538860429" lon="9.68672759467389"><ele>725.0</ele><time>2026-03-28T13:44:43Z</time></trkpt><trkpt lat="45.749254925932846" lon="9.686641306631365"><ele>725.0</ele><time>2026-03-28T13:44:48Z</time></trkpt><trkpt lat="45.749334961157416" lon="9.686568919694244"><ele>725.0</ele><time>2026-03-28T13:44:55Z</time></trkpt><trkpt lat="45.74939688574065" lon="9.68652704144755"><ele>725.0</ele><time>2026-03-28T13:44:59Z</time></trkpt><trkpt lat="45.74946250307029" lon="9.686498897389122"><ele>725.0</ele><time>2026-03-28T13:45:04Z</time></trkpt><trkpt lat="45.74950070353266" lon="9.686425555883075"><ele>725.0</ele><time>2026-03-28T13:45:09Z</time></trkpt><trkpt lat="45.74956717806412" lon="9.686379556156375"><ele>725.0</ele><time>2026-03-28T13:45:29Z</time></trkpt><trkpt lat="45.749627851605936" lon="9.686313134903928"><ele>726.1428571428571</ele><time>2026-03-28T13:45:36Z</time></trkpt><trkpt lat="45.74968366952904" lon="9.686247095200956"><ele>727.2857142857143</ele><time>2026-03-28T13:45:41Z</time></trkpt><trkpt lat="45.749735742816284" lon="9.68618263663863"><ele>728.4285714285713</ele><time>2026-03-28T13:45:48Z</time></trkpt><trkpt lat="45.74979321990842" lon="9.686121108695241"><ele>729.5714285714286</ele><time>2026-03-28T13:45:54Z</time></trkpt><trkpt lat="45.74985364585252" lon="9.68605734138058"><ele>730.7142857142857</ele><time>2026-03-28T13:45:59Z</time></trkpt><trkpt lat="45.749913208420985" lon="9.686019641352258"><ele>731.8571428571428</ele><time>2026-03-28T13:46:03Z</time></trkpt><trkpt lat="45.74997904415241" lon="9.685967653106966"><ele>733.0</ele><time>2026-03-28T13:46:08Z</time></trkpt><trkpt lat="45.75003561414773" lon="9.68588429682835"><ele>732.9999999999999</ele><time>2026-03-28T13:46:16Z</time></trkpt><trkpt lat="45.750095994298576" lon="9.685824926506099"><ele>733.0</ele><time>2026-03-28T13:46:22Z</time></trkpt><trkpt lat="45.75015262365579" lon="9.685762720339175"><ele>733.0</ele><time>2026-03-28T13:46:28Z</time></trkpt><trkpt lat="45.75020974283175" lon="9.685710301834153"><ele>733.0</ele><time>2026-03-28T13:46:33Z</time></trkpt><trkpt lat="45.750262402548664" lon="9.685640038410405"><ele>733.0</ele><time>2026-03-28T13:46:39Z</time></trkpt><trkpt lat="45.75032326595849" lon="9.685595449791693"><ele>732.9999999999999</ele><time>2026-03-28T13:46:44Z</time></trkpt><trkpt lat="45.75038558050915" lon="9.685551483502465"><ele>733.0</ele><time>2026-03-28T13:46:47Z</time></trkpt><trkpt lat="45.750455186273406" lon="9.68551110588715"><ele>735.4285714285713</ele><time>2026-03-28T13:46:53Z</time></trkpt><trkpt lat="45.75051729661386" lon="9.685492844222255"><ele>737.8571428571429</ele><time>2026-03-28T13:46:57Z</time></trkpt><trkpt lat="45.75058230466868" lon="9.685437296373703"><ele>740.2857142857142</ele><time>2026-03-28T13:47:02Z</time></trkpt><trkpt lat="45.75064517252429" lon="9.685402327732527"><ele>742.7142857142857</ele><time>2026-03-28T13:47:06Z</time></trkpt><trkpt lat="45.75071020674167" lon="9.685402719122196"><ele>745.1428571428571</ele><time>2026-03-28T13:47:11Z</time></trkpt><trkpt lat="45.750777473932374" lon="9.685347512537456"><ele>747.5714285714286</ele><time>2026-03-28T13:47:19Z</time></trkpt><trkpt lat="45.75080971779824" lon="9.685251931838016"><ele>750.0</ele><time>2026-03-28T13:47:24Z</time></trkpt><trkpt lat="45.750792032470876" lon="9.685153973596615"><ele>750.0</ele><time>2026-03-28T13:47:28Z</time></trkpt><trkpt lat="45.750808933083285" lon="9.685055787783407"><ele>750.0</ele><time>2026-03-28T13:47:36Z</time></trkpt><trkpt lat="45.75084240968883" lon="9.684965909653593"><ele>750.0</ele><time>2026-03-28T13:47:41Z</time></trkpt><trkpt lat="45.75088819042082" lon="9.684888258160889"><ele>750.0</ele><time>2026-03-28T13:47:46Z</time></trkpt><trkpt lat="45.750903349900454" lon="9.684797882913836"><ele>750.0</ele><time>2026-03-28T13:47:52Z</time></trkpt><trkpt lat="45.750912508451364" lon="9.684693731196601"><ele>750.0</ele><time>2026-03-28T13:47:59Z</time></trkpt><trkpt lat="45.75094079976624" lon="9.68460335191176"><ele>750.0</ele><time>2026-03-28T13:48:06Z</time></trkpt><trkpt lat="45.75090485837134" lon="9.68451793052875"><ele>748.8333333333334</ele><time>2026-03-28T13:48:09Z</time></trkpt><trkpt lat="45.75086882137829" lon="9.684418814428334"><ele>747.6666666666666</ele><time>2026-03-28T13:48:13Z</time></trkpt><trkpt lat="45.75083707792854" lon="9.684315357992679"><ele>746.5</ele><time>2026-03-28T13:48:19Z</time></trkpt><trkpt lat="45.75079131872129" lon="9.684219059961295"><ele>745.3333333333333</ele><time>2026-03-28T13:48:24Z</time></trkpt><trkpt lat="45.7507717544213" lon="9.684119353297127"><ele>744.1666666666666</ele><time>2026-03-28T13:48:30Z</time></trkpt><trkpt lat="45.75075041014173" lon="9.68400908887629"><ele>743.0</ele><time>2026-03-28T13:48:36Z</time></trkpt><trkpt lat="45.750719859639624" lon="9.683922237923579"><ele>743.0</ele><time>2026-03-28T13:48:40Z</time></trkpt><trkpt lat="45.75069511101814" lon="9.68383143455682"><ele>743.0</ele><time>2026-03-28T13:48:46Z</time></trkpt><trkpt lat="45.75068185358556" lon="9.68373180670321"><ele>743.0</ele><time>2026-03-28T13:48:51Z</time></trkpt><trkpt lat="45.750715553927954" lon="9.683652642237144"><ele>743.0</ele><time>2026-03-28T13:48:55Z</time></trkpt><trkpt lat="45.75069878170401" lon="9.68354710602321"><ele>743.0</ele><time>2026-03-28T13:48:59Z</time></trkpt><trkpt lat="45.75070949332799" lon="9.683454247385574"><ele>743.0</ele><time>2026-03-28T13:49:04Z</time></trkpt><trkpt lat="45.750763139817685" lon="9.683393438048306"><ele>743.0</ele><time>2026-03-28T13:49:10Z</time></trkpt><trkpt lat="45.75082543411692" lon="9.68332570498154"><ele>743.0</ele><time>2026-03-28T13:49:15Z</time></trkpt><trkpt lat="45.750892182688574" lon="9.68329722581385"><ele>743.0</ele><time>2026-03-28T13:49:21Z</time></trkpt><trkpt lat="45.75095982611679" lon="9.683274818131359"><ele>743.0</ele><time>2026-03-28T13:49:27Z</time></trkpt><trkpt lat="45.75103270663888" lon="9.683262825206665"><ele>743.0</ele><time>2026-03-28T13:49:31Z</time></trkpt><trkpt lat="45.751109947601606" lon="9.683238136894978"><ele>743.0</ele><time>2026-03-28T13:49:35Z</time></trkpt><trkpt lat="45.751179477233386" lon="9.683199734455942"><ele>743.0</ele><time>2026-03-28T13:49:39Z</time></trkpt><trkpt lat="45.75124329014907" lon="9.683191890338586"><ele>743.0</ele><time>2026-03-28T13:49:43Z</time></trkpt><trkpt lat="45.75129654120222" lon="9.683126345439769"><ele>748.8571428571429</ele><time>2026-03-28T13:49:47Z</time></trkpt><trkpt lat="45.751360618071644" lon="9.68311853038084"><ele>754.7142857142857</ele><time>2026-03-28T13:49:51Z</time></trkpt><trkpt lat="45.751427301731155" lon="9.683122678575716"><ele>760.5714285714286</ele><time>2026-03-28T13:49:55Z</time></trkpt><trkpt lat="45.75150230727607" lon="9.683091525677481"><ele>766.4285714285714</ele><time>2026-03-28T13:50:00Z</time></trkpt><trkpt lat="45.751572601454285" lon="9.68303863240885"><ele>772.2857142857142</ele><time>2026-03-28T13:50:05Z</time></trkpt><trkpt lat="45.751640920184585" lon="9.682998831851316"><ele>778.1428571428571</ele><time>2026-03-28T13:50:10Z</time></trkpt><trkpt lat="45.75169552315656" lon="9.682918227648845"><ele>784.0</ele><time>2026-03-28T13:50:16Z</time></trkpt><trkpt lat="45.75169688372553" lon="9.682801655614483"><ele>785.7142857142857</ele><time>2026-03-28T13:50:21Z</time></trkpt><trkpt lat="45.75172028150109" lon="9.682702128053146"><ele>787.4285714285714</ele><time>2026-03-28T13:50:27Z</time></trkpt><trkpt lat="45.751742421083826" lon="9.682615574950889"><ele>789.1428571428571</ele><time>2026-03-28T13:50:32Z</time></trkpt><trkpt lat="45.751756629753096" lon="9.682522450815188"><ele>790.8571428571429</ele><time>2026-03-28T13:50:37Z</time></trkpt><trkpt lat="45.751786234898454" lon="9.682430889402717"><ele>792.5714285714286</ele><time>2026-03-28T13:50:42Z</time></trkpt><trkpt lat="45.75183298731493" lon="9.682360346434846"><ele>794.2857142857142</ele><time>2026-03-28T13:50:48Z</time></trkpt><trkpt lat="45.75187748638865" lon="9.682261381930852"><ele>796.0</ele><time>2026-03-28T13:50:54Z</time></trkpt><trkpt lat="45.75188645529581" lon="9.682156003628913"><ele>795.9999999999999</ele><time>2026-03-28T13:50:59Z</time></trkpt><trkpt lat="45.75188894532642" lon="9.682065625167096"><ele>796.0</ele><time>2026-03-28T13:51:03Z</time></trkpt><trkpt lat="45.75187625801039" lon="9.681975216466483"><ele>796.0</ele><time>2026-03-28T13:51:08Z</time></trkpt><trkpt lat="45.75185648779514" lon="9.681876512456714"><ele>796.0</ele><time>2026-03-28T13:51:12Z</time></trkpt><trkpt lat="45.75184333058076" lon="9.681786859330602"><ele>796.0</ele><time>2026-03-28T13:51:16Z</time></trkpt><trkpt lat="45.751859819244174" lon="9.681682857363139"><ele>795.9999999999999</ele><time>2026-03-28T13:51:21Z</time></trkpt><trkpt lat="45.7519311785082" lon="9.681627848645746"><ele>796.0</ele><time>2026-03-28T13:51:28Z</time></trkpt><trkpt lat="45.75199127069812" lon="9.681595994247662"><ele>793.2857142857142</ele><time>2026-03-28T13:51:33Z</time></trkpt><trkpt lat="45.75206183179606" lon="9.681594883243323"><ele>790.5714285714286</ele><time>2026-03-28T13:51:39Z</time></trkpt><trkpt lat="45.752138230057746" lon="9.681584233022727"><ele>787.8571428571429</ele><time>2026-03-28T13:51:43Z</time></trkpt><trkpt lat="45.752211752330005" lon="9.681564450261938"><ele>785.1428571428571</ele><time>2026-03-28T13:51:48Z</time></trkpt><trkpt lat="45.75226075900149" lon="9.681498211626538"><ele>782.4285714285714</ele><time>2026-03-28T13:51:52Z</time></trkpt><trkpt lat="45.752328013758095" lon="9.681472672426409"><ele>779.7142857142857</ele><time>2026-03-28T13:51:56Z</time></trkpt><trkpt lat="45.75240278410105" lon="9.68144860638149"><ele>777.0</ele><time>2026-03-28T13:51:59Z</time></trkpt><trkpt lat="45.752458351476776" lon="9.681374332172279"><ele>777.0</ele><time>2026-03-28T13:52:02Z</time></trkpt><trkpt lat="45.752532065796714" lon="9.681374472718257"><ele>777.0</ele><time>2026-03-28T13:52:06Z</time></trkpt><trkpt lat="45.75259249840527" lon="9.681313765802955"><ele>777.0</ele><time>2026-03-28T13:52:11.999Z</time></trkpt><trkpt lat="45.75262156309793" lon="9.681232588765928"><ele>777.0</ele><time>2026-03-28T13:52:16.999Z</time></trkpt><trkpt lat="45.752677635767036" lon="9.68118192745707"><ele>777.0</ele><time>2026-03-28T13:52:23.999Z</time></trkpt><trkpt lat="45.75271135201444" lon="9.681102202967216"><ele>777.0</ele><time>2026-03-28T13:52:26.999Z</time></trkpt><trkpt lat="45.75278047477245" lon="9.681051817863988"><ele>777.0</ele><time>2026-03-28T13:52:31.999Z</time></trkpt><trkpt lat="45.75285595150041" lon="9.68105378692566"><ele>774.5714285714286</ele><time>2026-03-28T13:52:35.999Z</time></trkpt><trkpt lat="45.752924767929485" lon="9.680993717002195"><ele>772.1428571428571</ele><time>2026-03-28T13:52:39.999Z</time></trkpt><trkpt lat="45.75298406106049" lon="9.68092894256099"><ele>769.7142857142858</ele><time>2026-03-28T13:52:43.999Z</time></trkpt><trkpt lat="45.753042451227" lon="9.68087279256712"><ele>767.2857142857142</ele><time>2026-03-28T13:52:48Z</time></trkpt><trkpt lat="45.7530741651577" lon="9.680793742257892"><ele>764.8571428571429</ele><time>2026-03-28T13:52:53Z</time></trkpt><trkpt lat="45.75312273359441" lon="9.680734890461553"><ele>762.4285714285714</ele><time>2026-03-28T13:52:57Z</time></trkpt><trkpt lat="45.75319067405542" lon="9.680705193541211"><ele>760.0</ele><time>2026-03-28T13:53:03Z</time></trkpt><trkpt lat="45.753259898220364" lon="9.680659650702163"><ele>760.0</ele><time>2026-03-28T13:53:08Z</time></trkpt><trkpt lat="45.75330962195796" lon="9.680594533867717"><ele>760.0</ele><time>2026-03-28T13:53:12Z</time></trkpt><trkpt lat="45.753368923772086" lon="9.680539997316645"><ele>760.0</ele><time>2026-03-28T13:53:17Z</time></trkpt><trkpt lat="45.75342852928557" lon="9.68049769512412"><ele>760.0</ele><time>2026-03-28T13:53:22Z</time></trkpt><trkpt lat="45.753487518258936" lon="9.680448708928084"><ele>760.0</ele><time>2026-03-28T13:53:27Z</time></trkpt><trkpt lat="45.75354826487534" lon="9.680392890513952"><ele>760.0</ele><time>2026-03-28T13:53:32Z</time></trkpt><trkpt lat="45.75360242044637" lon="9.680341450935945"><ele>760.0</ele><time>2026-03-28T13:53:36Z</time></trkpt><trkpt lat="45.753666935445075" lon="9.680303928938436"><ele>759.7142857142858</ele><time>2026-03-28T13:53:41Z</time></trkpt><trkpt lat="45.753735071943716" lon="9.680283708928531"><ele>759.4285714285714</ele><time>2026-03-28T13:53:46Z</time></trkpt><trkpt lat="45.753794035420675" lon="9.680220735750394"><ele>759.1428571428571</ele><time>2026-03-28T13:53:51Z</time></trkpt><trkpt lat="45.753852711638096" lon="9.680180466894736"><ele>758.8571428571429</ele><time>2026-03-28T13:53:56Z</time></trkpt><trkpt lat="45.753913463587324" lon="9.680140031568236"><ele>758.5714285714286</ele><time>2026-03-28T13:54:01Z</time></trkpt><trkpt lat="45.753979967174374" lon="9.68011652166016"><ele>758.2857142857143</ele><time>2026-03-28T13:54:06Z</time></trkpt><trkpt lat="45.75404228921389" lon="9.680079875323925"><ele>758.0</ele><time>2026-03-28T13:54:11Z</time></trkpt><trkpt lat="45.754114832346225" lon="9.680042907796183"><ele>758.0000000000001</ele><time>2026-03-28T13:54:16Z</time></trkpt><trkpt lat="45.75416619235463" lon="9.679981865039318"><ele>758.0</ele><time>2026-03-28T13:54:20Z</time></trkpt><trkpt lat="45.75422583158852" lon="9.679929528329652"><ele>758.0</ele><time>2026-03-28T13:54:25Z</time></trkpt><trkpt lat="45.75427884323124" lon="9.679865028901736"><ele>758.0</ele><time>2026-03-28T13:54:29Z</time></trkpt><trkpt lat="45.75434291100577" lon="9.679804812421581"><ele>758.0</ele><time>2026-03-28T13:54:33.999Z</time></trkpt><trkpt lat="45.7543763809346" lon="9.67971769720235"><ele>758.0000000000001</ele><time>2026-03-28T13:54:37.999Z</time></trkpt><trkpt lat="45.75444145687482" lon="9.679717537665557"><ele>758.0</ele><time>2026-03-28T13:54:41.999Z</time></trkpt><trkpt lat="45.75449961938939" lon="9.679670848998825"><ele>758.5714285714287</ele><time>2026-03-28T13:54:46.999Z</time></trkpt><trkpt lat="45.75456995455236" lon="9.679654663982852"><ele>759.1428571428571</ele><time>2026-03-28T13:54:52Z</time></trkpt><trkpt lat="45.754596092177856" lon="9.679565437710119"><ele>759.7142857142858</ele><time>2026-03-28T13:54:56Z</time></trkpt><trkpt lat="45.75463740246257" lon="9.679491347938807"><ele>760.2857142857143</ele><time>2026-03-28T13:55:00Z</time></trkpt><trkpt lat="45.7547100134952" lon="9.679471638987549"><ele>760.8571428571429</ele><time>2026-03-28T13:55:06Z</time></trkpt><trkpt lat="45.75478020785258" lon="9.679432036588814"><ele>761.4285714285714</ele><time>2026-03-28T13:55:10Z</time></trkpt><trkpt lat="45.75485596898808" lon="9.679403098014586"><ele>762.0</ele><time>2026-03-28T13:55:15Z</time></trkpt><trkpt lat="45.75492398136829" lon="9.679377359857908"><ele>762.0</ele><time>2026-03-28T13:55:20Z</time></trkpt><trkpt lat="45.75498792599993" lon="9.679351937427978"><ele>762.0</ele><time>2026-03-28T13:55:24Z</time></trkpt><trkpt lat="45.75505455637731" lon="9.679350969881837"><ele>762.0</ele><time>2026-03-28T13:55:28Z</time></trkpt><trkpt lat="45.755121647408984" lon="9.67929752902882"><ele>762.0</ele><time>2026-03-28T13:55:33Z</time></trkpt><trkpt lat="45.755164404417016" lon="9.679227591081231"><ele>762.0</ele><time>2026-03-28T13:55:39Z</time></trkpt><trkpt lat="45.75521756782628" lon="9.679171781938486"><ele>762.0</ele><time>2026-03-28T13:55:43Z</time></trkpt><trkpt lat="45.75527261311985" lon="9.679098257862705"><ele>762.0</ele><time>2026-03-28T13:55:48Z</time></trkpt><trkpt lat="45.75531289466208" lon="9.67900899233217"><ele>759.1428571428571</ele><time>2026-03-28T13:55:54Z</time></trkpt><trkpt lat="45.755362792861185" lon="9.67893206922637"><ele>756.2857142857143</ele><time>2026-03-28T13:55:58Z</time></trkpt><trkpt lat="45.75543219475877" lon="9.678874222422328"><ele>753.4285714285714</ele><time>2026-03-28T13:56:02Z</time></trkpt><trkpt lat="45.7554709215445" lon="9.678801008887545"><ele>750.5714285714286</ele><time>2026-03-28T13:56:06Z</time></trkpt><trkpt lat="45.75550230111516" lon="9.678708035895388"><ele>747.7142857142858</ele><time>2026-03-28T13:56:10Z</time></trkpt><trkpt lat="45.75554048794234" lon="9.678626610353078"><ele>744.8571428571429</ele><time>2026-03-28T13:56:14Z</time></trkpt><trkpt lat="45.755594018394326" lon="9.67853617159979"><ele>742.0</ele><time>2026-03-28T13:56:18Z</time></trkpt><trkpt lat="45.75563709395862" lon="9.678463044931375"><ele>742.0</ele><time>2026-03-28T13:56:22Z</time></trkpt><trkpt lat="45.75565327570921" lon="9.678364492814035"><ele>742.0</ele><time>2026-03-28T13:56:27Z</time></trkpt><trkpt lat="45.75569806526485" lon="9.678268742276757"><ele>742.0</ele><time>2026-03-28T13:56:34Z</time></trkpt><trkpt lat="45.75570010490997" lon="9.678166303476319"><ele>742.0</ele><time>2026-03-28T13:56:38Z</time></trkpt><trkpt lat="45.75574297482854" lon="9.678090770667735"><ele>742.0</ele><time>2026-03-28T13:56:42Z</time></trkpt><trkpt lat="45.75578753059038" lon="9.678026379310209"><ele>742.0</ele><time>2026-03-28T13:56:46Z</time></trkpt><trkpt lat="45.755802688745405" lon="9.677918482100102"><ele>742.0</ele><time>2026-03-28T13:56:50Z</time></trkpt><trkpt lat="45.75583649480381" lon="9.677817019764335"><ele>745.2857142857143</ele><time>2026-03-28T13:56:54.999Z</time></trkpt><trkpt lat="45.75584777724381" lon="9.677722980916075"><ele>748.5714285714286</ele><time>2026-03-28T13:56:59Z</time></trkpt><trkpt lat="45.75587251981073" lon="9.677628289167247"><ele>751.8571428571429</ele><time>2026-03-28T13:57:04Z</time></trkpt><trkpt lat="45.75591361734729" lon="9.677553448009755"><ele>755.1428571428571</ele><time>2026-03-28T13:57:08Z</time></trkpt><trkpt lat="45.75595845947302" lon="9.677478041350858"><ele>758.4285714285714</ele><time>2026-03-28T13:57:13Z</time></trkpt><trkpt lat="45.75598120035789" lon="9.677391553851164"><ele>761.7142857142858</ele><time>2026-03-28T13:57:18Z</time></trkpt><trkpt lat="45.756007942863526" lon="9.677288910416838"><ele>765.0</ele><time>2026-03-28T13:57:23Z</time></trkpt><trkpt lat="45.756053311286" lon="9.677196676473244"><ele>760.2857142857143</ele><time>2026-03-28T13:57:28Z</time></trkpt><trkpt lat="45.75607352787042" lon="9.677094953749464"><ele>755.5714285714286</ele><time>2026-03-28T13:57:33Z</time></trkpt><trkpt lat="45.75612083765562" lon="9.677032637980473"><ele>750.8571428571429</ele><time>2026-03-28T13:57:37Z</time></trkpt><trkpt lat="45.7561561396116" lon="9.676947389520942"><ele>746.1428571428571</ele><time>2026-03-28T13:57:41Z</time></trkpt><trkpt lat="45.75618653081803" lon="9.67685601373441"><ele>741.4285714285714</ele><time>2026-03-28T13:57:46Z</time></trkpt><trkpt lat="45.75622283852468" lon="9.676774921711967"><ele>736.7142857142858</ele><time>2026-03-28T13:57:50Z</time></trkpt><trkpt lat="45.756265266422886" lon="9.676692024096148"><ele>732.0</ele><time>2026-03-28T13:57:55Z</time></trkpt><trkpt lat="45.756300681034375" lon="9.67660722852909"><ele>732.0</ele><time>2026-03-28T13:58:00Z</time></trkpt><trkpt lat="45.75634128537062" lon="9.676517546003883"><ele>732.0</ele><time>2026-03-28T13:58:06Z</time></trkpt><trkpt lat="45.75637627846657" lon="9.676439696541676"><ele>732.0</ele><time>2026-03-28T13:58:10Z</time></trkpt><trkpt lat="45.75643290787892" lon="9.676386984723237"><ele>732.0</ele><time>2026-03-28T13:58:14Z</time></trkpt><trkpt lat="45.75646483934078" lon="9.676303508178568"><ele>732.0</ele><time>2026-03-28T13:58:18Z</time></trkpt><trkpt lat="45.7565154868957" lon="9.676217076611225"><ele>732.0</ele><time>2026-03-28T13:58:23Z</time></trkpt><trkpt lat="45.756532011605735" lon="9.676125405718434"><ele>732.0</ele><time>2026-03-28T13:58:27Z</time></trkpt><trkpt lat="45.7565673229386" lon="9.676044042210043"><ele>736.0</ele><time>2026-03-28T13:58:31Z</time></trkpt><trkpt lat="45.75658843498742" lon="9.675953859559032"><ele>740.0</ele><time>2026-03-28T13:58:35Z</time></trkpt><trkpt lat="45.7566321846537" lon="9.675872998082031"><ele>744.0</ele><time>2026-03-28T13:58:40Z</time></trkpt><trkpt lat="45.75665847694446" lon="9.675779792296833"><ele>748.0</ele><time>2026-03-28T13:58:45Z</time></trkpt><trkpt lat="45.75671319228742" lon="9.675706279108626"><ele>752.0</ele><time>2026-03-28T13:58:49Z</time></trkpt><trkpt lat="45.75676131167402" lon="9.67564180158235"><ele>756.0</ele><time>2026-03-28T13:58:54Z</time></trkpt><trkpt lat="45.756818476095184" lon="9.675596074413813"><ele>760.0</ele><time>2026-03-28T13:58:59Z</time></trkpt><trkpt lat="45.75686712442696" lon="9.675533993627928"><ele>760.5714285714286</ele><time>2026-03-28T13:59:04Z</time></trkpt><trkpt lat="45.75692509868972" lon="9.675495413019608"><ele>761.1428571428571</ele><time>2026-03-28T13:59:08Z</time></trkpt><trkpt lat="45.75696901122253" lon="9.675425040965479"><ele>761.7142857142858</ele><time>2026-03-28T13:59:12Z</time></trkpt><trkpt lat="45.75700406497718" lon="9.675349810310646"><ele>762.2857142857142</ele><time>2026-03-28T13:59:16Z</time></trkpt><trkpt lat="45.757040160659294" lon="9.675271043786298"><ele>762.8571428571428</ele><time>2026-03-28T13:59:20Z</time></trkpt><trkpt lat="45.75708991219114" lon="9.675212039013532"><ele>763.4285714285714</ele><time>2026-03-28T13:59:24Z</time></trkpt><trkpt lat="45.75714098913169" lon="9.675134765132661"><ele>764.0</ele><time>2026-03-28T13:59:29Z</time></trkpt><trkpt lat="45.75719001146651" lon="9.675072811226517"><ele>764.0</ele><time>2026-03-28T13:59:34Z</time></trkpt><trkpt lat="45.7572426785928" lon="9.675021781991997"><ele>764.0</ele><time>2026-03-28T13:59:39Z</time></trkpt><trkpt lat="45.7573050070523" lon="9.67498944582292"><ele>764.0</ele><time>2026-03-28T13:59:43Z</time></trkpt><trkpt lat="45.7573484490617" lon="9.67491109110262"><ele>764.0</ele><time>2026-03-28T13:59:47Z</time></trkpt><trkpt lat="45.75741872185103" lon="9.674895740196234"><ele>764.0</ele><time>2026-03-28T13:59:52Z</time></trkpt><trkpt lat="45.75749362056395" lon="9.674861298565926"><ele>764.0</ele><time>2026-03-28T13:59:57Z</time></trkpt><trkpt lat="45.757557348979766" lon="9.674830681823115"><ele>764.0</ele><time>2026-03-28T14:00:01Z</time></trkpt><trkpt lat="45.75760859735182" lon="9.674773297605075"><ele>764.0</ele><time>2026-03-28T14:00:05Z</time></trkpt><trkpt lat="45.757656855332144" lon="9.674698971917945"><ele>764.0</ele><time>2026-03-28T14:00:10Z</time></trkpt><trkpt lat="45.757709467135996" lon="9.674619003436392"><ele>764.0</ele><time>2026-03-28T14:00:15Z</time></trkpt><trkpt lat="45.75761863132048" lon="9.674634311706479"><ele>764.0</ele><time>2026-03-28T14:00:25Z</time></trkpt><trkpt lat="45.75762843081202" lon="9.674757800263636"><ele>764.0</ele><time>2026-03-28T14:00:33Z</time></trkpt><trkpt lat="45.75769940905886" lon="9.674784960433115"><ele>764.0</ele><time>2026-03-28T14:00:37Z</time></trkpt><trkpt lat="45.75777604910684" lon="9.674772216578697"><ele>767.5714285714286</ele><time>2026-03-28T14:00:43Z</time></trkpt><trkpt lat="45.75783557236305" lon="9.674732552160574"><ele>771.1428571428571</ele><time>2026-03-28T14:00:53Z</time></trkpt><trkpt lat="45.75789642096472" lon="9.674763901743988"><ele>774.7142857142857</ele><time>2026-03-28T14:01:04Z</time></trkpt><trkpt lat="45.757956089463164" lon="9.674685540498407"><ele>778.2857142857142</ele><time>2026-03-28T14:01:12Z</time></trkpt><trkpt lat="45.758007479173735" lon="9.674631147803208"><ele>781.8571428571429</ele><time>2026-03-28T14:01:19Z</time></trkpt><trkpt lat="45.758069194665694" lon="9.674593837508182"><ele>785.4285714285713</ele><time>2026-03-28T14:01:32Z</time></trkpt><trkpt lat="45.75811408095495" lon="9.674518188105688"><ele>789.0</ele><time>2026-03-28T14:01:37Z</time></trkpt><trkpt lat="45.75810370637107" lon="9.67462908835946"><ele>788.9999999999999</ele><time>2026-03-28T14:01:52Z</time></trkpt><trkpt lat="45.75815318419927" lon="9.674692346935899"><ele>789.0</ele><time>2026-03-28T14:02:08Z</time></trkpt><trkpt lat="45.758210543132535" lon="9.674756704351399"><ele>789.0</ele><time>2026-03-28T14:02:37Z</time></trkpt><trkpt lat="45.75824914835941" lon="9.674668093773144"><ele>789.0</ele><time>2026-03-28T14:02:45Z</time></trkpt><trkpt lat="45.758330367337216" lon="9.674683183520182"><ele>789.0</ele><time>2026-03-28T14:02:56.999Z</time></trkpt><trkpt lat="45.758393023076884" lon="9.674670786017543"><ele>788.9999999999999</ele><time>2026-03-28T14:03:05.999Z</time></trkpt><trkpt lat="45.758469514857644" lon="9.674664789398111"><ele>789.0</ele><time>2026-03-28T14:03:23Z</time></trkpt><trkpt lat="45.75852963731566" lon="9.674613351367777"><ele>793.2857142857142</ele><time>2026-03-28T14:03:31Z</time></trkpt><trkpt lat="45.75858866187191" lon="9.674663341528543"><ele>797.5714285714286</ele><time>2026-03-28T14:03:44Z</time></trkpt><trkpt lat="45.75865475262439" lon="9.674703842549771"><ele>801.8571428571429</ele><time>2026-03-28T14:03:58Z</time></trkpt><trkpt lat="45.758711198071914" lon="9.67475422403204"><ele>806.1428571428571</ele><time>2026-03-28T14:04:03Z</time></trkpt><trkpt lat="45.75876426442136" lon="9.674812712043353"><ele>810.4285714285714</ele><time>2026-03-28T14:04:12Z</time></trkpt><trkpt lat="45.758795186716384" lon="9.674895458476025"><ele>814.7142857142857</ele><time>2026-03-28T14:04:26Z</time></trkpt><trkpt lat="45.758791519608465" lon="9.675015731698608"><ele>819.0</ele><time>2026-03-28T14:04:51Z</time></trkpt><trkpt lat="45.75882767589273" lon="9.67511956528863"><ele>819.0</ele><time>2026-03-28T14:05:11.999Z</time></trkpt><trkpt lat="45.758895003137766" lon="9.67511809556076"><ele>819.0</ele><time>2026-03-28T14:05:29Z</time></trkpt><trkpt lat="45.758854541654316" lon="9.675193369644544"><ele>819.0</ele><time>2026-03-28T14:05:36Z</time></trkpt><trkpt lat="45.758908276834994" lon="9.675251401437874"><ele>819.0</ele><time>2026-03-28T14:05:41Z</time></trkpt><trkpt lat="45.75892815899193" lon="9.675355078715885"><ele>819.0</ele><time>2026-03-28T14:06:16Z</time></trkpt><trkpt lat="45.75896982158076" lon="9.675450802633513"><ele>819.0</ele><time>2026-03-28T14:07:48Z</time></trkpt><trkpt lat="45.759009912848256" lon="9.675530820960178"><ele>819.0</ele><time>2026-03-28T14:08:02Z</time></trkpt><trkpt lat="45.75906929771008" lon="9.67560450191243"><ele>820.8571428571429</ele><time>2026-03-28T14:09:04Z</time></trkpt><trkpt lat="45.759114745704096" lon="9.675673145650327"><ele>822.7142857142858</ele><time>2026-03-28T14:09:15.999Z</time></trkpt><trkpt lat="45.75913744941757" lon="9.675767265286165"><ele>824.5714285714286</ele><time>2026-03-28T14:09:24.999Z</time></trkpt><trkpt lat="45.75921274071395" lon="9.67575284716808"><ele>826.4285714285714</ele><time>2026-03-28T14:09:34Z</time></trkpt><trkpt lat="45.75922325978238" lon="9.67584340231426"><ele>828.2857142857143</ele><time>2026-03-28T14:09:38Z</time></trkpt><trkpt lat="45.75929862810354" lon="9.675878150336864"><ele>830.1428571428571</ele><time>2026-03-28T14:09:46Z</time></trkpt><trkpt lat="45.759324257673306" lon="9.67596643805337"><ele>832.0</ele><time>2026-03-28T14:09:54Z</time></trkpt><trkpt lat="45.75938057687793" lon="9.67601969876904"><ele>832.7142857142857</ele><time>2026-03-28T14:09:59Z</time></trkpt><trkpt lat="45.75944001237544" lon="9.676050464318836"><ele>833.4285714285714</ele><time>2026-03-28T14:10:07Z</time></trkpt><trkpt lat="45.7595004820893" lon="9.676021942241794"><ele>834.1428571428571</ele><time>2026-03-28T14:10:17Z</time></trkpt><trkpt lat="45.759576517063145" lon="9.676013396255964"><ele>834.8571428571429</ele><time>2026-03-28T14:10:26Z</time></trkpt><trkpt lat="45.7596429255523" lon="9.676032810549126"><ele>835.5714285714287</ele><time>2026-03-28T14:10:34Z</time></trkpt><trkpt lat="45.759716188817684" lon="9.676064214637426"><ele>836.2857142857143</ele><time>2026-03-28T14:10:42Z</time></trkpt><trkpt lat="45.75977758963774" lon="9.676104467343405"><ele>837.0</ele><time>2026-03-28T14:10:48Z</time></trkpt><trkpt lat="45.7598441269377" lon="9.676113471574162"><ele>837.0</ele><time>2026-03-28T14:10:54Z</time></trkpt><trkpt lat="45.75991841937625" lon="9.676147545977928"><ele>837.0</ele><time>2026-03-28T14:11:02Z</time></trkpt><trkpt lat="45.759988670044464" lon="9.676149439706043"><ele>837.0</ele><time>2026-03-28T14:11:08Z</time></trkpt><trkpt lat="45.76005385478892" lon="9.676125031270592"><ele>837.0</ele><time>2026-03-28T14:11:14.999Z</time></trkpt><trkpt lat="45.760116682973454" lon="9.676164067311891"><ele>837.0</ele><time>2026-03-28T14:11:24.999Z</time></trkpt><trkpt lat="45.76018318978409" lon="9.6761176951468"><ele>837.0</ele><time>2026-03-28T14:11:30.999Z</time></trkpt><trkpt lat="45.76025709666528" lon="9.676106444431136"><ele>837.0</ele><time>2026-03-28T14:11:41Z</time></trkpt><trkpt lat="45.76032377927432" lon="9.676114012051498"><ele>840.0</ele><time>2026-03-28T14:11:50Z</time></trkpt><trkpt lat="45.76041926824792" lon="9.676115084347837"><ele>843.0</ele><time>2026-03-28T14:11:55Z</time></trkpt><trkpt lat="45.76048995630684" lon="9.676094262068023"><ele>846.0</ele><time>2026-03-28T14:12:04Z</time></trkpt><trkpt lat="45.76055812256053" lon="9.676131277353937"><ele>849.0</ele><time>2026-03-28T14:12:10Z</time></trkpt><trkpt lat="45.76062434352852" lon="9.676146722720642"><ele>852.0</ele><time>2026-03-28T14:12:15Z</time></trkpt><trkpt lat="45.760688417406186" lon="9.676168626305632"><ele>855.0</ele><time>2026-03-28T14:12:20Z</time></trkpt><trkpt lat="45.76075318143279" lon="9.676146420676897"><ele>858.0</ele><time>2026-03-28T14:12:28Z</time></trkpt><trkpt lat="45.76081538684299" lon="9.676116094381157"><ele>858.0</ele><time>2026-03-28T14:12:39Z</time></trkpt><trkpt lat="45.7608873366789" lon="9.67610979683198"><ele>858.0</ele><time>2026-03-28T14:12:49Z</time></trkpt><trkpt lat="45.76094844322211" lon="9.676140452744091"><ele>858.0</ele><time>2026-03-28T14:12:55Z</time></trkpt><trkpt lat="45.76100750040886" lon="9.676189062516837"><ele>858.0</ele><time>2026-03-28T14:13:08Z</time></trkpt><trkpt lat="45.76106701723442" lon="9.676235915649334"><ele>858.0</ele><time>2026-03-28T14:13:16Z</time></trkpt><trkpt lat="45.761135480206285" lon="9.676279550408875"><ele>858.0</ele><time>2026-03-28T14:13:23.999Z</time></trkpt><trkpt lat="45.76119686851807" lon="9.676311793836378"><ele>858.0</ele><time>2026-03-28T14:13:30.999Z</time></trkpt><trkpt lat="45.76126751175572" lon="9.676358934159115"><ele>859.8571428571429</ele><time>2026-03-28T14:13:40.999Z</time></trkpt><trkpt lat="45.76133226303204" lon="9.676376911238737"><ele>861.7142857142858</ele><time>2026-03-28T14:13:53Z</time></trkpt><trkpt lat="45.76139725926751" lon="9.676358104640766"><ele>863.5714285714286</ele><time>2026-03-28T14:14:00Z</time></trkpt><trkpt lat="45.761420674738986" lon="9.676251409646488"><ele>865.4285714285714</ele><time>2026-03-28T14:14:04Z</time></trkpt><trkpt lat="45.76144717403783" lon="9.676163671110963"><ele>867.2857142857142</ele><time>2026-03-28T14:14:07Z</time></trkpt><trkpt lat="45.7615069934671" lon="9.676135410244198"><ele>869.1428571428571</ele><time>2026-03-28T14:14:21Z</time></trkpt><trkpt lat="45.76156059238212" lon="9.67608177704233"><ele>871.0</ele><time>2026-03-28T14:15:18Z</time></trkpt><trkpt lat="45.761622334740665" lon="9.676027409552061"><ele>871.7142857142857</ele><time>2026-03-28T14:15:24Z</time></trkpt><trkpt lat="45.76168341396235" lon="9.675980165160482"><ele>872.4285714285713</ele><time>2026-03-28T14:15:31.999Z</time></trkpt><trkpt lat="45.76175322075109" lon="9.675938063896087"><ele>873.1428571428571</ele><time>2026-03-28T14:18:56Z</time></trkpt><trkpt lat="45.761816373411875" lon="9.675872421499964"><ele>873.8571428571429</ele><time>2026-03-28T14:19:09Z</time></trkpt><trkpt lat="45.76188575428135" lon="9.675864606489442"><ele>874.5714285714286</ele><time>2026-03-28T14:20:53Z</time></trkpt><trkpt lat="45.7619188869644" lon="9.675949552298345"><ele>875.2857142857143</ele><time>2026-03-28T14:21:23Z</time></trkpt><trkpt lat="45.761977008069266" lon="9.675905765503886"><ele>876.0</ele><time>2026-03-28T14:21:28Z</time></trkpt><trkpt lat="45.762036050953554" lon="9.675944263945278"><ele>876.0</ele><time>2026-03-28T14:21:39Z</time></trkpt><trkpt lat="45.76211167331069" lon="9.675900742488285"><ele>876.0</ele><time>2026-03-28T14:21:47Z</time></trkpt><trkpt lat="45.762178484212235" lon="9.675928675905249"><ele>876.0</ele><time>2026-03-28T14:22:00Z</time></trkpt><trkpt lat="45.762251514014" lon="9.675927066341805"><ele>876.0</ele><time>2026-03-28T14:22:05.999Z</time></trkpt><trkpt lat="45.762331411673465" lon="9.675916179086702"><ele>876.0</ele><time>2026-03-28T14:22:21Z</time></trkpt><trkpt lat="45.76239892951011" lon="9.675930041051668"><ele>876.0</ele><time>2026-03-28T14:22:29Z</time></trkpt><trkpt lat="45.762463978239005" lon="9.675949392757934"><ele>876.0</ele><time>2026-03-28T14:22:55Z</time></trkpt><trkpt lat="45.76253174273573" lon="9.67590791835566"><ele>876.0</ele><time>2026-03-28T14:23:08Z</time></trkpt><trkpt lat="45.76260696127361" lon="9.675934628076423"><ele>876.0</ele><time>2026-03-28T14:23:15Z</time></trkpt><trkpt lat="45.76267463926414" lon="9.675940471717615"><ele>876.0</ele><time>2026-03-28T14:23:25Z</time></trkpt><trkpt lat="45.762738760163245" lon="9.675908099362921"><ele>876.0</ele><time>2026-03-28T14:23:34Z</time></trkpt><trkpt lat="45.76279943865129" lon="9.675954972294875"><ele>876.0</ele><time>2026-03-28T14:23:44Z</time></trkpt><trkpt lat="45.76287684213931" lon="9.675947177595756"><ele>876.0</ele><time>2026-03-28T14:23:51Z</time></trkpt><trkpt lat="45.76293959866453" lon="9.675912602128072"><ele>876.0</ele><time>2026-03-28T14:24:01Z</time></trkpt><trkpt lat="45.763011925626806" lon="9.67593170441165"><ele>879.2857142857143</ele><time>2026-03-28T14:24:09Z</time></trkpt><trkpt lat="45.76308377902243" lon="9.675927438915009"><ele>882.5714285714284</ele><time>2026-03-28T14:24:27Z</time></trkpt><trkpt lat="45.76316268596495" lon="9.675946786325321"><ele>885.8571428571428</ele><time>2026-03-28T14:24:48Z</time></trkpt><trkpt lat="45.76323958441772" lon="9.67596939942208"><ele>889.1428571428571</ele><time>2026-03-28T14:24:55Z</time></trkpt><trkpt lat="45.76331363287282" lon="9.675940066878468"><ele>892.4285714285713</ele><time>2026-03-28T14:25:28Z</time></trkpt><trkpt lat="45.76336613788814" lon="9.675881667715583"><ele>895.7142857142856</ele><time>2026-03-28T14:25:36Z</time></trkpt><trkpt lat="45.76343776122772" lon="9.675894668274754"><ele>898.9999999999999</ele><time>2026-03-28T14:25:42Z</time></trkpt><trkpt lat="45.76349922289935" lon="9.675920497215298"><ele>903.2857142857142</ele><time>2026-03-28T14:25:48Z</time></trkpt><trkpt lat="45.763572702150284" lon="9.67594058676259"><ele>907.5714285714286</ele><time>2026-03-28T14:25:54Z</time></trkpt><trkpt lat="45.76362578248704" lon="9.675880981111797"><ele>911.8571428571429</ele><time>2026-03-28T14:25:59Z</time></trkpt><trkpt lat="45.763663635973714" lon="9.67580046949899"><ele>916.1428571428571</ele><time>2026-03-28T14:26:01Z</time></trkpt><trkpt lat="45.76373288595713" lon="9.675765064107326"><ele>920.4285714285716</ele><time>2026-03-28T14:26:08Z</time></trkpt><trkpt lat="45.76377640185446" lon="9.67568887191105"><ele>924.7142857142858</ele><time>2026-03-28T14:26:15Z</time></trkpt><trkpt lat="45.76384046537083" lon="9.675663988343542"><ele>929.0</ele><time>2026-03-28T14:26:18Z</time></trkpt><trkpt lat="45.76390899600418" lon="9.675629365532329"><ele>929.0</ele><time>2026-03-28T14:26:22Z</time></trkpt><trkpt lat="45.763974860524286" lon="9.675585342914703"><ele>929.0000000000001</ele><time>2026-03-28T14:26:26Z</time></trkpt><trkpt lat="45.764012381845006" lon="9.675511364926784"><ele>929.0</ele><time>2026-03-28T14:26:30Z</time></trkpt><trkpt lat="45.7640849319293" lon="9.67547028227304"><ele>929.0</ele><time>2026-03-28T14:26:35Z</time></trkpt><trkpt lat="45.7641474467029" lon="9.675399008553597"><ele>929.0000000000001</ele><time>2026-03-28T14:26:44Z</time></trkpt><trkpt lat="45.76419560512879" lon="9.675323082477652"><ele>929.0</ele><time>2026-03-28T14:26:50Z</time></trkpt><trkpt lat="45.76422887422256" lon="9.675233612675772"><ele>929.0</ele><time>2026-03-28T14:26:56Z</time></trkpt><trkpt lat="45.76428931381821" lon="9.675267311015359"><ele>927.4285714285714</ele><time>2026-03-28T14:27:00Z</time></trkpt><trkpt lat="45.76435234195534" lon="9.675220577298756"><ele>925.8571428571429</ele><time>2026-03-28T14:27:05Z</time></trkpt><trkpt lat="45.76441559258632" lon="9.675265379387854"><ele>924.2857142857143</ele><time>2026-03-28T14:27:10Z</time></trkpt><trkpt lat="45.76448981955453" lon="9.675248232976944"><ele>922.7142857142858</ele><time>2026-03-28T14:27:15Z</time></trkpt><trkpt lat="45.76456388007331" lon="9.675240646354577"><ele>921.1428571428571</ele><time>2026-03-28T14:27:20Z</time></trkpt><trkpt lat="45.76463517783422" lon="9.675216398541187"><ele>919.5714285714287</ele><time>2026-03-28T14:27:25Z</time></trkpt><trkpt lat="45.76470451024389" lon="9.675211715358174"><ele>918.0</ele><time>2026-03-28T14:27:30Z</time></trkpt><trkpt lat="45.76477692802099" lon="9.675220978010811"><ele>918.0</ele><time>2026-03-28T14:27:35Z</time></trkpt><trkpt lat="45.76484424190825" lon="9.675256792851979"><ele>918.0</ele><time>2026-03-28T14:27:40Z</time></trkpt><trkpt lat="45.76492121711459" lon="9.675260493186958"><ele>918.0</ele><time>2026-03-28T14:27:45Z</time></trkpt><trkpt lat="45.76498082595368" lon="9.675325367768899"><ele>918.0</ele><time>2026-03-28T14:27:50Z</time></trkpt><trkpt lat="45.76505439786751" lon="9.675318159721028"><ele>918.0</ele><time>2026-03-28T14:27:55Z</time></trkpt><trkpt lat="45.76512783409974" lon="9.675301057897212"><ele>918.0</ele><time>2026-03-28T14:28:00Z</time></trkpt><trkpt lat="45.76522365823761" lon="9.67524299188131"><ele>920.6666666666666</ele><time>2026-03-28T14:28:04Z</time></trkpt><trkpt lat="45.76530780193384" lon="9.675208944903305"><ele>923.3333333333333</ele><time>2026-03-28T14:28:06Z</time></trkpt><trkpt lat="45.765365470903696" lon="9.675141625944343"><ele>926.0</ele><time>2026-03-28T14:28:08Z</time></trkpt><trkpt lat="45.7654145467881" lon="9.675068068332479"><ele>928.6666666666666</ele><time>2026-03-28T14:28:10Z</time></trkpt><trkpt lat="45.765487207448636" lon="9.675012233711628"><ele>931.3333333333333</ele><time>2026-03-28T14:28:13Z</time></trkpt><trkpt lat="45.76553604906361" lon="9.674952650780538"><ele>934.0</ele><time>2026-03-28T14:28:15Z</time></trkpt><trkpt lat="45.76560043864823" lon="9.674884211491618"><ele>933.9999999999999</ele><time>2026-03-28T14:28:30Z</time></trkpt><trkpt lat="45.76565815301266" lon="9.674762912766473"><ele>934.0</ele><time>2026-03-28T14:28:33Z</time></trkpt><trkpt lat="45.765705625822456" lon="9.674631397252735"><ele>934.0</ele><time>2026-03-28T14:28:36Z</time></trkpt><trkpt lat="45.76576999180018" lon="9.674546107932269"><ele>934.0</ele><time>2026-03-28T14:28:38Z</time></trkpt><trkpt lat="45.76582425112788" lon="9.674484874559676"><ele>933.9999999999999</ele><time>2026-03-28T14:28:40Z</time></trkpt><trkpt lat="45.76587180777568" lon="9.674419628059123"><ele>934.0</ele><time>2026-03-28T14:28:42Z</time></trkpt><trkpt lat="45.765924646628804" lon="9.674304663960868"><ele>934.8571428571427</ele><time>2026-03-28T14:28:45Z</time></trkpt><trkpt lat="45.76597581170801" lon="9.674243244067316"><ele>935.7142857142857</ele><time>2026-03-28T14:28:47Z</time></trkpt><trkpt lat="45.76602285553049" lon="9.674182231266917"><ele>936.5714285714284</ele><time>2026-03-28T14:28:49Z</time></trkpt><trkpt lat="45.76609088382846" lon="9.674103587006773"><ele>937.4285714285713</ele><time>2026-03-28T14:28:55Z</time></trkpt><trkpt lat="45.766149858000695" lon="9.674027550474282"><ele>938.2857142857142</ele><time>2026-03-28T14:29:01Z</time></trkpt><trkpt lat="45.76620513064601" lon="9.673971450150729"><ele>939.1428571428571</ele><time>2026-03-28T14:29:06Z</time></trkpt><trkpt lat="45.76625518409079" lon="9.67391671769926"><ele>940.0</ele><time>2026-03-28T14:29:09Z</time></trkpt><trkpt lat="45.76629821572629" lon="9.673838851593079"><ele>940.0</ele><time>2026-03-28T14:29:22Z</time></trkpt><trkpt lat="45.76635855486664" lon="9.67376417007635"><ele>939.9999999999999</ele><time>2026-03-28T14:29:29Z</time></trkpt><trkpt lat="45.76639975495252" lon="9.673693047744024"><ele>940.0</ele><time>2026-03-28T14:29:33Z</time></trkpt><trkpt lat="45.76641384591866" lon="9.673600440679849"><ele>940.0</ele><time>2026-03-28T14:29:37Z</time></trkpt><trkpt lat="45.766451394154" lon="9.673525390506164"><ele>939.9999999999999</ele><time>2026-03-28T14:29:45Z</time></trkpt><trkpt lat="45.7664843112501" lon="9.673423712171449"><ele>940.0</ele><time>2026-03-28T14:29:50Z</time></trkpt><trkpt lat="45.76653027642351" lon="9.67333626892762"><ele>940.0</ele><time>2026-03-28T14:29:55Z</time></trkpt><trkpt lat="45.766570586494566" lon="9.67325955915004"><ele>936.4285714285713</ele><time>2026-03-28T14:30:00Z</time></trkpt><trkpt lat="45.7666030388334" lon="9.673180403659467"><ele>932.8571428571428</ele><time>2026-03-28T14:30:04Z</time></trkpt><trkpt lat="45.76663349909165" lon="9.673090398168094"><ele>929.2857142857142</ele><time>2026-03-28T14:30:09Z</time></trkpt><trkpt lat="45.7666590051998" lon="9.67300575492865"><ele>925.7142857142858</ele><time>2026-03-28T14:30:13Z</time></trkpt><trkpt lat="45.76668272794865" lon="9.672906949651791"><ele>922.1428571428572</ele><time>2026-03-28T14:30:19Z</time></trkpt><trkpt lat="45.766708130964716" lon="9.672817838621892"><ele>918.5714285714287</ele><time>2026-03-28T14:30:24Z</time></trkpt><trkpt lat="45.76672410153217" lon="9.672716909888653"><ele>915.0</ele><time>2026-03-28T14:30:29Z</time></trkpt><trkpt lat="45.76675384127492" lon="9.672636979656403"><ele>912.2857142857143</ele><time>2026-03-28T14:30:33Z</time></trkpt><trkpt lat="45.766766152719256" lon="9.672544553477408"><ele>909.5714285714287</ele><time>2026-03-28T14:30:38Z</time></trkpt><trkpt lat="45.76679246706635" lon="9.672458919229166"><ele>906.8571428571429</ele><time>2026-03-28T14:30:42Z</time></trkpt><trkpt lat="45.76679947168311" lon="9.672358970702378"><ele>904.1428571428571</ele><time>2026-03-28T14:30:49Z</time></trkpt><trkpt lat="45.7668327103514" lon="9.672278276614588"><ele>901.4285714285714</ele><time>2026-03-28T14:30:54Z</time></trkpt><trkpt lat="45.76685101133156" lon="9.672187775852322"><ele>898.7142857142858</ele><time>2026-03-28T14:31:01Z</time></trkpt><trkpt lat="45.76687064723962" lon="9.672094933293396"><ele>896.0</ele><time>2026-03-28T14:31:05Z</time></trkpt><trkpt lat="45.76688645875478" lon="9.67199576424298"><ele>902.1428571428571</ele><time>2026-03-28T14:31:10Z</time></trkpt><trkpt lat="45.7668992993008" lon="9.671873722131648"><ele>908.2857142857142</ele><time>2026-03-28T14:31:16Z</time></trkpt><trkpt lat="45.76689882147742" lon="9.671753685561814"><ele>914.4285714285714</ele><time>2026-03-28T14:31:21Z</time></trkpt><trkpt lat="45.766901556480754" lon="9.671660299338734"><ele>920.5714285714286</ele><time>2026-03-28T14:31:25Z</time></trkpt><trkpt lat="45.76690723449162" lon="9.671557661418372"><ele>926.7142857142857</ele><time>2026-03-28T14:31:30Z</time></trkpt><trkpt lat="45.7669354739244" lon="9.67146513592524"><ele>932.8571428571429</ele><time>2026-03-28T14:31:36Z</time></trkpt><trkpt lat="45.76691314097388" lon="9.671368648369477"><ele>939.0</ele><time>2026-03-28T14:31:52Z</time></trkpt><trkpt lat="45.76694162897043" lon="9.671285152060712"><ele>939.0</ele><time>2026-03-28T14:32:00Z</time></trkpt><trkpt lat="45.76694948472176" lon="9.671191507307066"><ele>939.0</ele><time>2026-03-28T14:32:06Z</time></trkpt><trkpt lat="45.76698202587916" lon="9.671081198731235"><ele>939.0</ele><time>2026-03-28T14:32:15Z</time></trkpt><trkpt lat="45.766994574636634" lon="9.670980325202317"><ele>939.0</ele><time>2026-03-28T14:32:20Z</time></trkpt><trkpt lat="45.76699545480097" lon="9.670883461821484"><ele>939.0</ele><time>2026-03-28T14:32:25Z</time></trkpt><trkpt lat="45.76702583161889" lon="9.670790460263511"><ele>939.0</ele><time>2026-03-28T14:32:30Z</time></trkpt><trkpt lat="45.767029663986655" lon="9.670683784368542"><ele>939.0</ele><time>2026-03-28T14:32:36Z</time></trkpt><trkpt lat="45.76704509869048" lon="9.670594513318258"><ele>939.7142857142858</ele><time>2026-03-28T14:32:43Z</time></trkpt><trkpt lat="45.76703417291871" lon="9.670484466356468"><ele>940.4285714285713</ele><time>2026-03-28T14:32:49Z</time></trkpt><trkpt lat="45.76701883247062" lon="9.670387051446816"><ele>941.1428571428571</ele><time>2026-03-28T14:32:54Z</time></trkpt><trkpt lat="45.76699411328373" lon="9.670303482299424"><ele>941.8571428571429</ele><time>2026-03-28T14:32:57Z</time></trkpt><trkpt lat="45.766937546956214" lon="9.670233063624593"><ele>942.5714285714287</ele><time>2026-03-28T14:33:02Z</time></trkpt><trkpt lat="45.766929512720615" lon="9.670128515002347"><ele>943.2857142857142</ele><time>2026-03-28T14:33:07Z</time></trkpt><trkpt lat="45.766947364987715" lon="9.67002887538757"><ele>944.0</ele><time>2026-03-28T14:33:13Z</time></trkpt><trkpt lat="45.76694641382941" lon="9.66992194536049"><ele>938.5714285714286</ele><time>2026-03-28T14:33:18Z</time></trkpt><trkpt lat="45.7669238865454" lon="9.669835516838752"><ele>933.1428571428571</ele><time>2026-03-28T14:33:23Z</time></trkpt><trkpt lat="45.76690648295969" lon="9.669744839519867"><ele>927.7142857142857</ele><time>2026-03-28T14:33:28Z</time></trkpt><trkpt lat="45.766870471799585" lon="9.66967051560171"><ele>922.2857142857142</ele><time>2026-03-28T14:33:33Z</time></trkpt><trkpt lat="45.76683494966186" lon="9.66958833417168"><ele>916.8571428571429</ele><time>2026-03-28T14:33:40Z</time></trkpt><trkpt lat="45.76682484514052" lon="9.66949712795085"><ele>911.4285714285713</ele><time>2026-03-28T14:33:47Z</time></trkpt><trkpt lat="45.766762893024605" lon="9.669466904862839"><ele>905.9999999999999</ele><time>2026-03-28T14:33:55Z</time></trkpt><trkpt lat="45.76675916067139" lon="9.669363705338867"><ele>905.9999999999999</ele><time>2026-03-28T14:34:09Z</time></trkpt><trkpt lat="45.76676994713178" lon="9.669274290476856"><ele>906.0</ele><time>2026-03-28T14:34:16Z</time></trkpt><trkpt lat="45.76677691622195" lon="9.669174212863076"><ele>905.9999999999999</ele><time>2026-03-28T14:34:25Z</time></trkpt><trkpt lat="45.76670755002195" lon="9.669101167534649"><ele>905.9999999999999</ele><time>2026-03-28T14:34:31Z</time></trkpt><trkpt lat="45.76670153183582" lon="9.669004184631087"><ele>906.0</ele><time>2026-03-28T14:34:40Z</time></trkpt><trkpt lat="45.766699653674614" lon="9.668913428788976"><ele>905.9999999999999</ele><time>2026-03-28T14:34:49Z</time></trkpt><trkpt lat="45.76667903591634" lon="9.668821831579685"><ele>905.9999999999999</ele><time>2026-03-28T14:34:58Z</time></trkpt><trkpt lat="45.766623467714865" lon="9.668766457478618"><ele>905.9999999999999</ele><time>2026-03-28T14:35:05Z</time></trkpt><trkpt lat="45.76663170409442" lon="9.668668443563897"><ele>906.0</ele><time>2026-03-28T14:35:14Z</time></trkpt><trkpt lat="45.76656982524811" lon="9.668600911837126"><ele>905.9999999999999</ele><time>2026-03-28T14:35:21Z</time></trkpt><trkpt lat="45.76650789079854" lon="9.668553431824261"><ele>905.9999999999999</ele><time>2026-03-28T14:35:32Z</time></trkpt><trkpt lat="45.76644054232042" lon="9.668517734126977"><ele>906.0</ele><time>2026-03-28T14:35:39Z</time></trkpt><trkpt lat="45.766401958052484" lon="9.668444038313094"><ele>905.9999999999999</ele><time>2026-03-28T14:35:46Z</time></trkpt><trkpt lat="45.766357949362465" lon="9.66837907815755"><ele>905.9999999999999</ele><time>2026-03-28T14:35:57Z</time></trkpt><trkpt lat="45.7663129975427" lon="9.668305663886917"><ele>909.9999999999999</ele><time>2026-03-28T14:36:02Z</time></trkpt><trkpt lat="45.76625465067394" lon="9.66821980537053"><ele>914.0</ele><time>2026-03-28T14:36:16Z</time></trkpt><trkpt lat="45.76620855576843" lon="9.668157710852308"><ele>917.9999999999999</ele><time>2026-03-28T14:36:22Z</time></trkpt><trkpt lat="45.766222508630236" lon="9.668067825061918"><ele>921.9999999999999</ele><time>2026-03-28T14:36:30Z</time></trkpt><trkpt lat="45.766158142518584" lon="9.66804474832494"><ele>926.0</ele><time>2026-03-28T14:36:38Z</time></trkpt><trkpt lat="45.76608516014282" lon="9.668024292988978"><ele>929.9999999999999</ele><time>2026-03-28T14:36:41Z</time></trkpt><trkpt lat="45.766080990101045" lon="9.667926970530644"><ele>933.9999999999999</ele><time>2026-03-28T14:36:46Z</time></trkpt><trkpt lat="45.76605352210212" lon="9.667837914754479"><ele>934.8333333333333</ele><time>2026-03-28T14:36:53Z</time></trkpt><trkpt lat="45.765998596432546" lon="9.667786151522563"><ele>935.6666666666666</ele><time>2026-03-28T14:37:00Z</time></trkpt><trkpt lat="45.7659448467431" lon="9.667734404950165"><ele>936.5</ele><time>2026-03-28T14:37:06Z</time></trkpt><trkpt lat="45.76592846253838" lon="9.667639958612638"><ele>937.3333333333333</ele><time>2026-03-28T14:37:16Z</time></trkpt><trkpt lat="45.76587970584952" lon="9.667548692145449"><ele>938.1666666666666</ele><time>2026-03-28T14:37:29Z</time></trkpt><trkpt lat="45.765817382965174" lon="9.667485274065188"><ele>939.0</ele><time>2026-03-28T14:37:40Z</time></trkpt><trkpt lat="45.765791097597806" lon="9.667354687070288"><ele>939.0</ele><time>2026-03-28T14:37:53Z</time></trkpt><trkpt lat="45.76576361496789" lon="9.66726961923095"><ele>939.0</ele><time>2026-03-28T14:38:04Z</time></trkpt><trkpt lat="45.76576316706507" lon="9.667165730013293"><ele>939.0</ele><time>2026-03-28T14:38:15Z</time></trkpt><trkpt lat="45.76571859696647" lon="9.667086077292032"><ele>939.0</ele><time>2026-03-28T14:38:26Z</time></trkpt><trkpt lat="45.76569007015372" lon="9.666999829092248"><ele>939.0</ele><time>2026-03-28T14:38:35Z</time></trkpt><trkpt lat="45.76565330528316" lon="9.66677595102643"><ele>939.0</ele><time>2026-03-28T14:39:05Z</time></trkpt><trkpt lat="45.76572078713652" lon="9.666817058728817"><ele>939.7142857142858</ele><time>2026-03-28T14:39:11Z</time></trkpt><trkpt lat="45.76573773289214" lon="9.66690506454578"><ele>940.4285714285713</ele><time>2026-03-28T14:40:16Z</time></trkpt><trkpt lat="45.765796728850745" lon="9.666869304145017"><ele>941.1428571428571</ele><time>2026-03-28T14:41:10Z</time></trkpt><trkpt lat="45.76586233176198" lon="9.666887964342179"><ele>941.8571428571429</ele><time>2026-03-28T14:41:18Z</time></trkpt><trkpt lat="45.76592364868366" lon="9.666865692559325"><ele>942.5714285714287</ele><time>2026-03-28T14:41:35Z</time></trkpt><trkpt lat="45.76599376572006" lon="9.66690310385179"><ele>943.2857142857142</ele><time>2026-03-28T14:41:56Z</time></trkpt><trkpt lat="45.76605711701115" lon="9.666913019551398"><ele>944.0</ele><time>2026-03-28T14:42:09Z</time></trkpt><trkpt lat="45.76613365414003" lon="9.666916762953774"><ele>949.2857142857142</ele><time>2026-03-28T14:42:27Z</time></trkpt><trkpt lat="45.76620330023212" lon="9.666905749155124"><ele>954.5714285714287</ele><time>2026-03-28T14:42:42Z</time></trkpt><trkpt lat="45.76625148506367" lon="9.66682981784597"><ele>959.8571428571429</ele><time>2026-03-28T14:44:18Z</time></trkpt><trkpt lat="45.76631623787757" lon="9.6668154385079"><ele>965.1428571428571</ele><time>2026-03-28T14:44:57Z</time></trkpt><trkpt lat="45.76638718190107" lon="9.666815528453515"><ele>970.4285714285713</ele><time>2026-03-28T14:45:38Z</time></trkpt><trkpt lat="45.766458549731475" lon="9.666776965300471"><ele>975.7142857142858</ele><time>2026-03-28T14:45:51Z</time></trkpt><trkpt lat="45.76653440701076" lon="9.666786035102609"><ele>981.0</ele><time>2026-03-28T14:46:17Z</time></trkpt><trkpt lat="45.76660006572878" lon="9.666820946624025"><ele>981.0</ele><time>2026-03-28T14:46:29Z</time></trkpt><trkpt lat="45.766671594092934" lon="9.666815490172368"><ele>981.0</ele><time>2026-03-28T14:46:43Z</time></trkpt><trkpt lat="45.76674216498383" lon="9.666826076750155"><ele>981.0</ele><time>2026-03-28T14:47:00Z</time></trkpt><trkpt lat="45.76679526211539" lon="9.666879523297753"><ele>981.0</ele><time>2026-03-28T14:47:23Z</time></trkpt><trkpt lat="45.7668635949378" lon="9.666880007402971"><ele>981.0</ele><time>2026-03-28T14:48:04Z</time></trkpt><trkpt lat="45.76692022267968" lon="9.66691970492525"><ele>981.0</ele><time>2026-03-28T14:48:31Z</time></trkpt><trkpt lat="45.76696369266574" lon="9.666835251625722"><ele>981.0</ele><time>2026-03-28T14:48:39Z</time></trkpt><trkpt lat="45.76702500487789" lon="9.666876416580976"><ele>985.5714285714287</ele><time>2026-03-28T14:49:12.999Z</time></trkpt><trkpt lat="45.76708467937487" lon="9.666846902632885"><ele>990.1428571428571</ele><time>2026-03-28T14:49:30Z</time></trkpt><trkpt lat="45.76715064428606" lon="9.666837090748267"><ele>994.7142857142858</ele><time>2026-03-28T14:49:46Z</time></trkpt><trkpt lat="45.76721302813932" lon="9.66686135294655"><ele>999.2857142857143</ele><time>2026-03-28T14:50:00Z</time></trkpt><trkpt lat="45.767278532534846" lon="9.666848688322611"><ele>1003.8571428571429</ele><time>2026-03-28T14:50:20Z</time></trkpt><trkpt lat="45.76736610992817" lon="9.666858717547191"><ele>1008.4285714285714</ele><time>2026-03-28T14:50:38Z</time></trkpt><trkpt lat="45.76744536291362" lon="9.666835356258606"><ele>1013.0</ele><time>2026-03-28T14:51:20.999Z</time></trkpt><trkpt lat="45.76750918363773" lon="9.666839020943302"><ele>1013.0</ele><time>2026-03-28T14:51:42Z</time></trkpt><trkpt lat="45.76758411552696" lon="9.666849213675476"><ele>1013.0000000000001</ele><time>2026-03-28T14:52:02Z</time></trkpt><trkpt lat="45.76765621203628" lon="9.66683990501058"><ele>1013.0</ele><time>2026-03-28T14:52:15Z</time></trkpt><trkpt lat="45.76771668538697" lon="9.66679068818607"><ele>1013.0</ele><time>2026-03-28T14:52:26Z</time></trkpt><trkpt lat="45.767777801707446" lon="9.666837430807671"><ele>1013.0000000000001</ele><time>2026-03-28T14:52:38Z</time></trkpt><trkpt lat="45.76784437440331" lon="9.666874018913582"><ele>1013.0</ele><time>2026-03-28T14:52:47Z</time></trkpt><trkpt lat="45.767896667327825" lon="9.666933147884015"><ele>1013.0</ele><time>2026-03-28T14:52:57Z</time></trkpt><trkpt lat="45.76796227928211" lon="9.666945363701215"><ele>1015.8571428571429</ele><time>2026-03-28T14:53:34.999Z</time></trkpt><trkpt lat="45.76803525754472" lon="9.666917515638126"><ele>1018.7142857142858</ele><time>2026-03-28T14:53:44Z</time></trkpt><trkpt lat="45.768056072012726" lon="9.667010425477399"><ele>1021.5714285714287</ele><time>2026-03-28T14:53:55Z</time></trkpt><trkpt lat="45.768118971947544" lon="9.667033521330534"><ele>1024.4285714285716</ele><time>2026-03-28T14:54:03Z</time></trkpt><trkpt lat="45.768186158008795" lon="9.667090559276545"><ele>1027.2857142857142</ele><time>2026-03-28T14:54:08Z</time></trkpt><trkpt lat="45.76825856192096" lon="9.667067563286642"><ele>1030.1428571428573</ele><time>2026-03-28T14:54:21Z</time></trkpt><trkpt lat="45.76831977415657" lon="9.667097253440614"><ele>1033.0</ele><time>2026-03-28T14:54:33Z</time></trkpt><trkpt lat="45.768385868606856" lon="9.667106582887941"><ele>1033.1428571428573</ele><time>2026-03-28T14:54:39.999Z</time></trkpt><trkpt lat="45.76845190636403" lon="9.667138079458356"><ele>1033.2857142857142</ele><time>2026-03-28T14:54:46.999Z</time></trkpt><trkpt lat="45.768520365081955" lon="9.667125013658683"><ele>1033.4285714285716</ele><time>2026-03-28T14:54:57.999Z</time></trkpt><trkpt lat="45.76858252665421" lon="9.667150315627495"><ele>1033.5714285714287</ele><time>2026-03-28T14:55:27.999Z</time></trkpt><trkpt lat="45.76864120032565" lon="9.667197519230445"><ele>1033.7142857142858</ele><time>2026-03-28T14:55:34.999Z</time></trkpt><trkpt lat="45.76868013130118" lon="9.667294537602064"><ele>1033.857142857143</ele><time>2026-03-28T14:55:49.999Z</time></trkpt><trkpt lat="45.76873887200971" lon="9.667356285363747"><ele>1034.0</ele><time>2026-03-28T14:55:56.999Z</time></trkpt><trkpt lat="45.76878757674745" lon="9.667437032957475"><ele>1035.2857142857142</ele><time>2026-03-28T14:56:03Z</time></trkpt><trkpt lat="45.76883172229034" lon="9.667523553181363"><ele>1036.5714285714287</ele><time>2026-03-28T14:56:08Z</time></trkpt><trkpt lat="45.76885645988863" lon="9.66761325185483"><ele>1037.857142857143</ele><time>2026-03-28T14:56:13Z</time></trkpt><trkpt lat="45.76892271704146" lon="9.667627284786521"><ele>1039.142857142857</ele><time>2026-03-28T14:56:24Z</time></trkpt><trkpt lat="45.76896334371612" lon="9.667697188559476"><ele>1040.4285714285716</ele><time>2026-03-28T14:56:29Z</time></trkpt><trkpt lat="45.76900838505049" lon="9.667776900949873"><ele>1041.7142857142858</ele><time>2026-03-28T14:56:34Z</time></trkpt><trkpt lat="45.769052703503995" lon="9.667869278182605"><ele>1043.0</ele><time>2026-03-28T14:56:40Z</time></trkpt><trkpt lat="45.769105624719465" lon="9.667936903463833"><ele>1044.4285714285713</ele><time>2026-03-28T14:56:46Z</time></trkpt><trkpt lat="45.76915058215494" lon="9.668003122505775"><ele>1045.857142857143</ele><time>2026-03-28T14:56:55Z</time></trkpt><trkpt lat="45.76910969322238" lon="9.66790867776623"><ele>1047.2857142857142</ele><time>2026-03-28T14:57:33.999Z</time></trkpt><trkpt lat="45.76914182125663" lon="9.667806294577003"><ele>1048.7142857142858</ele><time>2026-03-28T14:57:38.999Z</time></trkpt><trkpt lat="45.76914095480532" lon="9.66792091173838"><ele>1050.142857142857</ele><time>2026-03-28T14:58:19Z</time></trkpt><trkpt lat="45.769168550823515" lon="9.668010949558289"><ele>1051.5714285714284</ele><time>2026-03-28T14:58:26Z</time></trkpt><trkpt lat="45.769232834933966" lon="9.668039586012704"><ele>1053.0</ele><time>2026-03-28T14:58:40Z</time></trkpt><trkpt lat="45.769290316341454" lon="9.668102622595216"><ele>1052.9999999999998</ele><time>2026-03-28T14:58:48Z</time></trkpt><trkpt lat="45.76935307578259" lon="9.668094264772035"><ele>1053.0</ele><time>2026-03-28T14:58:53Z</time></trkpt><trkpt lat="45.769333025033006" lon="9.668182692791534"><ele>1053.0</ele><time>2026-03-28T14:59:10Z</time></trkpt><trkpt lat="45.76936486159099" lon="9.668265000474534"><ele>1053.0</ele><time>2026-03-28T14:59:16Z</time></trkpt><trkpt lat="45.769389454501955" lon="9.668353393703466"><ele>1053.0</ele><time>2026-03-28T14:59:35Z</time></trkpt><trkpt lat="45.769436515272666" lon="9.668421874415488"><ele>1052.9999999999998</ele><time>2026-03-28T14:59:45Z</time></trkpt><trkpt lat="45.769499825461935" lon="9.668466455227087"><ele>1053.0</ele><time>2026-03-28T15:00:02Z</time></trkpt><trkpt lat="45.76952762153069" lon="9.66855902550553"><ele>1060.2857142857142</ele><time>2026-03-28T15:00:19Z</time></trkpt><trkpt lat="45.76955154815058" lon="9.668663640930676"><ele>1067.5714285714284</ele><time>2026-03-28T15:00:24Z</time></trkpt><trkpt lat="45.76961612620877" lon="9.66868091340538"><ele>1074.857142857143</ele><time>2026-03-28T15:00:31Z</time></trkpt><trkpt lat="45.769672737544845" lon="9.668754811255106"><ele>1082.142857142857</ele><time>2026-03-28T15:00:59Z</time></trkpt><trkpt lat="45.76973954849571" lon="9.668807753288725"><ele>1089.4285714285716</ele><time>2026-03-28T15:01:14Z</time></trkpt><trkpt lat="45.76977144003732" lon="9.668889710239801"><ele>1096.7142857142858</ele><time>2026-03-28T15:01:32Z</time></trkpt><trkpt lat="45.76975518577229" lon="9.668984182841976"><ele>1104.0</ele><time>2026-03-28T15:02:05Z</time></trkpt><trkpt lat="45.769780499776424" lon="9.669070143933181"><ele>1104.0</ele><time>2026-03-28T15:02:15Z</time></trkpt><trkpt lat="45.769829485568636" lon="9.669128614948564"><ele>1104.0</ele><time>2026-03-28T15:02:30Z</time></trkpt><trkpt lat="45.76985443249168" lon="9.669220044027302"><ele>1104.0</ele><time>2026-03-28T15:02:36Z</time></trkpt><trkpt lat="45.76991313086736" lon="9.669254071889814"><ele>1104.0</ele><time>2026-03-28T15:02:51Z</time></trkpt><trkpt lat="45.769945301262496" lon="9.669338308381198"><ele>1104.0</ele><time>2026-03-28T15:03:02Z</time></trkpt><trkpt lat="45.76994235849726" lon="9.669433510703522"><ele>1104.0</ele><time>2026-03-28T15:03:12Z</time></trkpt><trkpt lat="45.770003021231936" lon="9.66947661017797"><ele>1104.0</ele><time>2026-03-28T15:03:54Z</time></trkpt><trkpt lat="45.77000793610561" lon="9.669567944104704"><ele>1117.0</ele><time>2026-03-28T15:04:14Z</time></trkpt><trkpt lat="45.77000424768298" lon="9.669664638113137"><ele>1117.0</ele><time>2026-03-28T15:04:27Z</time></trkpt><trkpt lat="45.77000565593691" lon="9.669768128389276"><ele>1117.0</ele><time>2026-03-28T15:04:41Z</time></trkpt><trkpt lat="45.76999568317738" lon="9.669860643715884"><ele>1117.0</ele><time>2026-03-28T15:04:53Z</time></trkpt><trkpt lat="45.7699835639068" lon="9.669952584496848"><ele>1117.0</ele><time>2026-03-28T15:05:07Z</time></trkpt><trkpt lat="45.769988237764906" lon="9.670042895653655"><ele>1117.0</ele><time>2026-03-28T15:05:16Z</time></trkpt></trkseg><trkseg><trkpt lat="45.77012682443268" lon="9.67001579041999"><ele>1117.0000000000002</ele><time>2026-03-28T15:32:21Z</time></trkpt><trkpt lat="45.770060014791156" lon="9.670045424428691"><ele>1117.0</ele><time>2026-03-28T15:32:27Z</time></trkpt><trkpt lat="45.77002580830537" lon="9.670125116303355"><ele>1117.0</ele><time>2026-03-28T15:32:37.999Z</time></trkpt><trkpt lat="45.77001870688325" lon="9.670222714090187"><ele>1117.0</ele><time>2026-03-28T15:32:50.999Z</time></trkpt><trkpt lat="45.769973726045755" lon="9.67030651441375"><ele>1117.0</ele><time>2026-03-28T15:33:00.999Z</time></trkpt><trkpt lat="45.76994439333758" lon="9.670388348391063"><ele>1117.0000000000002</ele><time>2026-03-28T15:33:07.999Z</time></trkpt><trkpt lat="45.76989432071056" lon="9.67045109926527"><ele>1117.0</ele><time>2026-03-28T15:33:19.999Z</time></trkpt><trkpt lat="45.769894354649026" lon="9.670542961745218"><ele>1116.7142857142858</ele><time>2026-03-28T15:33:25.999Z</time></trkpt><trkpt lat="45.76992612195717" lon="9.67063766461644"><ele>1116.4285714285716</ele><time>2026-03-28T15:33:30.999Z</time></trkpt><trkpt lat="45.769924263765596" lon="9.670738372596931"><ele>1116.142857142857</ele><time>2026-03-28T15:33:34.999Z</time></trkpt><trkpt lat="45.769879581286226" lon="9.670804886277319"><ele>1115.857142857143</ele><time>2026-03-28T15:33:38Z</time></trkpt><trkpt lat="45.769826321636444" lon="9.670897746828699"><ele>1115.5714285714284</ele><time>2026-03-28T15:33:41Z</time></trkpt><trkpt lat="45.76978247293335" lon="9.67096338513176"><ele>1115.2857142857142</ele><time>2026-03-28T15:33:44Z</time></trkpt><trkpt lat="45.76975294437592" lon="9.671060987758436"><ele>1115.0</ele><time>2026-03-28T15:33:47Z</time></trkpt><trkpt lat="45.769733465543446" lon="9.67115263540653"><ele>1112.0</ele><time>2026-03-28T15:33:52Z</time></trkpt><trkpt lat="45.769731680847705" lon="9.671244843920974"><ele>1109.0</ele><time>2026-03-28T15:33:58Z</time></trkpt><trkpt lat="45.76970078758383" lon="9.671340598407635"><ele>1106.0</ele><time>2026-03-28T15:34:02Z</time></trkpt><trkpt lat="45.76969811635145" lon="9.67144259130624"><ele>1103.0</ele><time>2026-03-28T15:34:07Z</time></trkpt><trkpt lat="45.76963745417505" lon="9.67149919460802"><ele>1100.0</ele><time>2026-03-28T15:34:11Z</time></trkpt><trkpt lat="45.76961765526053" lon="9.671605182197801"><ele>1097.0</ele><time>2026-03-28T15:34:14Z</time></trkpt><trkpt lat="45.7696069688436" lon="9.671706146849711"><ele>1094.0</ele><time>2026-03-28T15:34:17Z</time></trkpt><trkpt lat="45.7695476183582" lon="9.671801222605216"><ele>1094.0</ele><time>2026-03-28T15:34:20Z</time></trkpt><trkpt lat="45.76952029494259" lon="9.67189720594761"><ele>1094.0</ele><time>2026-03-28T15:34:23Z</time></trkpt><trkpt lat="45.76948957326387" lon="9.671983027786538"><ele>1094.0</ele><time>2026-03-28T15:34:29Z</time></trkpt><trkpt lat="45.76943751688208" lon="9.672046487979303"><ele>1094.0</ele><time>2026-03-28T15:34:33Z</time></trkpt><trkpt lat="45.76941726400778" lon="9.672149702402418"><ele>1094.0</ele><time>2026-03-28T15:34:36Z</time></trkpt><trkpt lat="45.7693907512442" lon="9.672234058148197"><ele>1094.0</ele><time>2026-03-28T15:34:39Z</time></trkpt><trkpt lat="45.76932939231652" lon="9.672284045619604"><ele>1094.0</ele><time>2026-03-28T15:34:43Z</time></trkpt><trkpt lat="45.769274743342706" lon="9.672367823079343"><ele>1091.2857142857142</ele><time>2026-03-28T15:34:47Z</time></trkpt><trkpt lat="45.76923497386284" lon="9.672456893074575"><ele>1088.5714285714284</ele><time>2026-03-28T15:34:51.999Z</time></trkpt><trkpt lat="45.769200948005185" lon="9.672532872197669"><ele>1085.857142857143</ele><time>2026-03-28T15:34:54.999Z</time></trkpt><trkpt lat="45.76914408258773" lon="9.67258160225139"><ele>1083.142857142857</ele><time>2026-03-28T15:34:57.999Z</time></trkpt><trkpt lat="45.7691134452947" lon="9.672667095990388"><ele>1080.4285714285716</ele><time>2026-03-28T15:34:59.999Z</time></trkpt><trkpt lat="45.76910836627015" lon="9.672792009801942"><ele>1077.7142857142858</ele><time>2026-03-28T15:35:03.999Z</time></trkpt><trkpt lat="45.76905377239002" lon="9.672839893918216"><ele>1075.0</ele><time>2026-03-28T15:35:05.999Z</time></trkpt><trkpt lat="45.76902117029665" lon="9.672920929372587"><ele>1074.6666666666665</ele><time>2026-03-28T15:35:09.999Z</time></trkpt><trkpt lat="45.76899777620376" lon="9.673020797659316"><ele>1074.3333333333333</ele><time>2026-03-28T15:35:11.999Z</time></trkpt><trkpt lat="45.7689437668717" lon="9.67308082976931"><ele>1074.0</ele><time>2026-03-28T15:35:14.999Z</time></trkpt><trkpt lat="45.7689116527321" lon="9.673180327127625"><ele>1073.6666666666667</ele><time>2026-03-28T15:35:17.999Z</time></trkpt><trkpt lat="45.76888099607451" lon="9.673293031866487"><ele>1073.3333333333335</ele><time>2026-03-28T15:35:22.999Z</time></trkpt><trkpt lat="45.768868184226385" lon="9.673400843243321"><ele>1073.0</ele><time>2026-03-28T15:35:25.999Z</time></trkpt><trkpt lat="45.76882062731767" lon="9.673518699575975"><ele>1069.8333333333335</ele><time>2026-03-28T15:35:28.999Z</time></trkpt><trkpt lat="45.76879672237806" lon="9.67360862341763"><ele>1066.6666666666667</ele><time>2026-03-28T15:35:34.999Z</time></trkpt><trkpt lat="45.76874311259107" lon="9.673700010996068"><ele>1063.5</ele><time>2026-03-28T15:35:36.999Z</time></trkpt><trkpt lat="45.76870736804555" lon="9.673794017847657"><ele>1060.3333333333333</ele><time>2026-03-28T15:35:40Z</time></trkpt><trkpt lat="45.76866904712896" lon="9.673899401577618"><ele>1057.1666666666665</ele><time>2026-03-28T15:35:42Z</time></trkpt><trkpt lat="45.76858303780131" lon="9.673950741098947"><ele>1054.0</ele><time>2026-03-28T15:35:45Z</time></trkpt><trkpt lat="45.7685550700712" lon="9.674039775880033"><ele>1053.7142857142858</ele><time>2026-03-28T15:35:47Z</time></trkpt><trkpt lat="45.76852027453447" lon="9.674132430071696"><ele>1053.4285714285716</ele><time>2026-03-28T15:35:52Z</time></trkpt><trkpt lat="45.76845017371366" lon="9.674131355421883"><ele>1053.142857142857</ele><time>2026-03-28T15:35:57Z</time></trkpt><trkpt lat="45.76839101609672" lon="9.674188283449023"><ele>1052.857142857143</ele><time>2026-03-28T15:36:03Z</time></trkpt><trkpt lat="45.76832878831891" lon="9.6742326506374"><ele>1052.5714285714284</ele><time>2026-03-28T15:36:10Z</time></trkpt><trkpt lat="45.768277711133344" lon="9.674304024219314"><ele>1052.2857142857142</ele><time>2026-03-28T15:36:14Z</time></trkpt><trkpt lat="45.76830594493426" lon="9.674401884229473"><ele>1052.0</ele><time>2026-03-28T15:36:20Z</time></trkpt><trkpt lat="45.768281618280334" lon="9.67448701884121"><ele>1052.0</ele><time>2026-03-28T15:36:38Z</time></trkpt><trkpt lat="45.768221133115006" lon="9.674561880786486"><ele>1052.0</ele><time>2026-03-28T15:36:50Z</time></trkpt><trkpt lat="45.76817392488219" lon="9.674650094856917"><ele>1052.0</ele><time>2026-03-28T15:36:56Z</time></trkpt><trkpt lat="45.76816817557931" lon="9.674742513811923"><ele>1052.0</ele><time>2026-03-28T15:37:00.999Z</time></trkpt><trkpt lat="45.76812487842292" lon="9.674823114253932"><ele>1052.0</ele><time>2026-03-28T15:37:06.999Z</time></trkpt><trkpt lat="45.768051621538255" lon="9.674848914061187"><ele>1052.0</ele><time>2026-03-28T15:37:16.999Z</time></trkpt><trkpt lat="45.767988907240024" lon="9.674826391624887"><ele>1052.0</ele><time>2026-03-28T15:37:23.999Z</time></trkpt><trkpt lat="45.76796465754629" lon="9.674928302845824"><ele>1052.0</ele><time>2026-03-28T15:37:40.999Z</time></trkpt><trkpt lat="45.76791366072234" lon="9.675000124932428"><ele>1052.0</ele><time>2026-03-28T15:37:49Z</time></trkpt><trkpt lat="45.767853572653785" lon="9.675035303001922"><ele>1052.0</ele><time>2026-03-28T15:37:55Z</time></trkpt><trkpt lat="45.76780882380735" lon="9.675104427137908"><ele>1052.0</ele><time>2026-03-28T15:38:07Z</time></trkpt><trkpt lat="45.76773891242707" lon="9.675139820463642"><ele>1052.0</ele><time>2026-03-28T15:38:14Z</time></trkpt><trkpt lat="45.76767430211117" lon="9.675165244196467"><ele>1052.0</ele><time>2026-03-28T15:38:19Z</time></trkpt><trkpt lat="45.76760718719692" lon="9.675213638897187"><ele>1052.0</ele><time>2026-03-28T15:38:23Z</time></trkpt><trkpt lat="45.76754353275932" lon="9.675245131791932"><ele>1046.8333333333335</ele><time>2026-03-28T15:38:28Z</time></trkpt><trkpt lat="45.767482458494776" lon="9.675276726256355"><ele>1041.6666666666667</ele><time>2026-03-28T15:38:33Z</time></trkpt><trkpt lat="45.76747392485591" lon="9.675387809611816"><ele>1036.5</ele><time>2026-03-28T15:38:37Z</time></trkpt><trkpt lat="45.767409229216945" lon="9.675465408138578"><ele>1031.3333333333333</ele><time>2026-03-28T15:38:41Z</time></trkpt><trkpt lat="45.76734917962336" lon="9.675502615416248"><ele>1026.1666666666665</ele><time>2026-03-28T15:38:44Z</time></trkpt><trkpt lat="45.76728424499714" lon="9.675572452754594"><ele>1021.0</ele><time>2026-03-28T15:38:47Z</time></trkpt><trkpt lat="45.76724158383687" lon="9.675713845458226"><ele>1021.0</ele><time>2026-03-28T15:38:49Z</time></trkpt><trkpt lat="45.76720053249164" lon="9.675787053680432"><ele>1021.0</ele><time>2026-03-28T15:38:51Z</time></trkpt><trkpt lat="45.76714668049932" lon="9.67583826054918"><ele>1021.0</ele><time>2026-03-28T15:38:53Z</time></trkpt><trkpt lat="45.76708352687308" lon="9.675924784837724"><ele>1021.0</ele><time>2026-03-28T15:38:56Z</time></trkpt><trkpt lat="45.767028197988864" lon="9.675987404958999"><ele>1021.0</ele><time>2026-03-28T15:39:03Z</time></trkpt><trkpt lat="45.76697691319097" lon="9.676082516437548"><ele>1021.0</ele><time>2026-03-28T15:39:06Z</time></trkpt><trkpt lat="45.76691863220026" lon="9.676139801665974"><ele>1021.0</ele><time>2026-03-28T15:39:10Z</time></trkpt><trkpt lat="45.76685402705675" lon="9.676062834780442"><ele>1021.4285714285713</ele><time>2026-03-28T15:39:13Z</time></trkpt><trkpt lat="45.766815928173216" lon="9.676151985894107"><ele>1021.8571428571429</ele><time>2026-03-28T15:39:16Z</time></trkpt><trkpt lat="45.7667769310521" lon="9.676254562178542"><ele>1022.2857142857142</ele><time>2026-03-28T15:39:20Z</time></trkpt><trkpt lat="45.766755440669485" lon="9.676346105494884"><ele>1022.7142857142857</ele><time>2026-03-28T15:39:23Z</time></trkpt><trkpt lat="45.766721233180995" lon="9.676438329956609"><ele>1023.1428571428571</ele><time>2026-03-28T15:39:27Z</time></trkpt><trkpt lat="45.76668515203025" lon="9.676536107251037"><ele>1023.5714285714286</ele><time>2026-03-28T15:39:30.999Z</time></trkpt><trkpt lat="45.76667238789889" lon="9.676641057614942"><ele>1024.0</ele><time>2026-03-28T15:39:34.999Z</time></trkpt><trkpt lat="45.7666419155661" lon="9.67674264797226"><ele>1024.0</ele><time>2026-03-28T15:39:39.999Z</time></trkpt><trkpt lat="45.76662182506384" lon="9.676835533686603"><ele>1023.9999999999999</ele><time>2026-03-28T15:39:43.999Z</time></trkpt><trkpt lat="45.76661089468826" lon="9.676925256415883"><ele>1024.0</ele><time>2026-03-28T15:39:47.999Z</time></trkpt><trkpt lat="45.7666126330355" lon="9.677029500470896"><ele>1024.0</ele><time>2026-03-28T15:39:52Z</time></trkpt><trkpt lat="45.76655027625595" lon="9.67705702929656"><ele>1023.9999999999999</ele><time>2026-03-28T15:39:56Z</time></trkpt><trkpt lat="45.76653398012925" lon="9.677157941979598"><ele>1024.0</ele><time>2026-03-28T15:40:01Z</time></trkpt><trkpt lat="45.766469849399364" lon="9.677159822243414"><ele>1024.0</ele><time>2026-03-28T15:40:10Z</time></trkpt><trkpt lat="45.766410439009405" lon="9.67712967596119"><ele>1023.3333333333333</ele><time>2026-03-28T15:40:14Z</time></trkpt><trkpt lat="45.76634723389891" lon="9.67708252397304"><ele>1022.6666666666666</ele><time>2026-03-28T15:40:19Z</time></trkpt><trkpt lat="45.76628096935821" lon="9.677062355509397"><ele>1022.0</ele><time>2026-03-28T15:40:26Z</time></trkpt><trkpt lat="45.7662215181686" lon="9.677122562432237"><ele>1021.3333333333333</ele><time>2026-03-28T15:40:31Z</time></trkpt><trkpt lat="45.76615530429996" lon="9.677193817038855"><ele>1020.6666666666666</ele><time>2026-03-28T15:40:38Z</time></trkpt><trkpt lat="45.76609753420787" lon="9.677093249467305"><ele>1020.0</ele><time>2026-03-28T15:40:43Z</time></trkpt><trkpt lat="45.76607504795064" lon="9.677006555327418"><ele>1017.3333333333334</ele><time>2026-03-28T15:40:46Z</time></trkpt><trkpt lat="45.76602136349062" lon="9.677055961292577"><ele>1014.6666666666667</ele><time>2026-03-28T15:40:50Z</time></trkpt><trkpt lat="45.76596633550976" lon="9.676984456162675"><ele>1012.0</ele><time>2026-03-28T15:40:54Z</time></trkpt><trkpt lat="45.76590268653036" lon="9.676966173162015"><ele>1009.3333333333334</ele><time>2026-03-28T15:40:58Z</time></trkpt><trkpt lat="45.76580917520111" lon="9.67691273696176"><ele>1006.6666666666667</ele><time>2026-03-28T15:41:02Z</time></trkpt><trkpt lat="45.76573476587683" lon="9.67686601707361"><ele>1004.0</ele><time>2026-03-28T15:41:06Z</time></trkpt><trkpt lat="45.76570451663428" lon="9.676777110100511"><ele>1004.0000000000001</ele><time>2026-03-28T15:41:17Z</time></trkpt><trkpt lat="45.76563711464798" lon="9.67673845491809"><ele>1004.0</ele><time>2026-03-28T15:41:22Z</time></trkpt><trkpt lat="45.76556676676539" lon="9.676694068038012"><ele>1004.0</ele><time>2026-03-28T15:41:26Z</time></trkpt><trkpt lat="45.76553765192841" lon="9.67659128704208"><ele>1004.0</ele><time>2026-03-28T15:41:29.999Z</time></trkpt><trkpt lat="45.7654697193195" lon="9.676547947887075"><ele>1004.0000000000001</ele><time>2026-03-28T15:41:32.999Z</time></trkpt><trkpt lat="45.76539381476713" lon="9.676495674394891"><ele>1004.0</ele><time>2026-03-28T15:41:36.999Z</time></trkpt><trkpt lat="45.76532513544737" lon="9.6764780617449"><ele>1004.0000000000001</ele><time>2026-03-28T15:41:39.999Z</time></trkpt><trkpt lat="45.76522293788531" lon="9.67645709947661"><ele>1004.0</ele><time>2026-03-28T15:41:41.999Z</time></trkpt><trkpt lat="45.76516168840658" lon="9.67638379578799"><ele>1004.0</ele><time>2026-03-28T15:41:44.999Z</time></trkpt><trkpt lat="45.76508903801437" lon="9.67629363300942"><ele>1004.0</ele><time>2026-03-28T15:41:47.999Z</time></trkpt><trkpt lat="45.76502362834071" lon="9.67627578054665"><ele>1004.0000000000001</ele><time>2026-03-28T15:41:49.999Z</time></trkpt><trkpt lat="45.76495297983173" lon="9.67627442435932"><ele>1004.0</ele><time>2026-03-28T15:41:51.999Z</time></trkpt><trkpt lat="45.76487262042387" lon="9.676277539087863"><ele>997.2857142857142</ele><time>2026-03-28T15:41:54.999Z</time></trkpt><trkpt lat="45.764797876771325" lon="9.676263137723366"><ele>990.5714285714286</ele><time>2026-03-28T15:42:05Z</time></trkpt><trkpt lat="45.76472240289754" lon="9.67623037517677"><ele>983.8571428571429</ele><time>2026-03-28T15:42:11Z</time></trkpt><trkpt lat="45.76466839973022" lon="9.676180675546487"><ele>977.1428571428571</ele><time>2026-03-28T15:42:16Z</time></trkpt><trkpt lat="45.76460287292121" lon="9.676144417516966"><ele>970.4285714285716</ele><time>2026-03-28T15:42:22Z</time></trkpt><trkpt lat="45.76452190037488" lon="9.676141628596092"><ele>963.7142857142858</ele><time>2026-03-28T15:42:30Z</time></trkpt><trkpt lat="45.764458447610345" lon="9.676127016006678"><ele>957.0</ele><time>2026-03-28T15:42:34Z</time></trkpt><trkpt lat="45.76439101113108" lon="9.67611585832668"><ele>953.0</ele><time>2026-03-28T15:42:38Z</time></trkpt><trkpt lat="45.76431824163655" lon="9.67609710972404"><ele>949.0000000000001</ele><time>2026-03-28T15:42:43Z</time></trkpt><trkpt lat="45.76425513681482" lon="9.676128402529292"><ele>945.0</ele><time>2026-03-28T15:42:47Z</time></trkpt><trkpt lat="45.76419102319458" lon="9.676111279197702"><ele>941.0</ele><time>2026-03-28T15:42:52Z</time></trkpt><trkpt lat="45.76412782216095" lon="9.6761241957958"><ele>937.0000000000001</ele><time>2026-03-28T15:43:01Z</time></trkpt><trkpt lat="45.76407259873331" lon="9.67617408633729"><ele>933.0</ele><time>2026-03-28T15:43:12Z</time></trkpt><trkpt lat="45.7640088708089" lon="9.676198970710688"><ele>929.0</ele><time>2026-03-28T15:43:23Z</time></trkpt><trkpt lat="45.76393942373258" lon="9.676222756059019"><ele>929.0</ele><time>2026-03-28T15:43:38.999Z</time></trkpt><trkpt lat="45.7638656106695" lon="9.676218799069726"><ele>929.0000000000001</ele><time>2026-03-28T15:43:48.999Z</time></trkpt><trkpt lat="45.763808499744854" lon="9.67617457561785"><ele>929.0</ele><time>2026-03-28T15:44:11Z</time></trkpt><trkpt lat="45.76374822526922" lon="9.676143883076188"><ele>929.0</ele><time>2026-03-28T15:44:21Z</time></trkpt><trkpt lat="45.76370728015593" lon="9.67607327190334"><ele>929.0000000000001</ele><time>2026-03-28T15:44:25Z</time></trkpt><trkpt lat="45.763639793361016" lon="9.67609749187705"><ele>929.0</ele><time>2026-03-28T15:44:32Z</time></trkpt><trkpt lat="45.763570012153515" lon="9.676046305476795"><ele>929.0</ele><time>2026-03-28T15:44:36Z</time></trkpt><trkpt lat="45.763502853032534" lon="9.676026272924192"><ele>924.7142857142858</ele><time>2026-03-28T15:44:45Z</time></trkpt><trkpt lat="45.76343119476515" lon="9.676068170188184"><ele>920.4285714285716</ele><time>2026-03-28T15:44:48Z</time></trkpt><trkpt lat="45.76339927310706" lon="9.675982936863647"><ele>916.1428571428571</ele><time>2026-03-28T15:44:52Z</time></trkpt><trkpt lat="45.763332078913706" lon="9.676011467794082"><ele>911.8571428571429</ele><time>2026-03-28T15:44:59Z</time></trkpt><trkpt lat="45.76325455307904" lon="9.675974287361276"><ele>907.5714285714286</ele><time>2026-03-28T15:45:05Z</time></trkpt><trkpt lat="45.76319603309855" lon="9.675908773326073"><ele>903.2857142857142</ele><time>2026-03-28T15:45:10Z</time></trkpt><trkpt lat="45.76312722310639" lon="9.675908806783752"><ele>898.9999999999999</ele><time>2026-03-28T15:45:17Z</time></trkpt><trkpt lat="45.763054930932626" lon="9.67591134829512"><ele>898.9999999999999</ele><time>2026-03-28T15:45:21Z</time></trkpt><trkpt lat="45.762976173490685" lon="9.67586816608592"><ele>899.0</ele><time>2026-03-28T15:45:27Z</time></trkpt><trkpt lat="45.76291125047908" lon="9.675838222703746"><ele>898.9999999999999</ele><time>2026-03-28T15:45:32Z</time></trkpt><trkpt lat="45.762821518519445" lon="9.67584757074163"><ele>898.9999999999999</ele><time>2026-03-28T15:45:39Z</time></trkpt><trkpt lat="45.76274917936768" lon="9.675841027754586"><ele>899.0</ele><time>2026-03-28T15:45:45.999Z</time></trkpt><trkpt lat="45.76268651823886" lon="9.67586817034619"><ele>898.9999999999999</ele><time>2026-03-28T15:45:50.999Z</time></trkpt><trkpt lat="45.76262087792063" lon="9.675885024300781"><ele>898.9999999999999</ele><time>2026-03-28T15:45:54.999Z</time></trkpt><trkpt lat="45.762553560212815" lon="9.675887619443673"><ele>895.1666666666667</ele><time>2026-03-28T15:45:59.999Z</time></trkpt><trkpt lat="45.76247543971686" lon="9.675878483981071"><ele>891.3333333333334</ele><time>2026-03-28T15:46:17Z</time></trkpt><trkpt lat="45.76241119942203" lon="9.675867683169402"><ele>887.5</ele><time>2026-03-28T15:46:22Z</time></trkpt><trkpt lat="45.762335948538805" lon="9.675872830923428"><ele>883.6666666666667</ele><time>2026-03-28T15:46:28Z</time></trkpt><trkpt lat="45.762273161600476" lon="9.675840048199413"><ele>879.8333333333334</ele><time>2026-03-28T15:46:31Z</time></trkpt><trkpt lat="45.76220266883168" lon="9.67591652359817"><ele>876.0</ele><time>2026-03-28T15:46:34Z</time></trkpt><trkpt lat="45.76214820227669" lon="9.676017485867078"><ele>876.0</ele><time>2026-03-28T15:46:37Z</time></trkpt><trkpt lat="45.76209222104567" lon="9.676089766716286"><ele>876.0</ele><time>2026-03-28T15:46:41Z</time></trkpt><trkpt lat="45.76203243224916" lon="9.676121652438813"><ele>876.0</ele><time>2026-03-28T15:46:46Z</time></trkpt><trkpt lat="45.76199952270747" lon="9.676204968365365"><ele>876.0</ele><time>2026-03-28T15:46:56Z</time></trkpt><trkpt lat="45.76194764892121" lon="9.676272336361894"><ele>876.0</ele><time>2026-03-28T15:47:02Z</time></trkpt><trkpt lat="45.7618704553037" lon="9.676335315780621"><ele>876.0</ele><time>2026-03-28T15:47:10Z</time></trkpt><trkpt lat="45.76181720750929" lon="9.676391280370785"><ele>876.0</ele><time>2026-03-28T15:47:14Z</time></trkpt><trkpt lat="45.76174776087905" lon="9.676429584330773"><ele>875.2857142857143</ele><time>2026-03-28T15:47:19Z</time></trkpt><trkpt lat="45.76168627328854" lon="9.67649083080662"><ele>874.5714285714286</ele><time>2026-03-28T15:47:24Z</time></trkpt><trkpt lat="45.76161719983905" lon="9.67652141990819"><ele>873.8571428571429</ele><time>2026-03-28T15:47:32Z</time></trkpt><trkpt lat="45.76155488006344" lon="9.6765663548831"><ele>873.1428571428571</ele><time>2026-03-28T15:47:39Z</time></trkpt><trkpt lat="45.761496852461505" lon="9.67650767731127"><ele>872.4285714285713</ele><time>2026-03-28T15:47:45.999Z</time></trkpt><trkpt lat="45.76143499785468" lon="9.676458611359731"><ele>871.7142857142857</ele><time>2026-03-28T15:47:53.999Z</time></trkpt><trkpt lat="45.76136439312493" lon="9.676456731376424"><ele>871.0</ele><time>2026-03-28T15:47:58.999Z</time></trkpt><trkpt lat="45.761306576633075" lon="9.67641967176455"><ele>871.0</ele><time>2026-03-28T15:48:04.999Z</time></trkpt><trkpt lat="45.7612397077556" lon="9.67640830810955"><ele>871.0</ele><time>2026-03-28T15:48:12.999Z</time></trkpt><trkpt lat="45.7611716958176" lon="9.67641560707876"><ele>871.0</ele><time>2026-03-28T15:48:21Z</time></trkpt><trkpt lat="45.76110457041925" lon="9.676389692996109"><ele>871.0</ele><time>2026-03-28T15:48:25Z</time></trkpt><trkpt lat="45.761041343983166" lon="9.676352478872836"><ele>871.0</ele><time>2026-03-28T15:48:30Z</time></trkpt><trkpt lat="45.76099765973112" lon="9.676284652726888"><ele>871.0</ele><time>2026-03-28T15:48:35Z</time></trkpt><trkpt lat="45.76093758742335" lon="9.676246592016495"><ele>871.0</ele><time>2026-03-28T15:48:40Z</time></trkpt><trkpt lat="45.760888875964646" lon="9.676176568696702"><ele>870.2857142857142</ele><time>2026-03-28T15:48:45Z</time></trkpt><trkpt lat="45.760827533436924" lon="9.676121862574211"><ele>869.5714285714286</ele><time>2026-03-28T15:48:50Z</time></trkpt><trkpt lat="45.76074810850373" lon="9.676122394991761"><ele>868.8571428571429</ele><time>2026-03-28T15:48:59Z</time></trkpt><trkpt lat="45.76067730582282" lon="9.67611732341398"><ele>868.1428571428571</ele><time>2026-03-28T15:49:03Z</time></trkpt><trkpt lat="45.760622847212446" lon="9.676057983906558"><ele>867.4285714285714</ele><time>2026-03-28T15:49:07Z</time></trkpt><trkpt lat="45.76054720871869" lon="9.676067503214371"><ele>866.7142857142857</ele><time>2026-03-28T15:49:12Z</time></trkpt><trkpt lat="45.760485600521655" lon="9.676033488783895"><ele>866.0</ele><time>2026-03-28T15:49:17Z</time></trkpt><trkpt lat="45.76038784766453" lon="9.67605183047196"><ele>865.9999999999999</ele><time>2026-03-28T15:49:24Z</time></trkpt><trkpt lat="45.76032352875566" lon="9.676074242429245"><ele>866.0</ele><time>2026-03-28T15:49:32Z</time></trkpt><trkpt lat="45.76025187779282" lon="9.676084281537568"><ele>866.0</ele><time>2026-03-28T15:49:39Z</time></trkpt><trkpt lat="45.76017807752416" lon="9.67610020652916"><ele>866.0</ele><time>2026-03-28T15:49:42.999Z</time></trkpt><trkpt lat="45.76011414664185" lon="9.676109003134052"><ele>866.0</ele><time>2026-03-28T15:49:48.999Z</time></trkpt><trkpt lat="45.76004797326328" lon="9.676110692863118"><ele>865.9999999999999</ele><time>2026-03-28T15:49:53.999Z</time></trkpt><trkpt lat="45.75997755556546" lon="9.67611162014062"><ele>866.0</ele><time>2026-03-28T15:50:02.999Z</time></trkpt><trkpt lat="45.75990505559071" lon="9.676087452143088"><ele>864.4285714285713</ele><time>2026-03-28T15:50:07.999Z</time></trkpt><trkpt lat="45.75983996518071" lon="9.676090604885719"><ele>862.8571428571429</ele><time>2026-03-28T15:50:14.999Z</time></trkpt><trkpt lat="45.75977823895475" lon="9.676051659608968"><ele>861.2857142857142</ele><time>2026-03-28T15:50:21Z</time></trkpt><trkpt lat="45.759712189411644" lon="9.67599123192876"><ele>859.7142857142857</ele><time>2026-03-28T15:50:28Z</time></trkpt><trkpt lat="45.759641179049574" lon="9.675982574195237"><ele>858.1428571428571</ele><time>2026-03-28T15:50:32Z</time></trkpt><trkpt lat="45.75958483562397" lon="9.675936030927614"><ele>856.5714285714286</ele><time>2026-03-28T15:50:38Z</time></trkpt><trkpt lat="45.759519928703874" lon="9.675963515347163"><ele>855.0</ele><time>2026-03-28T15:50:44Z</time></trkpt><trkpt lat="45.75945850415955" lon="9.67601452269322"><ele>855.0</ele><time>2026-03-28T15:50:49Z</time></trkpt><trkpt lat="45.7593971652822" lon="9.676054121748795"><ele>855.0</ele><time>2026-03-28T15:50:55Z</time></trkpt><trkpt lat="45.75933445535934" lon="9.676023307956665"><ele>855.0</ele><time>2026-03-28T15:51:00Z</time></trkpt><trkpt lat="45.75928209391934" lon="9.675971146833898"><ele>855.0</ele><time>2026-03-28T15:51:05Z</time></trkpt><trkpt lat="45.75923106877376" lon="9.675906564712625"><ele>855.0</ele><time>2026-03-28T15:51:12Z</time></trkpt><trkpt lat="45.75920241747813" lon="9.675823623890686"><ele>855.0</ele><time>2026-03-28T15:51:17Z</time></trkpt><trkpt lat="45.75914615081405" lon="9.675759518905528"><ele>855.0</ele><time>2026-03-28T15:51:24Z</time></trkpt><trkpt lat="45.759100022591674" lon="9.675692716501386"><ele>851.7142857142858</ele><time>2026-03-28T15:51:31Z</time></trkpt><trkpt lat="45.75902884076049" lon="9.675666136822763"><ele>848.4285714285713</ele><time>2026-03-28T15:51:37Z</time></trkpt><trkpt lat="45.75901840776379" lon="9.675575459665783"><ele>845.1428571428571</ele><time>2026-03-28T15:51:42Z</time></trkpt><trkpt lat="45.75902485203711" lon="9.675483445985831"><ele>841.8571428571429</ele><time>2026-03-28T15:52:10.999Z</time></trkpt><trkpt lat="45.75897925613441" lon="9.675400599781513"><ele>838.5714285714287</ele><time>2026-03-28T15:52:21.999Z</time></trkpt><trkpt lat="45.75893116485081" lon="9.675324640658369"><ele>835.2857142857142</ele><time>2026-03-28T15:52:34Z</time></trkpt><trkpt lat="45.7588983104577" lon="9.675241663724771"><ele>832.0</ele><time>2026-03-28T15:52:45Z</time></trkpt><trkpt lat="45.75883372777069" lon="9.675168732967437"><ele>829.8333333333333</ele><time>2026-03-28T15:52:54Z</time></trkpt><trkpt lat="45.75889510593984" lon="9.675121765584665"><ele>827.6666666666666</ele><time>2026-03-28T15:53:01Z</time></trkpt><trkpt lat="45.75883248883103" lon="9.675028403094515"><ele>825.5</ele><time>2026-03-28T15:53:23Z</time></trkpt><trkpt lat="45.758799554328306" lon="9.674918307229897"><ele>823.3333333333333</ele><time>2026-03-28T15:53:48Z</time></trkpt><trkpt lat="45.75882220068397" lon="9.674821352674677"><ele>821.1666666666666</ele><time>2026-03-28T15:53:54.999Z</time></trkpt><trkpt lat="45.75875621932294" lon="9.674738531435713"><ele>819.0</ele><time>2026-03-28T15:54:09.999Z</time></trkpt><trkpt lat="45.758695079543024" lon="9.674665565594724"><ele>819.0</ele><time>2026-03-28T15:54:14.999Z</time></trkpt><trkpt lat="45.75864748619229" lon="9.674606252726923"><ele>819.0</ele><time>2026-03-28T15:54:22.999Z</time></trkpt><trkpt lat="45.75857527076685" lon="9.674572613194288"><ele>819.0</ele><time>2026-03-28T15:54:37Z</time></trkpt><trkpt lat="45.75850832987228" lon="9.674543594143037"><ele>819.0</ele><time>2026-03-28T15:54:43Z</time></trkpt><trkpt lat="45.758445288077596" lon="9.674571066049278"><ele>819.0</ele><time>2026-03-28T15:54:48Z</time></trkpt><trkpt lat="45.758382096986374" lon="9.6745838488043"><ele>819.0</ele><time>2026-03-28T15:54:53Z</time></trkpt><trkpt lat="45.75831039148252" lon="9.674598121233947"><ele>819.0</ele><time>2026-03-28T15:55:04Z</time></trkpt><trkpt lat="45.75825885002512" lon="9.674672445803019"><ele>814.0</ele><time>2026-03-28T15:55:18Z</time></trkpt><trkpt lat="45.75818514084704" lon="9.674651094237651"><ele>809.0</ele><time>2026-03-28T15:55:37Z</time></trkpt><trkpt lat="45.75810935380689" lon="9.674619664952786"><ele>804.0</ele><time>2026-03-28T15:56:00.999Z</time></trkpt><trkpt lat="45.75811668515807" lon="9.67451943846764"><ele>799.0</ele><time>2026-03-28T15:56:19.999Z</time></trkpt><trkpt lat="45.758040013386584" lon="9.674508079338857"><ele>794.0</ele><time>2026-03-28T15:56:28.999Z</time></trkpt><trkpt lat="45.757978834417656" lon="9.674542470268475"><ele>789.0</ele><time>2026-03-28T15:56:41Z</time></trkpt><trkpt lat="45.75789722549855" lon="9.674594524560352"><ele>788.9999999999999</ele><time>2026-03-28T15:56:51Z</time></trkpt><trkpt lat="45.757847985351965" lon="9.674655390492015"><ele>789.0</ele><time>2026-03-28T15:57:00Z</time></trkpt><trkpt lat="45.757777870002485" lon="9.67467300339383"><ele>789.0</ele><time>2026-03-28T15:57:06Z</time></trkpt><trkpt lat="45.75771516196317" lon="9.674646624823863"><ele>789.0</ele><time>2026-03-28T15:57:24Z</time></trkpt><trkpt lat="45.757645892154876" lon="9.674636678241328"><ele>789.0</ele><time>2026-03-28T15:57:34Z</time></trkpt><trkpt lat="45.757577378383736" lon="9.674561316649198"><ele>788.9999999999999</ele><time>2026-03-28T15:57:43Z</time></trkpt><trkpt lat="45.75751625252499" lon="9.674494563100888"><ele>789.0</ele><time>2026-03-28T15:57:48Z</time></trkpt><trkpt lat="45.757484726615395" lon="9.674605815989926"><ele>784.8333333333334</ele><time>2026-03-28T15:57:53Z</time></trkpt><trkpt lat="45.75747309070374" lon="9.674708363492572"><ele>780.6666666666666</ele><time>2026-03-28T15:57:57Z</time></trkpt><trkpt lat="45.75742097903349" lon="9.67478194563437"><ele>776.5</ele><time>2026-03-28T15:58:05Z</time></trkpt><trkpt lat="45.757391812508686" lon="9.674866384647617"><ele>772.3333333333333</ele><time>2026-03-28T15:58:14Z</time></trkpt><trkpt lat="45.757354669036246" lon="9.674953191564821"><ele>768.1666666666666</ele><time>2026-03-28T15:58:21.999Z</time></trkpt><trkpt lat="45.757245229510694" lon="9.674943529279703"><ele>764.0</ele><time>2026-03-28T15:58:25.999Z</time></trkpt><trkpt lat="45.75718039236242" lon="9.674982908006328"><ele>764.0</ele><time>2026-03-28T15:58:32.999Z</time></trkpt><trkpt lat="45.75711666373622" lon="9.675030641268176"><ele>764.0</ele><time>2026-03-28T15:58:37.999Z</time></trkpt><trkpt lat="45.7570638353581" lon="9.675086550338161"><ele>764.0</ele><time>2026-03-28T15:58:43.999Z</time></trkpt><trkpt lat="45.75700436743606" lon="9.675143111275165"><ele>764.0</ele><time>2026-03-28T15:58:48Z</time></trkpt><trkpt lat="45.75694922654146" lon="9.675190175863005"><ele>764.0</ele><time>2026-03-28T15:58:55Z</time></trkpt><trkpt lat="45.75690667388435" lon="9.67525669095989"><ele>764.0</ele><time>2026-03-28T15:58:59Z</time></trkpt><trkpt lat="45.75685221105216" lon="9.675308911177789"><ele>764.0</ele><time>2026-03-28T15:59:06Z</time></trkpt><trkpt lat="45.75682449227301" lon="9.675397114335915"><ele>763.4285714285714</ele><time>2026-03-28T15:59:11Z</time></trkpt><trkpt lat="45.756762951274304" lon="9.67545096598883"><ele>762.8571428571428</ele><time>2026-03-28T15:59:17Z</time></trkpt><trkpt lat="45.756732870304006" lon="9.675530913059177"><ele>762.2857142857142</ele><time>2026-03-28T15:59:21Z</time></trkpt><trkpt lat="45.75668066560795" lon="9.675603143222277"><ele>761.7142857142858</ele><time>2026-03-28T15:59:27Z</time></trkpt><trkpt lat="45.75664244503133" lon="9.6756913800213"><ele>761.1428571428571</ele><time>2026-03-28T15:59:33Z</time></trkpt><trkpt lat="45.75660556414973" lon="9.67577421743679"><ele>760.5714285714286</ele><time>2026-03-28T15:59:38Z</time></trkpt><trkpt lat="45.75657117845233" lon="9.675866872946948"><ele>760.0</ele><time>2026-03-28T15:59:43Z</time></trkpt><trkpt lat="45.756517281228355" lon="9.675920206015068"><ele>760.0</ele><time>2026-03-28T15:59:51Z</time></trkpt><trkpt lat="45.75648163078932" lon="9.675998795698357"><ele>760.0</ele><time>2026-03-28T15:59:57Z</time></trkpt><trkpt lat="45.75643378105113" lon="9.676061753581555"><ele>760.0</ele><time>2026-03-28T16:00:03Z</time></trkpt><trkpt lat="45.75643082050279" lon="9.676154745040993"><ele>760.0</ele><time>2026-03-28T16:00:08Z</time></trkpt><trkpt lat="45.756395979310135" lon="9.676237513366853"><ele>760.0</ele><time>2026-03-28T16:00:13Z</time></trkpt><trkpt lat="45.7563629328014" lon="9.676316488730897"><ele>760.0</ele><time>2026-03-28T16:00:18.999Z</time></trkpt><trkpt lat="45.75632134796546" lon="9.676389095310952"><ele>760.0</ele><time>2026-03-28T16:00:23.999Z</time></trkpt><trkpt lat="45.75628175395608" lon="9.676475517454344"><ele>760.7142857142858</ele><time>2026-03-28T16:00:29.999Z</time></trkpt><trkpt lat="45.75622476387848" lon="9.676518575188782"><ele>761.4285714285714</ele><time>2026-03-28T16:00:34.999Z</time></trkpt><trkpt lat="45.75619561105742" lon="9.676610755481835"><ele>762.1428571428571</ele><time>2026-03-28T16:00:41.999Z</time></trkpt><trkpt lat="45.75615491944017" lon="9.676702376687922"><ele>762.8571428571429</ele><time>2026-03-28T16:00:47.999Z</time></trkpt><trkpt lat="45.756123111335896" lon="9.676780706134668"><ele>763.5714285714286</ele><time>2026-03-28T16:00:52Z</time></trkpt><trkpt lat="45.75608245865883" lon="9.67686551589565"><ele>764.2857142857143</ele><time>2026-03-28T16:00:57Z</time></trkpt><trkpt lat="45.75605407282053" lon="9.676946935935336"><ele>765.0</ele><time>2026-03-28T16:01:02Z</time></trkpt><trkpt lat="45.75602262616119" lon="9.67703969100695"><ele>765.0000000000001</ele><time>2026-03-28T16:01:08Z</time></trkpt><trkpt lat="45.756000146152594" lon="9.677140900080287"><ele>765.0</ele><time>2026-03-28T16:01:13Z</time></trkpt><trkpt lat="45.75596312320157" lon="9.677214520580485"><ele>765.0</ele><time>2026-03-28T16:01:18Z</time></trkpt><trkpt lat="45.755937945962586" lon="9.677298886520237"><ele>765.0</ele><time>2026-03-28T16:01:23Z</time></trkpt><trkpt lat="45.75591356717047" lon="9.677390157911837"><ele>765.0</ele><time>2026-03-28T16:01:28Z</time></trkpt><trkpt lat="45.755883621779155" lon="9.677473584335528"><ele>765.0000000000001</ele><time>2026-03-28T16:01:33Z</time></trkpt><trkpt lat="45.75585966597988" lon="9.677561509358616"><ele>765.0</ele><time>2026-03-28T16:01:41Z</time></trkpt><trkpt lat="45.75582229555804" lon="9.677637646931924"><ele>765.0000000000001</ele><time>2026-03-28T16:01:48Z</time></trkpt><trkpt lat="45.755802257965286" lon="9.67772346926475"><ele>765.0</ele><time>2026-03-28T16:01:55Z</time></trkpt><trkpt lat="45.755784903520016" lon="9.677816399044053"><ele>765.0</ele><time>2026-03-28T16:01:59Z</time></trkpt><trkpt lat="45.75574522710146" lon="9.677892754550072"><ele>765.0</ele><time>2026-03-28T16:02:06Z</time></trkpt><trkpt lat="45.755704471314665" lon="9.67797339747357"><ele>765.0</ele><time>2026-03-28T16:02:10Z</time></trkpt><trkpt lat="45.755664107861854" lon="9.678062981573623"><ele>765.0000000000001</ele><time>2026-03-28T16:02:15Z</time></trkpt><trkpt lat="45.75562949654647" lon="9.678151947795996"><ele>765.0</ele><time>2026-03-28T16:02:20Z</time></trkpt><trkpt lat="45.75563025667877" lon="9.678242872199986"><ele>761.7142857142858</ele><time>2026-03-28T16:02:25Z</time></trkpt><trkpt lat="45.755599552477065" lon="9.678342956421867"><ele>758.4285714285714</ele><time>2026-03-28T16:02:29Z</time></trkpt><trkpt lat="45.75556307323972" lon="9.678426330580255"><ele>755.1428571428571</ele><time>2026-03-28T16:02:32.999Z</time></trkpt><trkpt lat="45.75552643419318" lon="9.678506797741596"><ele>751.8571428571429</ele><time>2026-03-28T16:02:36.017Z</time></trkpt><trkpt lat="45.7554996458325" lon="9.67859269621218"><ele>748.5714285714286</ele><time>2026-03-28T16:02:39.015Z</time></trkpt><trkpt lat="45.75547761288076" lon="9.678705045962406"><ele>745.2857142857143</ele><time>2026-03-28T16:02:46.999Z</time></trkpt><trkpt lat="45.75545400413985" lon="9.678794406183096"><ele>742.0</ele><time>2026-03-28T16:02:58Z</time></trkpt><trkpt lat="45.75544369665972" lon="9.678895852533289"><ele>745.3333333333334</ele><time>2026-03-28T16:03:07Z</time></trkpt><trkpt lat="45.75538814253569" lon="9.67894571615959"><ele>748.6666666666667</ele><time>2026-03-28T16:03:12Z</time></trkpt><trkpt lat="45.75533989300922" lon="9.679014437222788"><ele>752.0</ele><time>2026-03-28T16:03:18Z</time></trkpt><trkpt lat="45.75529467407482" lon="9.679093581861084"><ele>755.3333333333334</ele><time>2026-03-28T16:03:26Z</time></trkpt><trkpt lat="45.75524277663167" lon="9.679156174032984"><ele>758.6666666666666</ele><time>2026-03-28T16:03:32Z</time></trkpt><trkpt lat="45.75518390354259" lon="9.679213482068768"><ele>762.0</ele><time>2026-03-28T16:03:38Z</time></trkpt><trkpt lat="45.75507575646135" lon="9.679209402813793"><ele>762.0</ele><time>2026-03-28T16:03:44Z</time></trkpt><trkpt lat="45.75502235679751" lon="9.67928410612537"><ele>762.0</ele><time>2026-03-28T16:03:52Z</time></trkpt><trkpt lat="45.754959112852006" lon="9.679328242306484"><ele>762.0</ele><time>2026-03-28T16:04:05Z</time></trkpt><trkpt lat="45.754890417165726" lon="9.679332263149037"><ele>762.0</ele><time>2026-03-28T16:04:16Z</time></trkpt><trkpt lat="45.7548347142414" lon="9.679388435664007"><ele>762.0</ele><time>2026-03-28T16:04:29Z</time></trkpt><trkpt lat="45.75476674963808" lon="9.679414708570361"><ele>762.0</ele><time>2026-03-28T16:04:36.999Z</time></trkpt><trkpt lat="45.75470543934014" lon="9.679465328819816"><ele>762.0</ele><time>2026-03-28T16:04:40.999Z</time></trkpt><trkpt lat="45.75462993640304" lon="9.67949903412108"><ele>761.4285714285714</ele><time>2026-03-28T16:04:45.999Z</time></trkpt><trkpt lat="45.754570086580024" lon="9.679552415831864"><ele>760.8571428571429</ele><time>2026-03-28T16:04:49.999Z</time></trkpt><trkpt lat="45.75451757499118" lon="9.679603298790761"><ele>760.2857142857143</ele><time>2026-03-28T16:04:54.999Z</time></trkpt><trkpt lat="45.75445854368342" lon="9.679651113443414"><ele>759.7142857142858</ele><time>2026-03-28T16:05:01.999Z</time></trkpt><trkpt lat="45.75439808800473" lon="9.679680337385355"><ele>759.1428571428571</ele><time>2026-03-28T16:05:10Z</time></trkpt><trkpt lat="45.75435146282624" lon="9.679742611185825"><ele>758.5714285714287</ele><time>2026-03-28T16:05:14Z</time></trkpt><trkpt lat="45.75428928475275" lon="9.679767128940561"><ele>758.0</ele><time>2026-03-28T16:05:22Z</time></trkpt><trkpt lat="45.75423372156351" lon="9.679811690371661"><ele>758.0</ele><time>2026-03-28T16:05:26Z</time></trkpt><trkpt lat="45.75417623104028" lon="9.679859101038238"><ele>758.0</ele><time>2026-03-28T16:05:31Z</time></trkpt><trkpt lat="45.75411466618636" lon="9.67989653222308"><ele>758.0</ele><time>2026-03-28T16:05:38Z</time></trkpt><trkpt lat="45.75405165206731" lon="9.679935582940068"><ele>758.0</ele><time>2026-03-28T16:05:44Z</time></trkpt><trkpt lat="45.754000246229836" lon="9.679992839481407"><ele>758.0</ele><time>2026-03-28T16:05:50Z</time></trkpt><trkpt lat="45.75393604301325" lon="9.68002972460121"><ele>758.0</ele><time>2026-03-28T16:05:57Z</time></trkpt><trkpt lat="45.75380256284613" lon="9.68010220273641"><ele>758.0000000000001</ele><time>2026-03-28T16:06:10.999Z</time></trkpt><trkpt lat="45.75374378699514" lon="9.680169568052346"><ele>758.0</ele><time>2026-03-28T16:06:19.999Z</time></trkpt><trkpt lat="45.753676098985935" lon="9.680205786039435"><ele>758.0</ele><time>2026-03-28T16:06:27.999Z</time></trkpt><trkpt lat="45.753603331507925" lon="9.680256021924638"><ele>758.0</ele><time>2026-03-28T16:06:35.999Z</time></trkpt><trkpt lat="45.75353571313051" lon="9.680301856947752"><ele>758.0</ele><time>2026-03-28T16:06:42.999Z</time></trkpt><trkpt lat="45.753478154591114" lon="9.680350586333548"><ele>758.0000000000001</ele><time>2026-03-28T16:06:48.999Z</time></trkpt><trkpt lat="45.753411553361964" lon="9.680402967943124"><ele>758.0</ele><time>2026-03-28T16:06:57.999Z</time></trkpt><trkpt lat="45.75335397906045" lon="9.680458399174666"><ele>758.2857142857143</ele><time>2026-03-28T16:07:03.999Z</time></trkpt><trkpt lat="45.753298933912404" lon="9.68051008691016"><ele>758.5714285714286</ele><time>2026-03-28T16:07:11Z</time></trkpt><trkpt lat="45.75323845831145" lon="9.680573727003823"><ele>758.8571428571429</ele><time>2026-03-28T16:07:19Z</time></trkpt><trkpt lat="45.75318207151812" lon="9.680622833767046"><ele>759.1428571428571</ele><time>2026-03-28T16:07:23Z</time></trkpt><trkpt lat="45.75311602524" lon="9.680653521929518"><ele>759.4285714285714</ele><time>2026-03-28T16:07:29Z</time></trkpt><trkpt lat="45.753054803457935" lon="9.680706084831717"><ele>759.7142857142858</ele><time>2026-03-28T16:07:38Z</time></trkpt><trkpt lat="45.75299915132096" lon="9.680766041409116"><ele>760.0</ele><time>2026-03-28T16:07:43Z</time></trkpt><trkpt lat="45.7529404286132" lon="9.680820108940052"><ele>760.0</ele><time>2026-03-28T16:07:48Z</time></trkpt><trkpt lat="45.75287746487927" lon="9.680875278491957"><ele>760.0</ele><time>2026-03-28T16:07:54Z</time></trkpt><trkpt lat="45.75282751195986" lon="9.680933212478593"><ele>760.0</ele><time>2026-03-28T16:07:59Z</time></trkpt><trkpt lat="45.75277743975181" lon="9.680994461771723"><ele>760.0</ele><time>2026-03-28T16:08:07Z</time></trkpt><trkpt lat="45.75272832944172" lon="9.681058184307135"><ele>760.0</ele><time>2026-03-28T16:08:13Z</time></trkpt><trkpt lat="45.752674863207076" lon="9.681116238197305"><ele>760.0</ele><time>2026-03-28T16:08:20Z</time></trkpt><trkpt lat="45.7526184369684" lon="9.681178191264616"><ele>760.0</ele><time>2026-03-28T16:08:28Z</time></trkpt><trkpt lat="45.752562585561044" lon="9.681241067709871"><ele>762.4285714285714</ele><time>2026-03-28T16:08:36Z</time></trkpt><trkpt lat="45.75250654261475" lon="9.681295357568638"><ele>764.8571428571429</ele><time>2026-03-28T16:08:44Z</time></trkpt><trkpt lat="45.7524511608203" lon="9.68134438496233"><ele>767.2857142857142</ele><time>2026-03-28T16:08:51Z</time></trkpt><trkpt lat="45.752381696676714" lon="9.68137872854107"><ele>769.7142857142858</ele><time>2026-03-28T16:08:58Z</time></trkpt><trkpt lat="45.75231641862822" lon="9.681401609885503"><ele>772.1428571428571</ele><time>2026-03-28T16:09:03.999Z</time></trkpt><trkpt lat="45.752256781727965" lon="9.681432924940536"><ele>774.5714285714286</ele><time>2026-03-28T16:09:07.999Z</time></trkpt><trkpt lat="45.75219366016435" lon="9.681471738237615"><ele>777.0</ele><time>2026-03-28T16:09:15Z</time></trkpt><trkpt lat="45.75212026985807" lon="9.681489874416329"><ele>777.0</ele><time>2026-03-28T16:09:22Z</time></trkpt><trkpt lat="45.75205235545101" lon="9.681500920987705"><ele>777.0</ele><time>2026-03-28T16:09:27Z</time></trkpt><trkpt lat="45.75198671152012" lon="9.681541449351014"><ele>777.0</ele><time>2026-03-28T16:09:32Z</time></trkpt><trkpt lat="45.75192933378658" lon="9.681592765076463"><ele>777.0</ele><time>2026-03-28T16:09:38Z</time></trkpt><trkpt lat="45.751881247146436" lon="9.681659781792366"><ele>777.0</ele><time>2026-03-28T16:09:45Z</time></trkpt><trkpt lat="45.75185353417403" lon="9.681742679440859"><ele>777.0</ele><time>2026-03-28T16:09:55Z</time></trkpt><trkpt lat="45.75183944603582" lon="9.681838749118079"><ele>777.0</ele><time>2026-03-28T16:09:58Z</time></trkpt><trkpt lat="45.75183205985178" lon="9.68194542283585"><ele>774.1428571428571</ele><time>2026-03-28T16:10:02Z</time></trkpt><trkpt lat="45.75183184219336" lon="9.682043415272123"><ele>771.2857142857142</ele><time>2026-03-28T16:10:08Z</time></trkpt><trkpt lat="45.75181909947731" lon="9.682137910450297"><ele>768.4285714285714</ele><time>2026-03-28T16:10:12Z</time></trkpt><trkpt lat="45.75179444587115" lon="9.682234814777821"><ele>765.5714285714286</ele><time>2026-03-28T16:10:17Z</time></trkpt><trkpt lat="45.75176967648364" lon="9.682332167058101"><ele>762.7142857142857</ele><time>2026-03-28T16:10:22Z</time></trkpt><trkpt lat="45.75173504684652" lon="9.682410012599336"><ele>759.8571428571429</ele><time>2026-03-28T16:10:34Z</time></trkpt><trkpt lat="45.75170508657659" lon="9.682540260890551"><ele>757.0</ele><time>2026-03-28T16:10:49.999Z</time></trkpt><trkpt lat="45.75170268965442" lon="9.682633315566514"><ele>757.0</ele><time>2026-03-28T16:10:52.999Z</time></trkpt><trkpt lat="45.751671087080645" lon="9.682720099882339"><ele>757.0</ele><time>2026-03-28T16:10:59.999Z</time></trkpt><trkpt lat="45.75161842740997" lon="9.682789864856323"><ele>757.0</ele><time>2026-03-28T16:11:05.999Z</time></trkpt><trkpt lat="45.75156962143334" lon="9.682858714936758"><ele>757.0</ele><time>2026-03-28T16:11:11.999Z</time></trkpt><trkpt lat="45.75151823386695" lon="9.682915920371949"><ele>757.0</ele><time>2026-03-28T16:11:18.999Z</time></trkpt><trkpt lat="45.75145076049645" lon="9.682956620255112"><ele>757.0</ele><time>2026-03-28T16:11:30Z</time></trkpt><trkpt lat="45.75138876065699" lon="9.682993795545856"><ele>757.0</ele><time>2026-03-28T16:11:35Z</time></trkpt><trkpt lat="45.75131534943739" lon="9.682982802554362"><ele>755.0</ele><time>2026-03-28T16:11:44Z</time></trkpt><trkpt lat="45.75125307059671" lon="9.683038432277943"><ele>753.0</ele><time>2026-03-28T16:11:50Z</time></trkpt><trkpt lat="45.751186765917836" lon="9.68306404351465"><ele>751.0</ele><time>2026-03-28T16:11:55Z</time></trkpt><trkpt lat="45.75111444467747" lon="9.68309165142744"><ele>749.0</ele><time>2026-03-28T16:12:00Z</time></trkpt><trkpt lat="45.75104060475473" lon="9.683088040686085"><ele>747.0</ele><time>2026-03-28T16:12:06Z</time></trkpt><trkpt lat="45.75097515285727" lon="9.68312447687624"><ele>745.0</ele><time>2026-03-28T16:12:11Z</time></trkpt><trkpt lat="45.75091495855553" lon="9.683165534247529"><ele>743.0</ele><time>2026-03-28T16:12:17Z</time></trkpt><trkpt lat="45.75086127925462" lon="9.683218180525897"><ele>743.0</ele><time>2026-03-28T16:12:25Z</time></trkpt><trkpt lat="45.75080984272315" lon="9.683279964601876"><ele>743.0</ele><time>2026-03-28T16:12:32Z</time></trkpt><trkpt lat="45.75076635140469" lon="9.683347112829109"><ele>743.0</ele><time>2026-03-28T16:12:38Z</time></trkpt><trkpt lat="45.75072391334094" lon="9.683423329066962"><ele>743.0</ele><time>2026-03-28T16:12:43Z</time></trkpt><trkpt lat="45.7506971037735" lon="9.683505578306859"><ele>743.0</ele><time>2026-03-28T16:12:47Z</time></trkpt><trkpt lat="45.75067725722304" lon="9.683591595969519"><ele>743.0</ele><time>2026-03-28T16:12:50.999Z</time></trkpt><trkpt lat="45.75066776687238" lon="9.683687625412382"><ele>743.0</ele><time>2026-03-28T16:12:55.999Z</time></trkpt><trkpt lat="45.750642170618036" lon="9.683787287487219"><ele>743.0</ele><time>2026-03-28T16:13:00.999Z</time></trkpt><trkpt lat="45.75066849391668" lon="9.68387351817114"><ele>743.0</ele><time>2026-03-28T16:13:05.999Z</time></trkpt><trkpt lat="45.75068766514812" lon="9.683965900748213"><ele>743.0</ele><time>2026-03-28T16:13:10.999Z</time></trkpt><trkpt lat="45.750713342730904" lon="9.684059946928294"><ele>743.0</ele><time>2026-03-28T16:13:15.999Z</time></trkpt><trkpt lat="45.75075612944477" lon="9.68414054224552"><ele>743.0</ele><time>2026-03-28T16:13:20.999Z</time></trkpt><trkpt lat="45.75077063699527" lon="9.68423002838549"><ele>743.0</ele><time>2026-03-28T16:13:25.999Z</time></trkpt><trkpt lat="45.75078779039537" lon="9.684324190375929"><ele>743.0</ele><time>2026-03-28T16:13:32Z</time></trkpt><trkpt lat="45.7508049256686" lon="9.6844165516404"><ele>744.0</ele><time>2026-03-28T16:13:37Z</time></trkpt><trkpt lat="45.75082863243216" lon="9.68451720516912"><ele>745.0</ele><time>2026-03-28T16:13:42Z</time></trkpt><trkpt lat="45.75082844376843" lon="9.684628505034857"><ele>746.0</ele><time>2026-03-28T16:13:47Z</time></trkpt><trkpt lat="45.75083041194947" lon="9.684736153744911"><ele>747.0</ele><time>2026-03-28T16:13:53Z</time></trkpt><trkpt lat="45.75080201030729" lon="9.68482051992597"><ele>748.0</ele><time>2026-03-28T16:14:10Z</time></trkpt><trkpt lat="45.750781684783774" lon="9.684913823918416"><ele>749.0</ele><time>2026-03-28T16:14:20Z</time></trkpt><trkpt lat="45.75075277118343" lon="9.685004176555411"><ele>750.0</ele><time>2026-03-28T16:14:25Z</time></trkpt><trkpt lat="45.75071624646803" lon="9.685091825598354"><ele>750.0</ele><time>2026-03-28T16:14:32Z</time></trkpt><trkpt lat="45.750720034415465" lon="9.685182316022322"><ele>750.0</ele><time>2026-03-28T16:14:43Z</time></trkpt><trkpt lat="45.75068450587269" lon="9.685261266989938"><ele>750.0</ele><time>2026-03-28T16:14:46Z</time></trkpt><trkpt lat="45.75062239685442" lon="9.68529355132384"><ele>750.0</ele><time>2026-03-28T16:14:55Z</time></trkpt><trkpt lat="45.75055439436777" lon="9.685303215764762"><ele>750.0</ele><time>2026-03-28T16:15:03Z</time></trkpt><trkpt lat="45.7504977026479" lon="9.685354544340607"><ele>750.0</ele><time>2026-03-28T16:15:08.999Z</time></trkpt><trkpt lat="45.75044709409501" lon="9.68542022851896"><ele>750.0</ele><time>2026-03-28T16:15:15.999Z</time></trkpt><trkpt lat="45.75038529943433" lon="9.685473937975457"><ele>752.1428571428572</ele><time>2026-03-28T16:15:22.999Z</time></trkpt><trkpt lat="45.75031841176869" lon="9.685533831727406"><ele>754.2857142857142</ele><time>2026-03-28T16:15:28.999Z</time></trkpt><trkpt lat="45.750261333607874" lon="9.685578269204678"><ele>756.4285714285714</ele><time>2026-03-28T16:15:35Z</time></trkpt><trkpt lat="45.750195521083626" lon="9.685625903408226"><ele>758.5714285714287</ele><time>2026-03-28T16:15:41Z</time></trkpt><trkpt lat="45.75014325258596" lon="9.685692012449868"><ele>760.7142857142858</ele><time>2026-03-28T16:15:47Z</time></trkpt><trkpt lat="45.750086129799314" lon="9.68573883679615"><ele>762.8571428571429</ele><time>2026-03-28T16:15:53Z</time></trkpt><trkpt lat="45.750024302191456" lon="9.685795636729072"><ele>765.0</ele><time>2026-03-28T16:15:59Z</time></trkpt><trkpt lat="45.74996082305799" lon="9.68584234448764"><ele>761.2857142857143</ele><time>2026-03-28T16:16:05Z</time></trkpt><trkpt lat="45.74990679546291" lon="9.685895652604184"><ele>757.5714285714286</ele><time>2026-03-28T16:16:11Z</time></trkpt><trkpt lat="45.74984556253127" lon="9.685951681238667"><ele>753.8571428571429</ele><time>2026-03-28T16:16:18Z</time></trkpt><trkpt lat="45.74980656019103" lon="9.686027172625007"><ele>750.1428571428571</ele><time>2026-03-28T16:16:23Z</time></trkpt><trkpt lat="45.74974633323874" lon="9.686069232425078"><ele>746.4285714285714</ele><time>2026-03-28T16:16:27Z</time></trkpt><trkpt lat="45.74969604098976" lon="9.686132937106816"><ele>742.7142857142858</ele><time>2026-03-28T16:16:31Z</time></trkpt><trkpt lat="45.74963471976017" lon="9.68617522672387"><ele>739.0</ele><time>2026-03-28T16:16:36Z</time></trkpt><trkpt lat="45.74958940886426" lon="9.686238522956415"><ele>739.0</ele><time>2026-03-28T16:16:42Z</time></trkpt><trkpt lat="45.749527550403236" lon="9.686281626158875"><ele>739.0</ele><time>2026-03-28T16:16:48Z</time></trkpt><trkpt lat="45.749469442936395" lon="9.686330021397485"><ele>739.0</ele><time>2026-03-28T16:16:54Z</time></trkpt><trkpt lat="45.74940255378443" lon="9.686359751306659"><ele>739.0</ele><time>2026-03-28T16:16:59Z</time></trkpt><trkpt lat="45.749350632310176" lon="9.686411896161577"><ele>739.0</ele><time>2026-03-28T16:17:05Z</time></trkpt><trkpt lat="45.749290710688555" lon="9.686443628987211"><ele>739.0</ele><time>2026-03-28T16:17:12Z</time></trkpt><trkpt lat="45.74923155849687" lon="9.686504532438269"><ele>739.0</ele><time>2026-03-28T16:17:21.999Z</time></trkpt><trkpt lat="45.749208591303514" lon="9.686591249696017"><ele>737.0</ele><time>2026-03-28T16:17:23.999Z</time></trkpt><trkpt lat="45.74914116810444" lon="9.68660075895734"><ele>735.0</ele><time>2026-03-28T16:17:32.999Z</time></trkpt><trkpt lat="45.74908821388923" lon="9.686653329818766"><ele>733.0</ele><time>2026-03-28T16:17:37.999Z</time></trkpt><trkpt lat="45.74902315342264" lon="9.6866505206671"><ele>731.0</ele><time>2026-03-28T16:17:41Z</time></trkpt><trkpt lat="45.748955903153686" lon="9.686675715812946"><ele>729.0</ele><time>2026-03-28T16:17:46Z</time></trkpt><trkpt lat="45.748884159278624" lon="9.686702874862384"><ele>727.0</ele><time>2026-03-28T16:17:52Z</time></trkpt><trkpt lat="45.74883443001792" lon="9.686761392436553"><ele>725.0</ele><time>2026-03-28T16:18:00Z</time></trkpt><trkpt lat="45.7487741795384" lon="9.686788210695013"><ele>725.0</ele><time>2026-03-28T16:18:08Z</time></trkpt><trkpt lat="45.748710245281885" lon="9.686746150394864"><ele>725.0</ele><time>2026-03-28T16:18:16Z</time></trkpt><trkpt lat="45.748638052622546" lon="9.68674873357685"><ele>725.0</ele><time>2026-03-28T16:18:21Z</time></trkpt><trkpt lat="45.748574462257004" lon="9.686726859590555"><ele>725.0</ele><time>2026-03-28T16:18:26Z</time></trkpt><trkpt lat="45.748504761396575" lon="9.68674359992218"><ele>725.0</ele><time>2026-03-28T16:18:31Z</time></trkpt><trkpt lat="45.748441244679576" lon="9.686768985191199"><ele>725.0</ele><time>2026-03-28T16:18:37Z</time></trkpt><trkpt lat="45.748371786673005" lon="9.68678642329044"><ele>725.0</ele><time>2026-03-28T16:18:44Z</time></trkpt><trkpt lat="45.74830116688433" lon="9.686842919809793"><ele>723.8571428571429</ele><time>2026-03-28T16:18:49Z</time></trkpt><trkpt lat="45.74823850377179" lon="9.68687256010506"><ele>722.7142857142858</ele><time>2026-03-28T16:18:59Z</time></trkpt><trkpt lat="45.74817535258267" lon="9.68689342050507"><ele>721.5714285714286</ele><time>2026-03-28T16:19:04Z</time></trkpt><trkpt lat="45.74810762837993" lon="9.686891011467829"><ele>720.4285714285714</ele><time>2026-03-28T16:19:11Z</time></trkpt><trkpt lat="45.74803862428364" lon="9.686887805429855"><ele>719.2857142857142</ele><time>2026-03-28T16:19:18Z</time></trkpt><trkpt lat="45.747969576918734" lon="9.686858222807544"><ele>718.1428571428571</ele><time>2026-03-28T16:19:23.999Z</time></trkpt><trkpt lat="45.74790679151394" lon="9.686868554828619"><ele>717.0</ele><time>2026-03-28T16:19:27.999Z</time></trkpt><trkpt lat="45.74783950209133" lon="9.686832511030389"><ele>717.0</ele><time>2026-03-28T16:19:32.999Z</time></trkpt><trkpt lat="45.74776681407472" lon="9.686824925510596"><ele>717.0</ele><time>2026-03-28T16:19:37.999Z</time></trkpt><trkpt lat="45.74769986051309" lon="9.686842232271484"><ele>717.0</ele><time>2026-03-28T16:19:42.999Z</time></trkpt><trkpt lat="45.74763996465505" lon="9.686812277842785"><ele>717.0</ele><time>2026-03-28T16:19:47Z</time></trkpt><trkpt lat="45.74757353917089" lon="9.686824647942466"><ele>717.0</ele><time>2026-03-28T16:19:52Z</time></trkpt><trkpt lat="45.74750957042188" lon="9.686860797250546"><ele>717.0</ele><time>2026-03-28T16:19:57Z</time></trkpt><trkpt lat="45.7474437799061" lon="9.68685450914184"><ele>717.0</ele><time>2026-03-28T16:20:03Z</time></trkpt><trkpt lat="45.747379361847045" lon="9.686883800482104"><ele>715.5714285714286</ele><time>2026-03-28T16:20:12Z</time></trkpt><trkpt lat="45.74730571893094" lon="9.686887326981827"><ele>714.1428571428571</ele><time>2026-03-28T16:20:19Z</time></trkpt><trkpt lat="45.74723087507033" lon="9.686900728186995"><ele>712.7142857142858</ele><time>2026-03-28T16:20:25Z</time></trkpt><trkpt lat="45.747160876522535" lon="9.68688467681308"><ele>711.2857142857142</ele><time>2026-03-28T16:20:31Z</time></trkpt><trkpt lat="45.747102083822554" lon="9.686851291972863"><ele>709.8571428571429</ele><time>2026-03-28T16:20:36Z</time></trkpt><trkpt lat="45.74703079704167" lon="9.686831640750574"><ele>708.4285714285714</ele><time>2026-03-28T16:20:41Z</time></trkpt><trkpt lat="45.74696041886489" lon="9.68684581441934"><ele>707.0</ele><time>2026-03-28T16:20:46Z</time></trkpt><trkpt lat="45.74689923138153" lon="9.686804239339919"><ele>706.8571428571429</ele><time>2026-03-28T16:20:52Z</time></trkpt><trkpt lat="45.746825845046025" lon="9.686797724549015"><ele>706.7142857142858</ele><time>2026-03-28T16:20:58Z</time></trkpt><trkpt lat="45.74675083610663" lon="9.686784433487277"><ele>706.5714285714286</ele><time>2026-03-28T16:21:04Z</time></trkpt><trkpt lat="45.746678784635506" lon="9.686759628457748"><ele>706.4285714285714</ele><time>2026-03-28T16:21:10Z</time></trkpt><trkpt lat="45.74661415339978" lon="9.686765420360839"><ele>706.2857142857143</ele><time>2026-03-28T16:21:21Z</time></trkpt><trkpt lat="45.74655657482681" lon="9.686718743834733"><ele>706.1428571428571</ele><time>2026-03-28T16:21:28.999Z</time></trkpt><trkpt lat="45.74650039884676" lon="9.686676958808892"><ele>706.0</ele><time>2026-03-28T16:21:33.999Z</time></trkpt><trkpt lat="45.74644377448622" lon="9.686619719024227"><ele>706.0</ele><time>2026-03-28T16:21:39.999Z</time></trkpt><trkpt lat="45.74638711238272" lon="9.686576787494412"><ele>706.0</ele><time>2026-03-28T16:21:44.999Z</time></trkpt><trkpt lat="45.74633127491814" lon="9.68653509128587"><ele>706.0</ele><time>2026-03-28T16:21:51Z</time></trkpt><trkpt lat="45.74626899569757" lon="9.686512057708859"><ele>706.0</ele><time>2026-03-28T16:21:57Z</time></trkpt><trkpt lat="45.74620875301294" lon="9.686474667193302"><ele>706.0</ele><time>2026-03-28T16:22:02Z</time></trkpt><trkpt lat="45.74614606825254" lon="9.686419882115445"><ele>706.0</ele><time>2026-03-28T16:22:08Z</time></trkpt><trkpt lat="45.746092886458825" lon="9.686365547082978"><ele>706.0</ele><time>2026-03-28T16:22:17Z</time></trkpt><trkpt lat="45.74606164191041" lon="9.686278761537165"><ele>706.1428571428571</ele><time>2026-03-28T16:22:24Z</time></trkpt><trkpt lat="45.74601441757078" lon="9.68620092737844"><ele>706.2857142857143</ele><time>2026-03-28T16:22:30Z</time></trkpt><trkpt lat="45.745945482029896" lon="9.686169488594876"><ele>706.4285714285714</ele><time>2026-03-28T16:22:35Z</time></trkpt><trkpt lat="45.74588359183068" lon="9.68612250126131"><ele>706.5714285714286</ele><time>2026-03-28T16:22:40Z</time></trkpt><trkpt lat="45.74582900386473" lon="9.686064853752006"><ele>706.7142857142858</ele><time>2026-03-28T16:22:45Z</time></trkpt><trkpt lat="45.745755643676866" lon="9.686056498823527"><ele>706.8571428571429</ele><time>2026-03-28T16:22:54Z</time></trkpt><trkpt lat="45.74568884043454" lon="9.686031964628796"><ele>707.0</ele><time>2026-03-28T16:23:00Z</time></trkpt><trkpt lat="45.745627106977615" lon="9.686061567849904"><ele>707.0</ele><time>2026-03-28T16:23:05Z</time></trkpt><trkpt lat="45.745576506895155" lon="9.686116118163978"><ele>707.0</ele><time>2026-03-28T16:23:11Z</time></trkpt><trkpt lat="45.74550862650185" lon="9.686135525359095"><ele>707.0</ele><time>2026-03-28T16:23:17Z</time></trkpt><trkpt lat="45.74546529057777" lon="9.686212140391598"><ele>707.0</ele><time>2026-03-28T16:23:22.999Z</time></trkpt><trkpt lat="45.74539465754906" lon="9.686258378032596"><ele>707.0</ele><time>2026-03-28T16:23:28.999Z</time></trkpt><trkpt lat="45.745325100448696" lon="9.686293733571363"><ele>707.0</ele><time>2026-03-28T16:23:33.999Z</time></trkpt><trkpt lat="45.745283726458894" lon="9.686363553313491"><ele>707.0</ele><time>2026-03-28T16:23:39.999Z</time></trkpt><trkpt lat="45.745230055781704" lon="9.686425150276763"><ele>705.1428571428571</ele><time>2026-03-28T16:23:45.999Z</time></trkpt><trkpt lat="45.74516258681506" lon="9.686428902406162"><ele>703.2857142857142</ele><time>2026-03-28T16:24:00Z</time></trkpt><trkpt lat="45.74509683057035" lon="9.686414427214554"><ele>701.4285714285714</ele><time>2026-03-28T16:24:18Z</time></trkpt><trkpt lat="45.745027103817826" lon="9.686374166720775"><ele>699.5714285714286</ele><time>2026-03-28T16:24:27Z</time></trkpt><trkpt lat="45.744978376172305" lon="9.68629181394011"><ele>697.7142857142857</ele><time>2026-03-28T16:24:53Z</time></trkpt><trkpt lat="45.744914615600464" lon="9.686308947267863"><ele>695.8571428571429</ele><time>2026-03-28T16:25:00Z</time></trkpt><trkpt lat="45.74485646557795" lon="9.686269709545073"><ele>694.0</ele><time>2026-03-28T16:25:05Z</time></trkpt><trkpt lat="45.74479315868316" lon="9.686144474237853"><ele>694.0</ele><time>2026-03-28T16:25:17Z</time></trkpt><trkpt lat="45.744729659357816" lon="9.686124293592421"><ele>694.0</ele><time>2026-03-28T16:25:21.999Z</time></trkpt><trkpt lat="45.744669236913836" lon="9.686096227317778"><ele>694.0</ele><time>2026-03-28T16:25:29.999Z</time></trkpt><trkpt lat="45.74460019233694" lon="9.686026402966109"><ele>694.0</ele><time>2026-03-28T16:25:36.999Z</time></trkpt><trkpt lat="45.744555044433575" lon="9.685955736269962"><ele>694.0</ele><time>2026-03-28T16:25:40.999Z</time></trkpt><trkpt lat="45.74450351094606" lon="9.685900654290677"><ele>694.0</ele><time>2026-03-28T16:25:44.999Z</time></trkpt><trkpt lat="45.74443268427295" lon="9.68587104182132"><ele>694.0</ele><time>2026-03-28T16:25:51.999Z</time></trkpt><trkpt lat="45.744364896795915" lon="9.685826630200731"><ele>692.4285714285714</ele><time>2026-03-28T16:25:57.999Z</time></trkpt><trkpt lat="45.74430681099395" lon="9.685776229496843"><ele>690.8571428571428</ele><time>2026-03-28T16:26:03Z</time></trkpt><trkpt lat="45.744294163898985" lon="9.685682986015406"><ele>689.2857142857142</ele><time>2026-03-28T16:26:06Z</time></trkpt><trkpt lat="45.74422103568832" lon="9.68569119810815"><ele>687.7142857142858</ele><time>2026-03-28T16:26:10Z</time></trkpt><trkpt lat="45.744170846984154" lon="9.685620238428571"><ele>686.1428571428571</ele><time>2026-03-28T16:26:16Z</time></trkpt><trkpt lat="45.74410727960017" lon="9.685602805207267"><ele>684.5714285714286</ele><time>2026-03-28T16:26:21Z</time></trkpt><trkpt lat="45.74404573139504" lon="9.685570801638388"><ele>683.0</ele><time>2026-03-28T16:26:26Z</time></trkpt><trkpt lat="45.743984928134445" lon="9.685607753576326"><ele>683.0</ele><time>2026-03-28T16:26:34Z</time></trkpt><trkpt lat="45.7439606232556" lon="9.6857118023107"><ele>683.0</ele><time>2026-03-28T16:26:38Z</time></trkpt><trkpt lat="45.743943867818814" lon="9.685821053151932"><ele>683.0</ele><time>2026-03-28T16:26:43Z</time></trkpt><trkpt lat="45.74390611525771" lon="9.68589846081956"><ele>683.0</ele><time>2026-03-28T16:26:48Z</time></trkpt><trkpt lat="45.743910128972345" lon="9.685990312508512"><ele>683.0</ele><time>2026-03-28T16:26:54Z</time></trkpt><trkpt lat="45.74383735400289" lon="9.685990855496472"><ele>683.0</ele><time>2026-03-28T16:27:02Z</time></trkpt><trkpt lat="45.74368615257477" lon="9.68602095985502"><ele>683.0</ele><time>2026-03-28T16:27:17Z</time></trkpt><trkpt lat="45.743600585244025" lon="9.686003646220163"><ele>683.0</ele><time>2026-03-28T16:27:42Z</time></trkpt><trkpt lat="45.743541656176" lon="9.685954159804453"><ele>683.0</ele><time>2026-03-28T16:27:49.999Z</time></trkpt><trkpt lat="45.74346215224613" lon="9.685943243484417"><ele>683.0</ele><time>2026-03-28T16:27:59.999Z</time></trkpt><trkpt lat="45.743398237635" lon="9.685999457433768"><ele>683.0</ele><time>2026-03-28T16:28:03.999Z</time></trkpt><trkpt lat="45.74332308193277" lon="9.686042756414063"><ele>683.0</ele><time>2026-03-28T16:28:10Z</time></trkpt><trkpt lat="45.74327043222348" lon="9.6861029863635"><ele>682.0</ele><time>2026-03-28T16:28:22Z</time></trkpt><trkpt lat="45.74324608128745" lon="9.686199864891227"><ele>681.0</ele><time>2026-03-28T16:28:27Z</time></trkpt><trkpt lat="45.74317498262685" lon="9.686229839087048"><ele>680.0</ele><time>2026-03-28T16:28:32Z</time></trkpt><trkpt lat="45.74310615456861" lon="9.686270998780236"><ele>679.0</ele><time>2026-03-28T16:28:40Z</time></trkpt><trkpt lat="45.743042681199796" lon="9.68632186790255"><ele>678.0</ele><time>2026-03-28T16:28:50Z</time></trkpt><trkpt lat="45.7430217137641" lon="9.686407805771559"><ele>677.0</ele><time>2026-03-28T16:28:56Z</time></trkpt><trkpt lat="45.74297231618041" lon="9.686473185681093"><ele>676.0</ele><time>2026-03-28T16:29:01Z</time></trkpt><trkpt lat="45.74291385957841" lon="9.686507056223947"><ele>676.0</ele><time>2026-03-28T16:29:09Z</time></trkpt><trkpt lat="45.742871692450485" lon="9.686600255771458"><ele>676.0</ele><time>2026-03-28T16:29:17Z</time></trkpt><trkpt lat="45.74280003501273" lon="9.686631565260491"><ele>676.0</ele><time>2026-03-28T16:29:25Z</time></trkpt><trkpt lat="45.7427410147736" lon="9.686671779444792"><ele>676.0</ele><time>2026-03-28T16:29:30Z</time></trkpt><trkpt lat="45.742692883314824" lon="9.686734832324934"><ele>676.0</ele><time>2026-03-28T16:29:37Z</time></trkpt><trkpt lat="45.7426283242736" lon="9.686753588641178"><ele>676.0</ele><time>2026-03-28T16:29:45Z</time></trkpt><trkpt lat="45.742559974346904" lon="9.686777622736162"><ele>676.0</ele><time>2026-03-28T16:29:52Z</time></trkpt><trkpt lat="45.74249590956277" lon="9.686796199562767"><ele>674.4</ele><time>2026-03-28T16:29:56Z</time></trkpt><trkpt lat="45.74242693918905" lon="9.686863552326141"><ele>672.8</ele><time>2026-03-28T16:30:02.999Z</time></trkpt><trkpt lat="45.74237585960453" lon="9.686773241682449"><ele>671.1999999999999</ele><time>2026-03-28T16:30:13.999Z</time></trkpt><trkpt lat="45.74232798474338" lon="9.686858023293171"><ele>669.5999999999999</ele><time>2026-03-28T16:30:17Z</time></trkpt><trkpt lat="45.74222961211798" lon="9.68700337813659"><ele>668.0</ele><time>2026-03-28T16:30:25Z</time></trkpt><trkpt lat="45.742208897040776" lon="9.68711221129071"><ele>668.0</ele><time>2026-03-28T16:30:36Z</time></trkpt><trkpt lat="45.74212815598228" lon="9.687215850818218"><ele>668.0</ele><time>2026-03-28T16:30:38Z</time></trkpt><trkpt lat="45.74205193808673" lon="9.687255037271811"><ele>668.0</ele><time>2026-03-28T16:30:45Z</time></trkpt><trkpt lat="45.74199039367628" lon="9.687282499758062"><ele>668.0</ele><time>2026-03-28T16:30:50Z</time></trkpt><trkpt lat="45.741924292345125" lon="9.687355269096463"><ele>668.0</ele><time>2026-03-28T16:30:56Z</time></trkpt><trkpt lat="45.74186105272254" lon="9.68738055745575"><ele>668.0</ele><time>2026-03-28T16:31:02Z</time></trkpt><trkpt lat="45.74180046745868" lon="9.68740994683"><ele>670.1428571428571</ele><time>2026-03-28T16:31:08Z</time></trkpt><trkpt lat="45.74174350652322" lon="9.687448459052273"><ele>672.2857142857143</ele><time>2026-03-28T16:31:14Z</time></trkpt><trkpt lat="45.741673392967314" lon="9.687481682045522"><ele>674.4285714285714</ele><time>2026-03-28T16:31:19Z</time></trkpt><trkpt lat="45.741618218553945" lon="9.687532391793884"><ele>676.5714285714286</ele><time>2026-03-28T16:31:25Z</time></trkpt><trkpt lat="45.74154748056493" lon="9.687559486990628"><ele>678.7142857142857</ele><time>2026-03-28T16:31:31Z</time></trkpt><trkpt lat="45.74148078323637" lon="9.687613102280363"><ele>680.8571428571429</ele><time>2026-03-28T16:31:38Z</time></trkpt><trkpt lat="45.74142393345689" lon="9.687672714459996"><ele>683.0</ele><time>2026-03-28T16:31:42Z</time></trkpt><trkpt lat="45.74135675463708" lon="9.687712209337993"><ele>681.5</ele><time>2026-03-28T16:31:49Z</time></trkpt><trkpt lat="45.741328257051705" lon="9.687792735392033"><ele>680.0</ele><time>2026-03-28T16:31:57Z</time></trkpt><trkpt lat="45.741264752809606" lon="9.687843584396305"><ele>678.5</ele><time>2026-03-28T16:32:02Z</time></trkpt><trkpt lat="45.74118989596573" lon="9.687879501020955"><ele>677.0</ele><time>2026-03-28T16:32:11Z</time></trkpt><trkpt lat="45.74111735115518" lon="9.687897914497427"><ele>675.5</ele><time>2026-03-28T16:32:18Z</time></trkpt><trkpt lat="45.74103182263069" lon="9.687956236678458"><ele>674.0</ele><time>2026-03-28T16:32:25Z</time></trkpt><trkpt lat="45.740975229739995" lon="9.688028604386064"><ele>674.0000000000001</ele><time>2026-03-28T16:32:35Z</time></trkpt><trkpt lat="45.740957561039615" lon="9.688118011681915"><ele>674.0</ele><time>2026-03-28T16:32:36Z</time></trkpt><trkpt lat="45.74094990127446" lon="9.688023582294978"><ele>674.0</ele><time>2026-03-28T16:32:37Z</time></trkpt><trkpt lat="45.740880884305106" lon="9.688093732533073"><ele>674.0</ele><time>2026-03-28T16:32:46Z</time></trkpt><trkpt lat="45.740801488736665" lon="9.688097514579828"><ele>674.0</ele><time>2026-03-28T16:32:53Z</time></trkpt><trkpt lat="45.74073512033317" lon="9.688141390733504"><ele>674.0000000000001</ele><time>2026-03-28T16:33:05Z</time></trkpt><trkpt lat="45.740673728037834" lon="9.688186059890663"><ele>674.0</ele><time>2026-03-28T16:33:14Z</time></trkpt><trkpt lat="45.740604725268376" lon="9.688208254767877"><ele>674.0000000000001</ele><time>2026-03-28T16:33:20Z</time></trkpt><trkpt lat="45.74053820135601" lon="9.68826476080401"><ele>674.0</ele><time>2026-03-28T16:33:25Z</time></trkpt><trkpt lat="45.74048900211507" lon="9.68833677837928"><ele>674.0</ele><time>2026-03-28T16:33:32Z</time></trkpt><trkpt lat="45.740429742177184" lon="9.688301692058777"><ele>674.0</ele><time>2026-03-28T16:33:36Z</time></trkpt><trkpt lat="45.740362885535916" lon="9.6883104017566"><ele>674.0</ele><time>2026-03-28T16:33:42Z</time></trkpt><trkpt lat="45.74029303486336" lon="9.688302465176312"><ele>674.0000000000001</ele><time>2026-03-28T16:33:48Z</time></trkpt><trkpt lat="45.74022308795668" lon="9.688313519278209"><ele>674.0</ele><time>2026-03-28T16:33:54Z</time></trkpt><trkpt lat="45.740152214235415" lon="9.688329662296407"><ele>675.1428571428572</ele><time>2026-03-28T16:34:01Z</time></trkpt><trkpt lat="45.74008334127378" lon="9.688322997464422"><ele>676.2857142857143</ele><time>2026-03-28T16:34:08Z</time></trkpt><trkpt lat="45.740010092899496" lon="9.688342587194278"><ele>677.4285714285714</ele><time>2026-03-28T16:34:14Z</time></trkpt><trkpt lat="45.73994933568745" lon="9.688316259630053"><ele>678.5714285714287</ele><time>2026-03-28T16:34:18Z</time></trkpt><trkpt lat="45.73987680485748" lon="9.688337542887112"><ele>679.7142857142858</ele><time>2026-03-28T16:34:25Z</time></trkpt><trkpt lat="45.73981556505836" lon="9.688374419758132"><ele>680.8571428571429</ele><time>2026-03-28T16:34:31Z</time></trkpt><trkpt lat="45.73974356053624" lon="9.688378971389852"><ele>682.0</ele><time>2026-03-28T16:34:36Z</time></trkpt><trkpt lat="45.739665883051444" lon="9.688384209612787"><ele>682.0</ele><time>2026-03-28T16:34:42Z</time></trkpt><trkpt lat="45.73958520656989" lon="9.68835052494988"><ele>682.0</ele><time>2026-03-28T16:34:49Z</time></trkpt><trkpt lat="45.739542765904275" lon="9.688270147310723"><ele>682.0</ele><time>2026-03-28T16:34:55Z</time></trkpt><trkpt lat="45.73947883514555" lon="9.688287545602845"><ele>682.0</ele><time>2026-03-28T16:35:02Z</time></trkpt><trkpt lat="45.739413222014576" lon="9.688294425888438"><ele>682.0</ele><time>2026-03-28T16:35:11Z</time></trkpt><trkpt lat="45.7393504275448" lon="9.68826033801068"><ele>682.0</ele><time>2026-03-28T16:35:15Z</time></trkpt><trkpt lat="45.73928550755353" lon="9.688236762822642"><ele>682.0</ele><time>2026-03-28T16:35:18Z</time></trkpt><trkpt lat="45.739217115156386" lon="9.688203558918811"><ele>681.1428571428571</ele><time>2026-03-28T16:35:22Z</time></trkpt><trkpt lat="45.73915025378463" lon="9.688181056247375"><ele>680.2857142857143</ele><time>2026-03-28T16:35:27Z</time></trkpt><trkpt lat="45.73907739916564" lon="9.688152545968437"><ele>679.4285714285714</ele><time>2026-03-28T16:35:32Z</time></trkpt><trkpt lat="45.73900630220587" lon="9.688171431625758"><ele>678.5714285714286</ele><time>2026-03-28T16:35:37Z</time></trkpt><trkpt lat="45.73894626016705" lon="9.68822231685704"><ele>677.7142857142857</ele><time>2026-03-28T16:35:43Z</time></trkpt><trkpt lat="45.73888794088433" lon="9.688259058810468"><ele>676.8571428571429</ele><time>2026-03-28T16:35:51Z</time></trkpt><trkpt lat="45.7388338110388" lon="9.688310926919781"><ele>676.0</ele><time>2026-03-28T16:35:59Z</time></trkpt><trkpt lat="45.73879409908298" lon="9.68838865752307"><ele>676.0</ele><time>2026-03-28T16:36:10Z</time></trkpt><trkpt lat="45.7387286087501" lon="9.688333790755598"><ele>676.0</ele><time>2026-03-28T16:36:19Z</time></trkpt><trkpt lat="45.7387326037591" lon="9.688434921148104"><ele>676.0</ele><time>2026-03-28T16:36:30Z</time></trkpt><trkpt lat="45.73867442956474" lon="9.688478451109804"><ele>676.0</ele><time>2026-03-28T16:36:42Z</time></trkpt><trkpt lat="45.73860662380516" lon="9.688482388555798"><ele>676.0</ele><time>2026-03-28T16:36:48Z</time></trkpt><trkpt lat="45.738540777460955" lon="9.688505100660928"><ele>676.0</ele><time>2026-03-28T16:36:56Z</time></trkpt><trkpt lat="45.73846569975513" lon="9.688466750159712"><ele>676.0</ele><time>2026-03-28T16:37:15Z</time></trkpt><trkpt lat="45.73840059177326" lon="9.6884221814708"><ele>675.8571428571429</ele><time>2026-03-28T16:37:20Z</time></trkpt><trkpt lat="45.73833703561929" lon="9.688388467155535"><ele>675.7142857142857</ele><time>2026-03-28T16:37:25Z</time></trkpt><trkpt lat="45.738260511035215" lon="9.68837276852609"><ele>675.5714285714286</ele><time>2026-03-28T16:37:31Z</time></trkpt><trkpt lat="45.73817435933261" lon="9.688380074666636"><ele>675.4285714285714</ele><time>2026-03-28T16:37:37Z</time></trkpt><trkpt lat="45.738110328503524" lon="9.688410895452806"><ele>675.2857142857143</ele><time>2026-03-28T16:37:45Z</time></trkpt><trkpt lat="45.738043523353966" lon="9.688432440551699"><ele>675.1428571428571</ele><time>2026-03-28T16:37:51Z</time></trkpt><trkpt lat="45.737979274155954" lon="9.688448937147944"><ele>675.0</ele><time>2026-03-28T16:37:56Z</time></trkpt><trkpt lat="45.73791560909568" lon="9.68848507534605"><ele>675.0</ele><time>2026-03-28T16:38:01Z</time></trkpt><trkpt lat="45.737851208466566" lon="9.688505546712904"><ele>675.0</ele><time>2026-03-28T16:38:07Z</time></trkpt><trkpt lat="45.73778809094393" lon="9.688531336846669"><ele>675.0</ele><time>2026-03-28T16:38:13Z</time></trkpt><trkpt lat="45.737726171026985" lon="9.688566591460585"><ele>675.0</ele><time>2026-03-28T16:38:19Z</time></trkpt><trkpt lat="45.73766719673118" lon="9.688603592927475"><ele>675.0</ele><time>2026-03-28T16:38:26Z</time></trkpt><trkpt lat="45.73760284220602" lon="9.688642363470743"><ele>675.0</ele><time>2026-03-28T16:38:32Z</time></trkpt><trkpt lat="45.737546987702146" lon="9.688695658841796"><ele>675.0</ele><time>2026-03-28T16:38:38Z</time></trkpt><trkpt lat="45.737488382490284" lon="9.688735244784922"><ele>676.4285714285714</ele><time>2026-03-28T16:38:42Z</time></trkpt><trkpt lat="45.73743339043031" lon="9.688779661378256"><ele>677.8571428571429</ele><time>2026-03-28T16:38:48Z</time></trkpt><trkpt lat="45.737369861882875" lon="9.68882283027172"><ele>679.2857142857142</ele><time>2026-03-28T16:38:54Z</time></trkpt><trkpt lat="45.73730194643755" lon="9.688843732548381"><ele>680.7142857142858</ele><time>2026-03-28T16:39:00Z</time></trkpt><trkpt lat="45.73723309777387" lon="9.688856771132569"><ele>682.1428571428572</ele><time>2026-03-28T16:39:06Z</time></trkpt><trkpt lat="45.73716791010934" lon="9.688889991919975"><ele>683.5714285714286</ele><time>2026-03-28T16:39:12Z</time></trkpt><trkpt lat="45.73710650515033" lon="9.688931963279549"><ele>685.0</ele><time>2026-03-28T16:39:18Z</time></trkpt><trkpt lat="45.7370493651418" lon="9.688993567127378"><ele>685.0</ele><time>2026-03-28T16:39:24Z</time></trkpt><trkpt lat="45.73697774964086" lon="9.689013096677941"><ele>685.0</ele><time>2026-03-28T16:39:32Z</time></trkpt><trkpt lat="45.736910966749" lon="9.689027676272076"><ele>685.0</ele><time>2026-03-28T16:39:37Z</time></trkpt><trkpt lat="45.7368046943601" lon="9.689069335773862"><ele>685.0</ele><time>2026-03-28T16:39:56Z</time></trkpt><trkpt lat="45.73667698896478" lon="9.68900073442638"><ele>685.0</ele><time>2026-03-28T16:39:57Z</time></trkpt><trkpt lat="45.73661219342203" lon="9.689016679764785"><ele>683.4285714285714</ele><time>2026-03-28T16:40:18Z</time></trkpt><trkpt lat="45.73653823823702" lon="9.688995863723134"><ele>681.8571428571429</ele><time>2026-03-28T16:40:25Z</time></trkpt><trkpt lat="45.73647288046487" lon="9.689025221089553"><ele>680.2857142857143</ele><time>2026-03-28T16:40:30Z</time></trkpt><trkpt lat="45.73640119310441" lon="9.68903286427336"><ele>678.7142857142858</ele><time>2026-03-28T16:40:35Z</time></trkpt><trkpt lat="45.73632833198801" lon="9.689017965983245"><ele>677.1428571428571</ele><time>2026-03-28T16:40:41.999Z</time></trkpt><trkpt lat="45.73625995420872" lon="9.689020921409206"><ele>675.5714285714287</ele><time>2026-03-28T16:40:48Z</time></trkpt><trkpt lat="45.73619011522113" lon="9.689023661005374"><ele>674.0</ele><time>2026-03-28T16:40:55Z</time></trkpt><trkpt lat="45.736131072835136" lon="9.688973078462542"><ele>674.0000000000001</ele><time>2026-03-28T16:41:01Z</time></trkpt><trkpt lat="45.736059446525026" lon="9.688938008634715"><ele>674.0</ele><time>2026-03-28T16:41:06Z</time></trkpt><trkpt lat="45.735995329747446" lon="9.68892752228238"><ele>674.0</ele><time>2026-03-28T16:41:12Z</time></trkpt><trkpt lat="45.73592932673952" lon="9.688915374568742"><ele>674.0</ele><time>2026-03-28T16:41:18Z</time></trkpt><trkpt lat="45.73586514774969" lon="9.688890187498622"><ele>674.0</ele><time>2026-03-28T16:41:24Z</time></trkpt><trkpt lat="45.73578992076069" lon="9.688857084815107"><ele>674.0000000000001</ele><time>2026-03-28T16:41:30Z</time></trkpt><trkpt lat="45.73572142271777" lon="9.688823577048389"><ele>674.0</ele><time>2026-03-28T16:41:38Z</time></trkpt><trkpt lat="45.73565791377066" lon="9.688790221119895"><ele>674.1428571428572</ele><time>2026-03-28T16:41:44Z</time></trkpt><trkpt lat="45.73559103506804" lon="9.688773819052384"><ele>674.2857142857143</ele><time>2026-03-28T16:41:50Z</time></trkpt><trkpt lat="45.73551084724676" lon="9.688751898202431"><ele>674.4285714285714</ele><time>2026-03-28T16:41:58Z</time></trkpt><trkpt lat="45.73544841405793" lon="9.68872678373247"><ele>674.5714285714287</ele><time>2026-03-28T16:42:04Z</time></trkpt><trkpt lat="45.73538342274651" lon="9.688691669057093"><ele>674.7142857142858</ele><time>2026-03-28T16:42:11Z</time></trkpt><trkpt lat="45.73531899477587" lon="9.688681531979492"><ele>674.8571428571429</ele><time>2026-03-28T16:42:19Z</time></trkpt><trkpt lat="45.735252899598386" lon="9.688679334597605"><ele>675.0</ele><time>2026-03-28T16:42:25Z</time></trkpt><trkpt lat="45.73518865470127" lon="9.688686043171867"><ele>674.2857142857142</ele><time>2026-03-28T16:42:30Z</time></trkpt><trkpt lat="45.73512170508679" lon="9.688671738171799"><ele>673.5714285714286</ele><time>2026-03-28T16:42:35.999Z</time></trkpt><trkpt lat="45.735058221392315" lon="9.688665569326236"><ele>672.8571428571429</ele><time>2026-03-28T16:42:39.999Z</time></trkpt><trkpt lat="45.734989782895255" lon="9.688643789857315"><ele>672.1428571428571</ele><time>2026-03-28T16:42:46.999Z</time></trkpt><trkpt lat="45.734937702480636" lon="9.688590359464074"><ele>671.4285714285714</ele><time>2026-03-28T16:42:53Z</time></trkpt><trkpt lat="45.734879655545875" lon="9.68854888379392"><ele>670.7142857142857</ele><time>2026-03-28T16:42:58Z</time></trkpt><trkpt lat="45.73482704013111" lon="9.688487261658453"><ele>670.0</ele><time>2026-03-28T16:43:04Z</time></trkpt><trkpt lat="45.73476800844737" lon="9.688449853951436"><ele>669.9999999999999</ele><time>2026-03-28T16:43:09Z</time></trkpt><trkpt lat="45.73471615029812" lon="9.688397521824132"><ele>670.0</ele><time>2026-03-28T16:43:15Z</time></trkpt><trkpt lat="45.734652207263665" lon="9.688336443082282"><ele>670.0</ele><time>2026-03-28T16:43:19Z</time></trkpt><trkpt lat="45.73459277895038" lon="9.688287441736742"><ele>670.0</ele><time>2026-03-28T16:43:25Z</time></trkpt><trkpt lat="45.73454466036957" lon="9.688219689775217"><ele>670.0</ele><time>2026-03-28T16:43:30Z</time></trkpt><trkpt lat="45.734523555481076" lon="9.68811781679907"><ele>669.9999999999999</ele><time>2026-03-28T16:43:35Z</time></trkpt><trkpt lat="45.73447239072425" lon="9.688063263882345"><ele>670.0</ele><time>2026-03-28T16:43:40Z</time></trkpt><trkpt lat="45.73442500863714" lon="9.688000608432803"><ele>669.9999999999999</ele><time>2026-03-28T16:43:45Z</time></trkpt><trkpt lat="45.734389833250454" lon="9.687924964957324"><ele>670.0</ele><time>2026-03-28T16:43:50Z</time></trkpt><trkpt lat="45.7343375802407" lon="9.68786871227476"><ele>670.0</ele><time>2026-03-28T16:43:55Z</time></trkpt><trkpt lat="45.73429930009258" lon="9.687793134822357"><ele>670.0</ele><time>2026-03-28T16:44:00Z</time></trkpt><trkpt lat="45.73424790368758" lon="9.687739423189885"><ele>670.0</ele><time>2026-03-28T16:44:05Z</time></trkpt><trkpt lat="45.73418295758619" lon="9.687700633690442"><ele>669.9999999999999</ele><time>2026-03-28T16:44:11Z</time></trkpt><trkpt lat="45.73413991513297" lon="9.687620829980158"><ele>670.0</ele><time>2026-03-28T16:44:17Z</time></trkpt><trkpt lat="45.73408311078256" lon="9.687568020156476"><ele>668.8571428571428</ele><time>2026-03-28T16:44:23Z</time></trkpt><trkpt lat="45.73403635749005" lon="9.687494762245814"><ele>667.7142857142857</ele><time>2026-03-28T16:44:29Z</time></trkpt><trkpt lat="45.73397475611169" lon="9.687452263780099"><ele>666.5714285714286</ele><time>2026-03-28T16:44:35Z</time></trkpt><trkpt lat="45.73392784436766" lon="9.68737474009604"><ele>665.4285714285713</ele><time>2026-03-28T16:44:40.999Z</time></trkpt><trkpt lat="45.73387908506259" lon="9.68730767099949"><ele>664.2857142857142</ele><time>2026-03-28T16:44:46.999Z</time></trkpt><trkpt lat="45.73383058680918" lon="9.687244060765329"><ele>663.1428571428571</ele><time>2026-03-28T16:44:51.999Z</time></trkpt><trkpt lat="45.73377358063863" lon="9.687184757862312"><ele>662.0</ele><time>2026-03-28T16:44:59Z</time></trkpt><trkpt lat="45.73373019679931" lon="9.687110168572898"><ele>662.0</ele><time>2026-03-28T16:45:07Z</time></trkpt><trkpt lat="45.73378168062408" lon="9.687040409591448"><ele>662.0</ele><time>2026-03-28T16:45:11Z</time></trkpt><trkpt lat="45.73379939241444" lon="9.686948542156982"><ele>662.0</ele><time>2026-03-28T16:45:15Z</time></trkpt><trkpt lat="45.73376970589741" lon="9.686861468766027"><ele>662.0</ele><time>2026-03-28T16:45:20Z</time></trkpt><trkpt lat="45.73370132504476" lon="9.68683559505324"><ele>662.0</ele><time>2026-03-28T16:45:24Z</time></trkpt><trkpt lat="45.733626782932454" lon="9.68681976957581"><ele>662.0</ele><time>2026-03-28T16:45:29Z</time></trkpt><trkpt lat="45.73355418404381" lon="9.68680495071116"><ele>662.0</ele><time>2026-03-28T16:45:35Z</time></trkpt><trkpt lat="45.733476722515064" lon="9.686785016930266"><ele>660.2857142857143</ele><time>2026-03-28T16:45:40Z</time></trkpt><trkpt lat="45.7334120566204" lon="9.686792606765513"><ele>658.5714285714286</ele><time>2026-03-28T16:45:44Z</time></trkpt><trkpt lat="45.733338596084224" lon="9.686782203141973"><ele>656.8571428571429</ele><time>2026-03-28T16:45:50Z</time></trkpt><trkpt lat="45.73326647862549" lon="9.686753639595617"><ele>655.1428571428571</ele><time>2026-03-28T16:45:56Z</time></trkpt><trkpt lat="45.733206146950685" lon="9.686692285296553"><ele>653.4285714285714</ele><time>2026-03-28T16:46:01Z</time></trkpt><trkpt lat="45.73313666971597" lon="9.686651053768305"><ele>651.7142857142857</ele><time>2026-03-28T16:46:07Z</time></trkpt><trkpt lat="45.73307345699504" lon="9.686629291485685"><ele>650.0</ele><time>2026-03-28T16:46:12Z</time></trkpt><trkpt lat="45.73299381875293" lon="9.686616510726468"><ele>650.0</ele><time>2026-03-28T16:46:23Z</time></trkpt><trkpt lat="45.732924725883436" lon="9.686604427548394"><ele>650.0</ele><time>2026-03-28T16:46:30Z</time></trkpt><trkpt lat="45.732855136163906" lon="9.686598413358476"><ele>650.0</ele><time>2026-03-28T16:46:38Z</time></trkpt><trkpt lat="45.73279164000908" lon="9.686576115381683"><ele>650.0</ele><time>2026-03-28T16:46:45Z</time></trkpt><trkpt lat="45.732727729337824" lon="9.686566546877323"><ele>650.0</ele><time>2026-03-28T16:46:50.999Z</time></trkpt><trkpt lat="45.73266177858267" lon="9.686580326268489"><ele>650.0</ele><time>2026-03-28T16:46:55.999Z</time></trkpt><trkpt lat="45.732594429774466" lon="9.68658673180365"><ele>650.0</ele><time>2026-03-28T16:47:01.999Z</time></trkpt><trkpt lat="45.73252549823478" lon="9.686566103957661"><ele>649.4</ele><time>2026-03-28T16:47:08Z</time></trkpt><trkpt lat="45.73246029062842" lon="9.686564320219393"><ele>648.8</ele><time>2026-03-28T16:47:18Z</time></trkpt><trkpt lat="45.73238065261596" lon="9.686587199751811"><ele>648.2</ele><time>2026-03-28T16:47:23Z</time></trkpt><trkpt lat="45.732308739965404" lon="9.686595716161683"><ele>647.6</ele><time>2026-03-28T16:47:28Z</time></trkpt><trkpt lat="45.73238710411454" lon="9.686516560623128"><ele>647.0</ele><time>2026-03-28T16:47:29Z</time></trkpt><trkpt lat="45.73224171812363" lon="9.686699804295118"><ele>647.0</ele><time>2026-03-28T16:47:35Z</time></trkpt><trkpt lat="45.73220771125898" lon="9.686620999209843"><ele>647.0</ele><time>2026-03-28T16:47:44Z</time></trkpt><trkpt lat="45.73213784176827" lon="9.68659034215123"><ele>647.0</ele><time>2026-03-28T16:47:54Z</time></trkpt><trkpt lat="45.73207175853545" lon="9.68655768588654"><ele>647.0</ele><time>2026-03-28T16:47:59Z</time></trkpt><trkpt lat="45.73200563633463" lon="9.68658103866759"><ele>647.0</ele><time>2026-03-28T16:48:06Z</time></trkpt><trkpt lat="45.73194375579238" lon="9.686625844217833"><ele>647.0</ele><time>2026-03-28T16:48:12Z</time></trkpt><trkpt lat="45.7318834468106" lon="9.686669903664118"><ele>647.0</ele><time>2026-03-28T16:48:19Z</time></trkpt><trkpt lat="45.73181988941002" lon="9.686713264800737"><ele>644.4285714285714</ele><time>2026-03-28T16:48:26Z</time></trkpt><trkpt lat="45.73174859962501" lon="9.686758947473948"><ele>641.8571428571429</ele><time>2026-03-28T16:48:31Z</time></trkpt><trkpt lat="45.73168006355535" lon="9.68678715734626"><ele>639.2857142857142</ele><time>2026-03-28T16:48:35.999Z</time></trkpt><trkpt lat="45.73161546556269" lon="9.686804966204113"><ele>636.7142857142858</ele><time>2026-03-28T16:48:40.999Z</time></trkpt><trkpt lat="45.73155355616301" lon="9.686760083690281"><ele>634.1428571428572</ele><time>2026-03-28T16:48:49.999Z</time></trkpt><trkpt lat="45.73158377437559" lon="9.686851470159498"><ele>631.5714285714286</ele><time>2026-03-28T16:49:02.999Z</time></trkpt><trkpt lat="45.731559180603135" lon="9.686953245058918"><ele>629.0</ele><time>2026-03-28T16:49:18Z</time></trkpt><trkpt lat="45.73146478874977" lon="9.686997089554415"><ele>629.0</ele><time>2026-03-28T16:49:20Z</time></trkpt><trkpt lat="45.73140641767944" lon="9.686923215362738"><ele>629.0</ele><time>2026-03-28T16:49:39Z</time></trkpt><trkpt lat="45.73134822837873" lon="9.686991693823623"><ele>629.0</ele><time>2026-03-28T16:49:46Z</time></trkpt><trkpt lat="45.731282656771704" lon="9.68698789304248"><ele>629.0</ele><time>2026-03-28T16:49:50Z</time></trkpt><trkpt lat="45.731219902038085" lon="9.687014248809923"><ele>629.0</ele><time>2026-03-28T16:49:56Z</time></trkpt><trkpt lat="45.7311646055429" lon="9.687084353886702"><ele>629.0</ele><time>2026-03-28T16:50:01Z</time></trkpt><trkpt lat="45.73109610914987" lon="9.68711258036158"><ele>629.0</ele><time>2026-03-28T16:50:06Z</time></trkpt><trkpt lat="45.73102327347861" lon="9.687092404566728"><ele>625.4285714285714</ele><time>2026-03-28T16:50:10Z</time></trkpt><trkpt lat="45.73095811685543" lon="9.687027749829934"><ele>621.8571428571429</ele><time>2026-03-28T16:50:14Z</time></trkpt><trkpt lat="45.730898822200224" lon="9.686990346499359"><ele>618.2857142857143</ele><time>2026-03-28T16:50:18Z</time></trkpt><trkpt lat="45.73085065729917" lon="9.686927679820423"><ele>614.7142857142858</ele><time>2026-03-28T16:50:22Z</time></trkpt><trkpt lat="45.73079420248613" lon="9.68697965443137"><ele>611.1428571428571</ele><time>2026-03-28T16:50:26Z</time></trkpt><trkpt lat="45.73074706633067" lon="9.687055583750176"><ele>607.5714285714287</ele><time>2026-03-28T16:50:30Z</time></trkpt><trkpt lat="45.730697908642796" lon="9.687114195870965"><ele>604.0</ele><time>2026-03-28T16:50:36Z</time></trkpt><trkpt lat="45.73067899382385" lon="9.687214204901988"><ele>604.0</ele><time>2026-03-28T16:50:41Z</time></trkpt><trkpt lat="45.730610095569986" lon="9.687237311045891"><ele>604.0</ele><time>2026-03-28T16:50:45.999Z</time></trkpt><trkpt lat="45.73054469479636" lon="9.687261650649447"><ele>604.0</ele><time>2026-03-28T16:50:54.999Z</time></trkpt><trkpt lat="45.730471741060406" lon="9.687268858070176"><ele>604.0</ele><time>2026-03-28T16:50:56.999Z</time></trkpt><trkpt lat="45.730399871894946" lon="9.687321967361537"><ele>604.0</ele><time>2026-03-28T16:50:59.999Z</time></trkpt><trkpt lat="45.7303391694522" lon="9.687386879281066"><ele>604.0</ele><time>2026-03-28T16:51:03.999Z</time></trkpt><trkpt lat="45.73025295709817" lon="9.687472235255617"><ele>601.6666666666667</ele><time>2026-03-28T16:51:06.999Z</time></trkpt><trkpt lat="45.73019640773464" lon="9.687573529030475"><ele>599.3333333333334</ele><time>2026-03-28T16:51:08.999Z</time></trkpt><trkpt lat="45.730126554371" lon="9.687662019541376"><ele>597.0</ele><time>2026-03-28T16:51:10.999Z</time></trkpt><trkpt lat="45.7300280139064" lon="9.687681410277756"><ele>594.6666666666666</ele><time>2026-03-28T16:51:13.999Z</time></trkpt><trkpt lat="45.729954165807456" lon="9.687711610696049"><ele>592.3333333333333</ele><time>2026-03-28T16:51:17Z</time></trkpt><trkpt lat="45.72989053879962" lon="9.687739605215757"><ele>590.0</ele><time>2026-03-28T16:51:19Z</time></trkpt><trkpt lat="45.729824832609616" lon="9.687811568310233"><ele>588.1428571428572</ele><time>2026-03-28T16:51:22Z</time></trkpt><trkpt lat="45.729774839813636" lon="9.68789376955365"><ele>586.2857142857143</ele><time>2026-03-28T16:51:24Z</time></trkpt><trkpt lat="45.729724546835264" lon="9.687958924646438"><ele>584.4285714285714</ele><time>2026-03-28T16:51:26Z</time></trkpt><trkpt lat="45.7296593649233" lon="9.687967379492836"><ele>582.5714285714287</ele><time>2026-03-28T16:51:28Z</time></trkpt><trkpt lat="45.72958374441396" lon="9.68799022624827"><ele>580.7142857142858</ele><time>2026-03-28T16:51:30Z</time></trkpt><trkpt lat="45.72952983677759" lon="9.687939065850667"><ele>578.8571428571429</ele><time>2026-03-28T16:51:32Z</time></trkpt><trkpt lat="45.7294423150206" lon="9.687900569985642"><ele>577.0</ele><time>2026-03-28T16:51:35Z</time></trkpt><trkpt lat="45.72936118417448" lon="9.687924012444556"><ele>577.0</ele><time>2026-03-28T16:51:38Z</time></trkpt><trkpt lat="45.729284907456005" lon="9.68796489514829"><ele>577.0</ele><time>2026-03-28T16:51:41Z</time></trkpt><trkpt lat="45.72921363156422" lon="9.688017430521256"><ele>577.0</ele><time>2026-03-28T16:51:43Z</time></trkpt><trkpt lat="45.7291513617803" lon="9.688103075340564"><ele>577.0</ele><time>2026-03-28T16:51:45Z</time></trkpt><trkpt lat="45.729140535386556" lon="9.688226543161017"><ele>577.0</ele><time>2026-03-28T16:51:47Z</time></trkpt><trkpt lat="45.729118987047634" lon="9.688315538566307"><ele>577.0</ele><time>2026-03-28T16:51:49Z</time></trkpt><trkpt lat="45.72905504086417" lon="9.688362747587094"><ele>577.0</ele><time>2026-03-28T16:51:51Z</time></trkpt><trkpt lat="45.728974893876995" lon="9.688427013811086"><ele>577.0</ele><time>2026-03-28T16:51:54Z</time></trkpt><trkpt lat="45.72892428614096" lon="9.688492441714859"><ele>577.0</ele><time>2026-03-28T16:51:56Z</time></trkpt><trkpt lat="45.728860047502955" lon="9.68851057322004"><ele>577.0</ele><time>2026-03-28T16:51:58Z</time></trkpt><trkpt lat="45.728785571467895" lon="9.688522395646734"><ele>577.0</ele><time>2026-03-28T16:52:01Z</time></trkpt><trkpt lat="45.72870702059987" lon="9.688563400530688"><ele>577.0</ele><time>2026-03-28T16:52:05Z</time></trkpt><trkpt lat="45.728654648936356" lon="9.688622654107808"><ele>575.0</ele><time>2026-03-28T16:52:11Z</time></trkpt><trkpt lat="45.728597450108275" lon="9.688660398769532"><ele>573.0</ele><time>2026-03-28T16:52:20Z</time></trkpt><trkpt lat="45.72852838372097" lon="9.688681021641374"><ele>571.0</ele><time>2026-03-28T16:52:26Z</time></trkpt><trkpt lat="45.72845323373784" lon="9.688706081348066"><ele>569.0</ele><time>2026-03-28T16:52:30Z</time></trkpt><trkpt lat="45.728378375728305" lon="9.688735901703149"><ele>567.0</ele><time>2026-03-28T16:52:35Z</time></trkpt><trkpt lat="45.728307939330605" lon="9.688769404640517"><ele>565.0</ele><time>2026-03-28T16:52:40Z</time></trkpt><trkpt lat="45.728246108047585" lon="9.688814470398215"><ele>563.0</ele><time>2026-03-28T16:52:44Z</time></trkpt><trkpt lat="45.728190377098954" lon="9.688883245964128"><ele>563.0</ele><time>2026-03-28T16:52:48.999Z</time></trkpt><trkpt lat="45.72813698759689" lon="9.688932080876395"><ele>563.0</ele><time>2026-03-28T16:52:52.999Z</time></trkpt><trkpt lat="45.728062130026586" lon="9.68897558675069"><ele>563.0</ele><time>2026-03-28T16:52:57.999Z</time></trkpt><trkpt lat="45.727993096489264" lon="9.688989251360981"><ele>563.0</ele><time>2026-03-28T16:53:02.999Z</time></trkpt><trkpt lat="45.72793782542577" lon="9.689032521423801"><ele>563.0</ele><time>2026-03-28T16:53:06.999Z</time></trkpt><trkpt lat="45.72787956790488" lon="9.689099999365686"><ele>563.0</ele><time>2026-03-28T16:53:10.999Z</time></trkpt><trkpt lat="45.72781764838461" lon="9.689186055447587"><ele>563.0</ele><time>2026-03-28T16:53:13.999Z</time></trkpt><trkpt lat="45.72776355217292" lon="9.689242908540765"><ele>561.0</ele><time>2026-03-28T16:53:15.999Z</time></trkpt><trkpt lat="45.72768849498676" lon="9.689342422007334"><ele>559.0</ele><time>2026-03-28T16:53:18.999Z</time></trkpt><trkpt lat="45.727661726272224" lon="9.689432911543975"><ele>557.0</ele><time>2026-03-28T16:53:21Z</time></trkpt><trkpt lat="45.727606617886195" lon="9.689497427990709"><ele>555.0</ele><time>2026-03-28T16:53:23Z</time></trkpt><trkpt lat="45.7275539909893" lon="9.689582050765088"><ele>553.0</ele><time>2026-03-28T16:53:25Z</time></trkpt><trkpt lat="45.72749025884954" lon="9.689642168176018"><ele>551.0</ele><time>2026-03-28T16:53:27Z</time></trkpt><trkpt lat="45.72744256710966" lon="9.689705167201279"><ele>550.9999999999999</ele><time>2026-03-28T16:53:30Z</time></trkpt><trkpt lat="45.72738215774922" lon="9.689743845802965"><ele>551.0</ele><time>2026-03-28T16:53:33Z</time></trkpt><trkpt lat="45.72733928002125" lon="9.689818516154835"><ele>551.0</ele><time>2026-03-28T16:53:36Z</time></trkpt><trkpt lat="45.72729907302783" lon="9.689890182475818"><ele>551.0</ele><time>2026-03-28T16:53:42Z</time></trkpt><trkpt lat="45.7272586290963" lon="9.689960020494413"><ele>551.0</ele><time>2026-03-28T16:53:47Z</time></trkpt><trkpt lat="45.727202388761384" lon="9.690006742397724"><ele>550.9999999999999</ele><time>2026-03-28T16:53:51Z</time></trkpt><trkpt lat="45.727154255976565" lon="9.690067034630292"><ele>551.0</ele><time>2026-03-28T16:53:55Z</time></trkpt><trkpt lat="45.72708062341955" lon="9.690111348006024"><ele>550.9999999999999</ele><time>2026-03-28T16:54:03Z</time></trkpt><trkpt lat="45.72708430518457" lon="9.690205118942023"><ele>551.0</ele><time>2026-03-28T16:54:06Z</time></trkpt><trkpt lat="45.727023180463775" lon="9.690227942879202"><ele>551.0</ele><time>2026-03-28T16:54:11Z</time></trkpt><trkpt lat="45.72696754426765" lon="9.690275781369763"><ele>551.0</ele><time>2026-03-28T16:54:16Z</time></trkpt><trkpt lat="45.7269165521554" lon="9.690345410701934"><ele>551.0</ele><time>2026-03-28T16:54:22Z</time></trkpt><trkpt lat="45.726876297533444" lon="9.690439496238625"><ele>550.9999999999999</ele><time>2026-03-28T16:54:27Z</time></trkpt><trkpt lat="45.726832228835" lon="9.69050653839643"><ele>551.0</ele><time>2026-03-28T16:54:33Z</time></trkpt><trkpt lat="45.7267558863054" lon="9.69051204142381"><ele>551.7142857142857</ele><time>2026-03-28T16:54:36Z</time></trkpt><trkpt lat="45.7266768092589" lon="9.690516721789427"><ele>552.4285714285714</ele><time>2026-03-28T16:54:40Z</time></trkpt><trkpt lat="45.7266330749369" lon="9.690593510034436"><ele>553.1428571428571</ele><time>2026-03-28T16:54:44Z</time></trkpt><trkpt lat="45.72658521753847" lon="9.69065890283112"><ele>553.8571428571429</ele><time>2026-03-28T16:54:48Z</time></trkpt><trkpt lat="45.726523327493474" lon="9.690688866911502"><ele>554.5714285714286</ele><time>2026-03-28T16:54:52Z</time></trkpt><trkpt lat="45.726460251338224" lon="9.690747891912011"><ele>555.2857142857142</ele><time>2026-03-28T16:54:57Z</time></trkpt><trkpt lat="45.726401565484466" lon="9.690818942417062"><ele>556.0</ele><time>2026-03-28T16:55:02Z</time></trkpt><trkpt lat="45.72633956213893" lon="9.690880430378172"><ele>556.0</ele><time>2026-03-28T16:55:07Z</time></trkpt><trkpt lat="45.726281534552164" lon="9.690931400364416"><ele>556.0</ele><time>2026-03-28T16:55:12Z</time></trkpt><trkpt lat="45.72621958260501" lon="9.690965005854503"><ele>556.0</ele><time>2026-03-28T16:55:16.999Z</time></trkpt><trkpt lat="45.726153854972864" lon="9.691003593187286"><ele>556.0</ele><time>2026-03-28T16:55:22.999Z</time></trkpt><trkpt lat="45.72608276092654" lon="9.69104112427578"><ele>556.0</ele><time>2026-03-28T16:55:28Z</time></trkpt><trkpt lat="45.726010517308225" lon="9.691085183774245"><ele>556.0</ele><time>2026-03-28T16:55:33Z</time></trkpt><trkpt lat="45.72595290545889" lon="9.691031493946282"><ele>556.0</ele><time>2026-03-28T16:55:37Z</time></trkpt><trkpt lat="45.72589194493276" lon="9.69110212699919"><ele>555.4285714285714</ele><time>2026-03-28T16:55:41Z</time></trkpt><trkpt lat="45.725816203129675" lon="9.69107645529273"><ele>554.8571428571429</ele><time>2026-03-28T16:55:48Z</time></trkpt><trkpt lat="45.72575269162313" lon="9.691097094661211"><ele>554.2857142857143</ele><time>2026-03-28T16:55:51Z</time></trkpt><trkpt lat="45.72569394855139" lon="9.691131781153569"><ele>553.7142857142858</ele><time>2026-03-28T16:55:53Z</time></trkpt><trkpt lat="45.72562187469657" lon="9.691156413358092"><ele>553.1428571428572</ele><time>2026-03-28T16:55:56Z</time></trkpt><trkpt lat="45.72554978642527" lon="9.691213734283684"><ele>552.5714285714286</ele><time>2026-03-28T16:55:58Z</time></trkpt><trkpt lat="45.725500272507034" lon="9.691308466818848"><ele>552.0</ele><time>2026-03-28T16:56:00Z</time></trkpt><trkpt lat="45.72543620874797" lon="9.691360718524082"><ele>551.3333333333334</ele><time>2026-03-28T16:56:02Z</time></trkpt><trkpt lat="45.72536106043239" lon="9.69144427083488"><ele>550.6666666666666</ele><time>2026-03-28T16:56:05Z</time></trkpt><trkpt lat="45.72529891741774" lon="9.691496975328217"><ele>550.0</ele><time>2026-03-28T16:56:10Z</time></trkpt><trkpt lat="45.72522071615091" lon="9.691537031867915"><ele>549.3333333333333</ele><time>2026-03-28T16:56:13Z</time></trkpt><trkpt lat="45.7251609940199" lon="9.691601388970989"><ele>548.6666666666666</ele><time>2026-03-28T16:56:16Z</time></trkpt><trkpt lat="45.72509960807192" lon="9.691654242422787"><ele>548.0</ele><time>2026-03-28T16:56:19Z</time></trkpt><trkpt lat="45.7250277328648" lon="9.691670091448941"><ele>546.5714285714287</ele><time>2026-03-28T16:56:22Z</time></trkpt><trkpt lat="45.724964683591566" lon="9.691674517386886"><ele>545.1428571428571</ele><time>2026-03-28T16:56:24Z</time></trkpt><trkpt lat="45.72489453470026" lon="9.69171638644489"><ele>543.7142857142858</ele><time>2026-03-28T16:56:27Z</time></trkpt><trkpt lat="45.72481629455717" lon="9.691745789048975"><ele>542.2857142857143</ele><time>2026-03-28T16:56:31Z</time></trkpt><trkpt lat="45.72475886653749" lon="9.69178640500428"><ele>540.8571428571429</ele><time>2026-03-28T16:56:36Z</time></trkpt><trkpt lat="45.72474001424392" lon="9.691872946496733"><ele>539.4285714285714</ele><time>2026-03-28T16:56:38Z</time></trkpt><trkpt lat="45.724667766714965" lon="9.691858758894874"><ele>538.0</ele><time>2026-03-28T16:56:41Z</time></trkpt><trkpt lat="45.724602772171124" lon="9.691885868653493"><ele>538.0</ele><time>2026-03-28T16:56:44Z</time></trkpt><trkpt lat="45.72453218367715" lon="9.691886175640624"><ele>538.0</ele><time>2026-03-28T16:56:47Z</time></trkpt><trkpt lat="45.72446690928788" lon="9.691884976950332"><ele>538.0</ele><time>2026-03-28T16:56:51Z</time></trkpt><trkpt lat="45.7244660662184" lon="9.691975918730275"><ele>538.0</ele><time>2026-03-28T16:56:54Z</time></trkpt><trkpt lat="45.72442643174335" lon="9.69205086651856"><ele>538.0</ele><time>2026-03-28T16:56:58Z</time></trkpt><trkpt lat="45.72436661629012" lon="9.692113220135854"><ele>538.0</ele><time>2026-03-28T16:57:01Z</time></trkpt><trkpt lat="45.72429575149778" lon="9.692037841265611"><ele>538.0</ele><time>2026-03-28T16:57:09Z</time></trkpt><trkpt lat="45.72422211023848" lon="9.692041977659269"><ele>531.6</ele><time>2026-03-28T16:57:13Z</time></trkpt><trkpt lat="45.724161198888666" lon="9.692017669534177"><ele>525.1999999999999</ele><time>2026-03-28T16:57:17Z</time></trkpt><trkpt lat="45.72401968733713" lon="9.691961593778549"><ele>518.8</ele><time>2026-03-28T16:57:20Z</time></trkpt><trkpt lat="45.72397632459897" lon="9.692108488532849"><ele>512.4</ele><time>2026-03-28T16:57:23Z</time></trkpt><trkpt lat="45.72404854439113" lon="9.692114860195655"><ele>506.0</ele><time>2026-03-28T16:57:24Z</time></trkpt><trkpt lat="45.723945094435926" lon="9.69215285788678"><ele>505.99999999999994</ele><time>2026-03-28T16:57:27.999Z</time></trkpt><trkpt lat="45.72385069350712" lon="9.692152152572248"><ele>506.0</ele><time>2026-03-28T16:57:30.999Z</time></trkpt><trkpt lat="45.723796579707155" lon="9.692213076135015"><ele>506.0</ele><time>2026-03-28T16:57:36Z</time></trkpt><trkpt lat="45.72370784569429" lon="9.692238107914555"><ele>506.0</ele><time>2026-03-28T16:57:41Z</time></trkpt><trkpt lat="45.72362841406111" lon="9.69226082666792"><ele>505.99999999999994</ele><time>2026-03-28T16:57:44Z</time></trkpt><trkpt lat="45.72356525635577" lon="9.69225003455719"><ele>506.0</ele><time>2026-03-28T16:57:48Z</time></trkpt><trkpt lat="45.723501246112704" lon="9.692246140380096"><ele>503.3333333333333</ele><time>2026-03-28T16:57:51Z</time></trkpt><trkpt lat="45.723430348984536" lon="9.692236638934604"><ele>500.66666666666663</ele><time>2026-03-28T16:57:54Z</time></trkpt><trkpt lat="45.723348665851454" lon="9.692297400439482"><ele>498.0</ele><time>2026-03-28T16:57:57Z</time></trkpt><trkpt lat="45.72328656511998" lon="9.692352656520676"><ele>495.33333333333337</ele><time>2026-03-28T16:58:03Z</time></trkpt><trkpt lat="45.7232191178799" lon="9.692396544867531"><ele>492.6666666666667</ele><time>2026-03-28T16:58:49Z</time></trkpt><trkpt lat="45.72317651924288" lon="9.692481292358806"><ele>490.0</ele><time>2026-03-28T16:58:57Z</time></trkpt><trkpt lat="45.7231262900578" lon="9.692543088689492"><ele>490.0</ele><time>2026-03-28T16:59:03Z</time></trkpt><trkpt lat="45.723160002303565" lon="9.69262287206109"><ele>490.0</ele><time>2026-03-28T16:59:07Z</time></trkpt><trkpt lat="45.72314828225424" lon="9.692720743351028"><ele>490.0</ele><time>2026-03-28T16:59:29.999Z</time></trkpt><trkpt lat="45.723110373417086" lon="9.692805271269036"><ele>490.0</ele><time>2026-03-28T16:59:33.999Z</time></trkpt><trkpt lat="45.7230335989183" lon="9.693010467828618"><ele>490.0</ele><time>2026-03-28T16:59:45.999Z</time></trkpt><trkpt lat="45.72312885347217" lon="9.693023344462507"><ele>485.50000000000006</ele><time>2026-03-28T16:59:50Z</time></trkpt><trkpt lat="45.72321939008057" lon="9.693002049136316"><ele>481.0</ele><time>2026-03-28T16:59:54Z</time></trkpt><trkpt lat="45.723281544354236" lon="9.692950044659064"><ele>476.5</ele><time>2026-03-28T16:59:56Z</time></trkpt><trkpt lat="45.72333910184026" lon="9.693007602372012"><ele>472.0</ele><time>2026-03-28T16:59:59Z</time></trkpt><trkpt lat="45.72340995424117" lon="9.6930048647932"><ele>467.50000000000006</ele><time>2026-03-28T17:00:02Z</time></trkpt><trkpt lat="45.723474960571664" lon="9.69306853690676"><ele>463.0</ele><time>2026-03-28T17:00:05Z</time></trkpt><trkpt lat="45.72355897203376" lon="9.693090083113342"><ele>464.6666666666667</ele><time>2026-03-28T17:00:09Z</time></trkpt><trkpt lat="45.72362333349067" lon="9.693106172257178"><ele>466.33333333333337</ele><time>2026-03-28T17:00:11Z</time></trkpt><trkpt lat="45.723695445124385" lon="9.693209692742856"><ele>468.0</ele><time>2026-03-28T17:00:14Z</time></trkpt><trkpt lat="45.7237675018008" lon="9.693240450145241"><ele>469.66666666666663</ele><time>2026-03-28T17:00:16Z</time></trkpt><trkpt lat="45.723841319661666" lon="9.693231181011429"><ele>471.3333333333333</ele><time>2026-03-28T17:00:18Z</time></trkpt><trkpt lat="45.72383482162446" lon="9.69332328209096"><ele>473.0</ele><time>2026-03-28T17:00:20Z</time></trkpt><trkpt lat="45.72378876234471" lon="9.69340871246771"><ele>473.0</ele><time>2026-03-28T17:00:28Z</time></trkpt><trkpt lat="45.72372399889266" lon="9.693409573866699"><ele>473.0</ele><time>2026-03-28T17:00:30Z</time></trkpt><trkpt lat="45.72364086276519" lon="9.693426019600405"><ele>473.0</ele><time>2026-03-28T17:00:33Z</time></trkpt><trkpt lat="45.72364632398727" lon="9.693520453102762"><ele>473.0</ele><time>2026-03-28T17:00:37Z</time></trkpt><trkpt lat="45.723720618183116" lon="9.693528571599645"><ele>473.0</ele><time>2026-03-28T17:00:45Z</time></trkpt><trkpt lat="45.72367118952901" lon="9.693595473706873"><ele>473.0</ele><time>2026-03-28T17:00:46Z</time></trkpt><trkpt lat="45.72360019435321" lon="9.693577420586157"><ele>473.0</ele><time>2026-03-28T17:00:50Z</time></trkpt><trkpt lat="45.723563447110365" lon="9.693467575031166"><ele>471.3333333333333</ele><time>2026-03-28T17:00:53Z</time></trkpt><trkpt lat="45.72351146243115" lon="9.693519999202614"><ele>469.66666666666663</ele><time>2026-03-28T17:00:54Z</time></trkpt><trkpt lat="45.72345025913923" lon="9.693551429157715"><ele>468.0</ele><time>2026-03-28T17:00:57Z</time></trkpt><trkpt lat="45.723435878361144" lon="9.693685013041184"><ele>466.33333333333337</ele><time>2026-03-28T17:01:01Z</time></trkpt><trkpt lat="45.72342838902247" lon="9.693558238465673"><ele>464.6666666666667</ele><time>2026-03-28T17:01:09Z</time></trkpt><trkpt lat="45.723358272859194" lon="9.693541267782317"><ele>463.0</ele><time>2026-03-28T17:01:11Z</time></trkpt><trkpt lat="45.723287674700785" lon="9.693540813826418"><ele>455.4</ele><time>2026-03-28T17:01:12Z</time></trkpt><trkpt lat="45.72319731891171" lon="9.69360186043235"><ele>447.79999999999995</ele><time>2026-03-28T17:01:14Z</time></trkpt><trkpt lat="45.72313843078761" lon="9.693638986246052"><ele>440.2</ele><time>2026-03-28T17:01:17Z</time></trkpt><trkpt lat="45.72309485721615" lon="9.693715938222534"><ele>432.6</ele><time>2026-03-28T17:01:21Z</time></trkpt><trkpt lat="45.72304778336966" lon="9.693794216992485"><ele>425.0</ele><time>2026-03-28T17:01:23Z</time></trkpt><trkpt lat="45.7231582079676" lon="9.69403975340947"><ele>424.99999999999994</ele><time>2026-03-28T17:01:38.999Z</time></trkpt><trkpt lat="45.7231472792906" lon="9.69415629158895"><ele>425.0</ele><time>2026-03-28T17:01:41.999Z</time></trkpt><trkpt lat="45.723112462438145" lon="9.694260093765125"><ele>425.0</ele><time>2026-03-28T17:01:43.999Z</time></trkpt><trkpt lat="45.72311149335339" lon="9.694354306270787"><ele>425.0</ele><time>2026-03-28T17:01:46.999Z</time></trkpt><trkpt lat="45.723125464056935" lon="9.694454529450773"><ele>424.99999999999994</ele><time>2026-03-28T17:01:48.999Z</time></trkpt><trkpt lat="45.72309202475183" lon="9.694366064545125"><ele>425.0</ele><time>2026-03-28T17:01:49.999Z</time></trkpt><trkpt lat="45.7231796687868" lon="9.694255668930058"><ele>424.99999999999994</ele><time>2026-03-28T17:01:51.999Z</time></trkpt><trkpt lat="45.72321186474345" lon="9.694340226490171"><ele>425.0</ele><time>2026-03-28T17:01:56Z</time></trkpt><trkpt lat="45.723143921758364" lon="9.694317528713787"><ele>425.0</ele><time>2026-03-28T17:02:02Z</time></trkpt><trkpt lat="45.72306324806832" lon="9.694333760122136"><ele>425.0</ele><time>2026-03-28T17:02:09Z</time></trkpt><trkpt lat="45.72300381860598" lon="9.694384809650751"><ele>424.99999999999994</ele><time>2026-03-28T17:02:17Z</time></trkpt><trkpt lat="45.722966437907104" lon="9.69453022232398"><ele>425.0</ele><time>2026-03-28T17:02:20Z</time></trkpt><trkpt lat="45.72293817022982" lon="9.694611919714893"><ele>418.66666666666663</ele><time>2026-03-28T17:02:23Z</time></trkpt><trkpt lat="45.7228832181204" lon="9.694657030320291"><ele>412.3333333333333</ele><time>2026-03-28T17:02:25Z</time></trkpt><trkpt lat="45.722784608093626" lon="9.694555608506086"><ele>406.0</ele><time>2026-03-28T17:02:26Z</time></trkpt><trkpt lat="45.72288260549889" lon="9.694529033321137"><ele>399.66666666666663</ele><time>2026-03-28T17:02:30Z</time></trkpt><trkpt lat="45.722891335193445" lon="9.694622388161841"><ele>393.3333333333333</ele><time>2026-03-28T17:02:36Z</time></trkpt><trkpt lat="45.722894424788" lon="9.69471907216332"><ele>387.0</ele><time>2026-03-28T17:02:39Z</time></trkpt><trkpt lat="45.72289515331166" lon="9.694837889567902"><ele>387.0</ele><time>2026-03-28T17:02:43Z</time></trkpt><trkpt lat="45.722921081837" lon="9.694935962856855"><ele>387.0</ele><time>2026-03-28T17:02:50Z</time></trkpt><trkpt lat="45.72288392074372" lon="9.69501831846871"><ele>387.0</ele><time>2026-03-28T17:02:53Z</time></trkpt><trkpt lat="45.72290725722982" lon="9.695116842444152"><ele>387.0</ele><time>2026-03-28T17:02:55Z</time></trkpt><trkpt lat="45.72291991914352" lon="9.695229375966768"><ele>387.0</ele><time>2026-03-28T17:02:59Z</time></trkpt><trkpt lat="45.722935605594884" lon="9.69532221241607"><ele>387.0</ele><time>2026-03-28T17:03:07Z</time></trkpt><trkpt lat="45.72293705271764" lon="9.695425928578834"><ele>387.0</ele><time>2026-03-28T17:03:18Z</time></trkpt><trkpt lat="45.72294307230077" lon="9.695535093132213"><ele>369.0</ele><time>2026-03-28T17:03:22Z</time></trkpt></trkseg></trk></gpx>